     2              OBSERVATION DATA                        RINEX VERSION / TYPE
DAT2RIN 1.01d Dan Johnson 20SEP96 3:35:07 GMT               PGM / RUN BY / DATE
Mojave '96 team Central Washington U                        OBSERVER / AGENCY
16311 TRIMBLE 4000SSI Nav 7.09 Sig 3.03                     REC # / TYPE / VERS
64585 TRIMBLE CHOKE                                         ANT # / TYPE
RAIN RAINBOW                                                MARKER NAME
 -2392435.0000 -4653676.0000  3636004.0000                  APPROX POSITION XYZ
        0.7533        0.0000        0.0000                  ANTENNA: DELTA H/E/N
     1     1     0                                          WAVELENGTH FACT L1/2
     5    L1    C1    P1    L2    P2                        # / TYPES OF OBSERV
    30                                                      INTERVAL
                                                            COMMENT
PANGA GPS Data Analysis Center                              COMMENT
Department of Geology                                       COMMENT
Central Washington University                               COMMENT
Ellensburg, WA 98926                                        COMMENT
                                                            COMMENT
http://www.panga.cwu.edu                                    COMMENT
ftp://panga.cwu.edu                                         COMMENT
                                                            COMMENT
  1996     9    14     0     0   30.000000                  TIME OF FIRST OBS
  1996     9    14    23    59    0.000000                  TIME OF LAST OBS
    25                                                      # OF SATELLITES
           1   752   752     0   749   749                  PRN / # OF OBS
           2   855   856     0   849   849                  PRN / # OF OBS
           3   919   919     0   911   911                  PRN / # OF OBS
           4   763   764     0   756   756                  PRN / # OF OBS
           5   718   719     0   715   715                  PRN / # OF OBS
           6   782   782     0   779   779                  PRN / # OF OBS
           7   745   745     0   742   742                  PRN / # OF OBS
           9   877   877     0   868   868                  PRN / # OF OBS
          10   884   884     0   869   869                  PRN / # OF OBS
          14   711   711     0   709   709                  PRN / # OF OBS
          15   885   885     0   879   879                  PRN / # OF OBS
          16   908   908     0   901   901                  PRN / # OF OBS
          17   859   860     0   857   857                  PRN / # OF OBS
          18   768   768     0   763   763                  PRN / # OF OBS
          19   856   857     0   855   855                  PRN / # OF OBS
          21   864   864     0   860   860                  PRN / # OF OBS
          22   893   893     0   885   885                  PRN / # OF OBS
          23   805   805     0   802   802                  PRN / # OF OBS
          24   704   705     0   697   697                  PRN / # OF OBS
          25   663   663     0   660   660                  PRN / # OF OBS
          26   938   938     0   929   929                  PRN / # OF OBS
          27   821   821     0   818   818                  PRN / # OF OBS
          28   700     1   701   700   700                  PRN / # OF OBS
          29   855   855     0   852   852                  PRN / # OF OBS
          31   932   932     0   925   925                  PRN / # OF OBS
                                                            END OF HEADER
 96  9 14  0  0 30.0000000  0  6  1 14 15 21 25 29
  38603388.31210  23500687.39100                  30164418.21850  23500692.17240
  -1318406.04310  22653060.68800                  -1014270.57350  22653065.49240
   3367139.09610  21044468.10200                   2690376.02550  21044472.48440
  55137279.32410  24151649.74200                  10918838.41550  24151655.66040
   4847169.33610  20926078.32000                   3826188.91950  20926081.14540
    703945.23910  22855133.69500                    561176.90250  22855137.44540
 96  9 14  0  1  0.0000000  0  6  1 14 15 21 25 29
  38752048.17600  23528976.43800                  30280257.06340  23528981.50040
  -1324436.54900  22651913.06300                  -1018969.63540  22651917.27040
   3456724.39400  21061515.53900                   2760182.75940  21061519.69940
  55303000.65200  24183186.68800                  11047971.91840  24183190.98840
   4938262.47900  20943412.87500                   3897170.60640  20943415.78140
    721836.25400  22858538.50800                    575117.99440  22858542.31640
 96  9 14  0  1 30.0000000  0  6  1 14 15 21 25 29
  38900739.22300  23557272.00000                  30396120.22140  23557276.12540
  -1330345.69300  22650789.09400                  -1023574.14040  22650793.16040
   3546937.45800  21078682.41400                   2830478.66240  21078686.59840
  55468945.71200  24214763.69500                  11177279.71040  24214769.09840
   5029874.66000  20960845.82800                   3968556.74240  20960848.73440
    739889.22600  22861973.85900                    589185.28540  22861977.30540
 96  9 14  0  2  0.0010000  0  6  1 14 15 21 25 29
  39049458.63800  23585572.05200                  30512005.48340  23585576.48140
  -1336123.48600  22649689.16100                  -1028076.29140  22649693.69640
   3637787.74500  21095970.91900                   2901271.09940  21095975.19640
  55635122.66100  24246387.53600                  11306768.26240  24246392.35340
   5122011.81000  20978378.87200                   4040351.93940  20978381.74340
    758116.51200  22865441.93500                    603388.39540  22865445.93140
 96  9 14  0  2 30.0010000  0  6  1 14 15 21 25 29
  39198169.51300  23613870.03600                  30627884.08740  23613874.51340
  -1341781.90000  22648612.52800                  -1032485.42140  22648616.81740
   3729255.42500  21113376.44200                   2972544.62240  21113380.50940
  55801504.26300  24278046.89600                  11436416.13840  24278051.07940
   5214652.82900  20996008.07500                   4112539.76440  20996010.93540
    776523.52100  22868944.63000                    617731.57540  22868948.31040
 96  9 14  0  3  0.0010000  0  6  1 14 15 21 25 29
  39346876.99300  23642167.77100                  30743760.05340  23642171.70840
  -1347315.79300  22647559.31700                  -1036797.53140  22647563.64240
   3821347.64800  21130901.02100                   3044304.80140  21130905.26340
  55968101.81800  24309752.30200                  11566232.37440  24309757.61040
   5307786.11800  21013730.77800                   4185111.17540  21013733.61440
    795118.30900  22872483.34900                    632221.05540  22872486.99340
 96  9 14  0  3 30.0010000  0  6  1 14 15 21 25 29
  39495587.35600  23670467.83300                  30859638.23440  23670472.36840
  -1352742.72200  22646526.68500                  -1041026.27940  22646530.79840
   3914067.99300  21148545.10600                   3116554.42640  21148549.36040
  56134911.30800  24341494.79400                  11696213.79040  24341501.78240
   5401412.12900  21031547.03600                   4258066.52840  21031549.94240
    813891.03600  22876055.90300                    646849.18640  22876058.98540
 96  9 14  0  4  0.0010000  0  6  1 14 15 21 25 29
  39644300.87200  23698766.38800                  30975518.88240  23698771.81340
  -1358074.51200  22645512.09900                  -1045180.90440  22645516.36440
   4007405.15200  21166306.59900                   3189284.68440  21166310.72440
  56301923.25300  24373274.17700                  11826352.97340  24373278.48940
   5495511.21900  21049453.58300                   4331390.51140  21049456.43140
    832820.08600  22879657.76300                    661599.13040  22879661.23140
 96  9 14  0  4 30.0010000  0  6  1 14 15 21 25 29
  39793056.30800  23727073.38000                  31091432.21940  23727077.78640
  -1363280.09500  22644521.20000                  -1049237.17740  22644525.29040
   4101370.69000  21184187.62200                   3262504.58340  21184191.86440
  56469158.61700  24405099.22400                  11956666.19240  24405104.53240
   5590114.09100  21067455.94200                   4405107.04840  21067458.83740
    851900.67900  22883288.22400                    676467.14640  22883291.96240
 96  9 14  0  5  0.0010000  0  6  1 14 15 21 25 29
  39941870.89500  23755392.67700                  31207391.59940  23755396.75540
  -1368357.16000  22643555.29400                  -1053193.32240  22643559.24340
   4195960.76400  21202187.56000                   3336211.13740  21202191.80240
  56636613.96600  24436965.69200                  12087150.86340  24436971.08340
   5685227.66800  21085555.29400                   4479221.54140  21085558.11840
    871116.33400  22886944.93500                    691440.42340  22886948.70840
 96  9 14  0  5 30.0010000  0  6  1 14 15 21 25 29
  40090754.67600  23783723.20800                  31323404.92140  23783727.21640
  -1373296.86200  22642615.13000                  -1057042.41640  22642619.36040
   4291185.13000  21220308.20000                   3410411.94040  21220312.34940
  56804301.62700  24468875.77100                  12217816.56740  24468882.35640
   5780876.12400  21103756.56700                   4553752.81840  21103759.52140
    890485.39200  22890631.02100                    706533.22140  22890634.45440
 96  9 14  0  6  0.0010000  0  6  1 14 15 21 25 29
  40239687.17200  23812065.14600                  31439456.20540  23812069.93840
  -1378096.01200  22641701.83300                  -1060781.98640  22641705.97040
   4387027.89300  21238546.45800                   3485094.61140  21238550.65340
  56972207.24100  24500825.37200                  12348652.06040  24500830.58740
   5877045.90700  21122056.98900                   4628690.32640  21122059.89640
    910008.80300  22894346.26300                    721746.30140  22894349.59140
 96  9 14  0  6 30.0010000  0  6  1 14 15 21 25 29
  40388656.51400  23840412.49700                  31555536.19740  23840416.22440
  -1382756.89400  22640815.19200                  -1064413.83040  22640819.50540
   4483493.95500  21256903.35600                   3560262.96940  21256907.54040
  57140322.65700  24532817.60600                  12479651.02140  24532822.61040
   5973737.23300  21140456.90300                   4704034.22740  21140459.75140
    929697.50500  22898092.67700                    737088.18240  22898095.79440
 96  9 14  0  7  0.0010000  0  7  1 14 15 21 22 25 29
  40537624.07700  23868760.59100                  31671614.78440  23868763.94240
  -1387298.26600  22639950.93500                  -1067952.53140  22639955.22440
   4580577.16200  21275377.20000                   3635912.23140  21275381.59540
  57308632.58000  24564844.96600                  12610801.64840  24564848.75140
    -10997.71010  24876126.02800
   6070916.86900  21158949.91900                   4779758.62140  21158952.74340
    949546.84000  22901869.63800                    752555.22540  22901872.90740
 96  9 14  0  7 30.0010000  0  7  1 14 15 21 22 25 29
  40686568.18800  23897102.59100                  31787675.09940  23897107.94640
  -1391724.10500  22639108.87200                  -1071401.20840  22639113.17340
   4678278.18900  21293969.51300                   3712042.89440  21293973.81340
  57477138.64100  24596910.79400                  12742104.99640  24596915.15340
    -30474.75500  24872421.19200
   6168581.53800  21177534.45000                   4855860.98140  21177537.28640
    969563.66700  22905678.95800                    768152.78240  22905682.14640
 96  9 14  0  8  0.0010000  0  7  1 14 15 21 22 25 29
  40835483.58100  23925440.93500                  31903713.05440  23925446.80640
  -1396040.84200  22638287.19200                  -1074764.88340  22638291.00140
   4776591.27800  21312677.79400                   3788650.49140  21312681.98940
  57645827.65100  24629011.20000                  12873550.92840  24629016.06340
    -50044.56000  24868697.00500                     -9158.65350  24868705.44640
   6266728.79300  21196211.41100                   4932339.36740  21196214.24740
    989732.91600  22909517.06000                    783869.11740  22909520.13040
 96  9 14  0  8 30.0010000  0  7  1 14 15 21 22 25 29
  40984373.16100  23953772.98900                  32019730.89540  23953777.25540
  -1400257.89100  22637484.73900                  -1078050.87340  22637488.82940
   4875510.24600  21331501.60600                   3865730.20340  21331505.80240
  57814698.78600  24661146.97400                  13005138.75940  24661151.01740
    -69702.57100  24864954.82500                    -24476.44740  24864961.82540
   6365366.38100  21214981.42700                   5009199.83340  21214984.27440
   1010042.99600  22913381.45000                    799695.18440  22913384.53240
 96  9 14  0  9  0.0010000  0  7  1 14 15 21 22 25 29
  41133261.65800  23982106.15300                  32135747.89840  23982109.68140
  -1404350.34200  22636705.98900                  -1081239.77040  22636710.03240
   4975043.15200  21350441.98100                   3943288.31740  21350446.22440
  57983774.04300  24693321.56000                  13136885.71240  24693326.50540
    -89435.86400  24861200.92700                    -39852.83140  24861204.14940
   6464528.13500  21233851.09100                   5086468.74440  21233853.93840
   1030518.19500  22917278.33300                    815649.92740  22917281.72040
 96  9 14  0  9 30.0010000  0  7  1 14 15 21 22 25 29
  41282171.95500  24010443.43500                  32251781.87940  24010447.78240
  -1408304.88600  22635953.21600                  -1084321.22040  22635957.25940
   5075194.39700  21369500.14600                   4021328.24940  21369504.37640
  58153063.24500  24725536.76300                  13268799.25840  24725543.93840
   -109232.40300  24857432.17700                    -55278.52740  24857437.62640
   6564233.86600  21252824.43500                   5164161.53540  21252827.20040
   1051179.34300  22921209.74700                    831749.54440  22921213.06340
 96  9 14  0 10  0.0010000  0  7  1 14 15 21 22 25 29
  41431100.77900  24038784.25500                  32367830.32440  24038788.80240
  -1412119.67600  22635227.60600                  -1087293.74940  22635231.55640
   5175949.58300  21388673.23100                   4099838.78540  21388677.49740
  58322553.00600  24757786.47400                  13400869.18140  24757792.01740
   -129097.76900  24853652.20800                    -70757.81340  24853657.11840
   6664455.41800  21271895.98900                   5242256.26440  21271898.76740
   1072006.02000  22925173.16900                    847978.16240  22925176.40340
 96  9 14  0 10 30.0010000  0  7  1 14 15 21 22 25 29
  41580062.44800  24067129.15300                  32483904.38640  24067134.23940
  -1415770.15100  22634532.76300                  -1090138.26340  22634536.80640
   5277317.77300  21407962.87200                   4178826.98240  21407966.93840
  58492255.16000  24790082.57500                  13533104.55840  24790088.96240
   -148999.52500  24849864.34100                    -86265.43940  24849870.07140
   6765184.87700  21291064.27800                   5320746.76440  21291067.05640
   1093008.50700  22929169.66100                    864343.76140  22929173.03640
 96  9 14  0 11  0.0010000  0  7  1 14 15 21 22 25 29
  41729056.07600  24095482.20800                  32600003.31640  24095486.36840
  -1419244.89300  22633871.44200                  -1092845.82440  22633875.33340
   5379303.60400  21427370.35600                   4258296.46440  21427374.55240
  58662166.42100  24822414.47400                  13665502.94640  24822420.32140
   -168934.35100  24846072.10600                   -101798.71340  24846079.28240
   6866412.20800  21310327.25500                   5399625.21940  21310330.07940
   1114179.97900  22933198.41100                    880841.03940  22933201.96240
 96  9 14  0 11 30.0010000  0  7  1 14 15 21 22 25 29
  41878063.79400  24123836.89600                  32716113.20740  24123841.93540
  -1422564.31500  22633239.75500                  -1095432.36740  22633243.62240
   5481892.63100  21446892.39600                   4338235.97040  21446896.53240
  58832267.35000  24854781.63000                  13798049.07240  24854788.15740
   -188912.63900  24842269.52100                   -117366.02540  24842279.62640
   6968097.71600  21329677.30200                   5478860.69340  21329680.10340
   1135488.82000  22937253.16900                    897445.35640  22937256.66140
 96  9 14  0 12  0.0010000  0  7  1 14 15 21 22 25 29
  42027092.98900  24152196.08300                  32832239.85240  24152200.29040
  -1425723.07400  22632638.81000                  -1097893.70640  22632642.98140
   5585091.22700  21466530.38800                   4418650.46740  21466534.58340
  59002552.69900  24887187.56000                  13930738.87840  24887192.13040
   -208923.46700  24838461.61400                   -132958.59740  24838470.68840
   7070247.93000  21349115.62200                   5558458.27840  21349118.45840
   1156933.25500  22941333.78600                    914155.34140  22941337.06740
 96  9 14  0 12 30.0020000  0  7  1 14 15 21 22 25 29
  42176132.29200  24180557.65800                  32948374.39240  24180562.36940
  -1428744.85200  22632063.90800                  -1100248.32540  22632067.69340
   5688889.83000  21486282.60400                   4499532.49740  21486286.83440
  59173015.47000  24919626.17400                  14063566.98040  24919630.65040
   -228984.59600  24834643.16600                   -148590.41740  24834649.52940
   7172865.08400  21368643.04900                   5638419.70640  21368645.80340
   1178512.94800  22945440.18900                    930970.72040  22945443.60040
 96  9 14  0 13  0.0020000  0  7  1 14 15 21 22 25 29
  42325178.32000  24208920.79900                  33064514.11440  24208925.53340
  -1431635.30700  22631513.76000                  -1102500.59840  22631517.49840
   5793292.93800  21506149.61900                   4580885.56540  21506153.62740
  59343658.38800  24952099.48600                  14196535.43340  24952105.26440
   -249096.35400  24830815.72900                   -164261.70640  24830821.67040
   7275963.95400  21388262.20500                   5718756.50240  21388264.87740
   1200248.65700  22949576.57200                    947907.67340  22949579.66640
 96  9 14  0 13 30.0020000  0  7  1 14 15 21 22 25 29
  42474242.85000  24237286.47900                  33180668.29140  24237291.29540
  -1434396.20100  22630988.52500                  -1104651.92440  22630992.72140
   5898304.07600  21526132.75200                   4662712.42840  21526136.98240
  59514492.17500  24984609.15000                  14329652.60540  24984616.85440
   -269253.55600  24826980.22100                   -179968.42840  24826982.28340
   7379548.11300  21407973.71300                   5799471.44340  21407976.58440
   1222155.59700  22953745.47100                    964978.05140  22953748.44740
 96  9 14  0 14  0.0020000  0  7  1 14 15 21 22 25 29
  42623323.72100  24265655.95500                  33296835.16040  24265659.95140
  -1437025.16400  22630488.14300                  -1106700.43540  22630492.16240
   6003914.00700  21546229.54100                   4745005.88040  21546233.70140
  59685512.94200  25017152.02500                  14462915.49440  25017157.61540
   -289479.95600  24823131.72100                   -195729.04840  24823139.29540
   7483621.55400  21427778.05700                   5880567.64440  21427780.81140
   1244223.03200  22957944.55700                    982173.47740  22957947.75640
 96  9 14  0 14 30.0020000  0  7  1 14 15 21 22 25 29
  42772427.58900  24294029.43200                  33413019.98840  24294032.59640
  -1439507.20800  22630015.77500                  -1108634.47840  22630019.73640
   6110133.38000  21566442.48600                   4827774.22040  21566446.79940
  59856743.96100  25049735.51000                  14596342.22540  25049738.90840
   -309766.24400  24819270.36900                   -211536.36240  24819276.17040
   7588195.03600  21447677.72100                   5962053.48840  21447680.41640
   1266468.55600  22962177.67400                    999507.68740  22962181.26040
 96  9 14  0 15  0.0020000  0  7  1 14 15 21 22 25 29
  42921542.80900  24322404.05700                  33529213.63940  24322408.97940
  -1441850.86500  22629569.68200                  -1110460.69140  22629573.71340
   6216949.45100  21586769.01000                   4911007.51940  21586773.21740
  60028162.30400  25082355.87700                  14729914.85540  25082363.70940
   -330121.52000  24815397.39300                   -227397.45240  24815402.81840
   7693254.32200  21467670.01800                   6043917.87340  21467672.85440
   1288878.00600  22966441.96300                   1016969.62940  22966445.45540
 96  9 14  0 15 30.0020000  0  6  1 14 15 22 25 29
  43070674.93700  24350783.15000                  33645420.49740  24350787.58040
  -1444033.59900  22629154.38500                  -1112161.50940  22629158.29940
   6324366.16900  21607209.48600                   4994708.85540  21607213.77540
   -350539.46300  24811511.97100                   -243307.34640  24811516.82240
   7798802.10500  21487754.94700                   6126162.90640  21487757.85440
   1311456.31200  22970738.29100                   1034563.14540  22970741.27940
 96  9 14  0 16  0.0020000  0  6  1 14 15 22 25 29
  43219812.77900  24379164.49400                  33761631.75940  24379168.80740
  -1446051.78500  22628770.26000                  -1113734.11040  22628774.31440
   6432383.87900  21627764.90800                   5078878.49740  21627768.98640
   -371013.14100  24807615.78300                   -259260.72740  24807622.02940
   7904838.22900  21507932.76000                   6208788.46340  21507935.51440
   1334198.23700  22975066.02500                   1052284.15040  22975069.24840
 96  9 14  0 16 30.0020000  0  6  1 14 15 22 25 29
  43368942.40600  24407542.45500                  33877836.69140  24407547.21340
  -1447912.26400  22628416.05700                  -1115183.81940  22628419.97140
   6540999.91700  21648433.79100                   5163514.37240  21648437.89340
   -391517.86700  24803714.39300                   -275238.25540  24803721.79140
   8011348.43300  21528201.19700                   6291783.43140  21528204.01040
   1357112.62500  22979426.54900                   1070139.54840  22979429.63140
 96  9 14  0 17  0.0020000  0  6  1 14 15 22 25 29
  43518070.36600  24435920.97100                  33994040.28340  24435925.47140
  -1449609.52700  22628093.22100                  -1116506.34040  22628097.22940
   6650210.56600  21669215.66600                   5248613.57540  21669219.75640
   -412048.03700  24799807.04100                   -291235.63440  24799813.68640
   8118321.60800  21548557.39300                   6375139.16040  21548560.17040
   1380191.44800  22983818.51800                   1088123.07240  22983822.02140
 96  9 14  0 17 30.0020000  0  6  1 14 15 22 25 29
  43667199.24800  24464299.76000                  34110244.58740  24464304.14340
  -1451122.98200  22627804.97900                  -1117685.64140  22627808.96340
   6760014.97200  21690110.73600                   5334175.45340  21690114.88540
   -432585.43000  24795897.43200                   -307238.63340  24795903.52540
   8225748.97200  21569000.36100                   6458848.80040  21569003.10440
   1403422.24600  22988238.84600                   1106225.02140  22988241.83440
 96  9 14  0 18  0.0020000  0  6  1 14 15 22 25 29
  43816326.98600  24492678.08800                  34226448.01540  24492682.48240
  -1452459.23100  22627550.90800                  -1118726.85340  22627554.86940
   6870407.60500  21711117.98600                   5420195.68840  21711122.25240
   -453115.98600  24791991.59600                   -323236.29740  24791997.24440
   8333619.67100  21589527.40800                   6542903.89640  21589530.16240
   1426794.08100  22992686.38500                   1124436.86540  22992689.50240
 96  9 14  0 18 30.0020000  0  6  1 14 15 22 25 29
  43965470.01800  24521058.97900                  34342663.39340  24521062.54140
  -1453610.72000  22627331.67400                  -1119624.10840  22627335.51840
   6981389.10400  21732236.92400                   5506674.77440  21732241.01440
   -473632.06700  24788087.29100                   -339222.68040  24788091.96740
   8441936.13500  21610139.33000                   6627306.33940  21610142.21340
   1450319.10400  22997163.23600                   1142768.07140  22997166.44740
 96  9 14  0 19  0.0020000  0  6  1 14 15 22 25 29
  44114638.00500  24549442.80700                  34458898.14840  24549446.48640
  -1454571.44700  22627148.84600                  -1120372.71640  22627152.86540
   7092958.29800  21753467.74400                   5593611.80940  21753471.91640
   -494140.52200  24784182.98600                   -355203.12740  24784187.58040
   8550713.39400  21630838.84600                   6712067.84240  21630841.58840
   1473988.59000  23001667.33800                   1161211.84440  23001670.78340
 96  9 14  0 19 30.0020000  0  6  1 14 15 22 25 29
  44263815.61500  24577831.70500                  34575140.42340  24577836.08840
  -1455352.70300  22626999.80700                  -1120981.47140  22627003.63940
   7205107.65400  21774809.21300                   5681000.91540  21774813.54940
   -514647.88800  24780281.35400                   -371182.73640  24780286.87340
   8659950.35200  21651625.96300                   6797187.55040  21651628.76440
   1497791.78400  23006196.86100                   1179759.80840  23006200.16640
 96  9 14  0 20  0.0020000  0  6  1 14 15 22 25 29
  44413014.34200  24606222.83000                  34691399.13840  24606226.79140
  -1455971.18500  22626882.08800                  -1121463.39440  22626886.14340
   7317842.17900  21796261.88500                   5768845.99640  21796266.03340
   -535167.36800  24776377.01000                   -387171.79640  24776381.99040
   8769657.51700  21672502.39300                   6882673.65640  21672505.26440
   1521745.70100  23010755.40000                   1198425.22840  23010758.68240
 96  9 14  0 20 30.0020000  0  6  1 14 15 22 25 29
  44562208.93500  24634613.65800                  34807654.62640  24634617.50240
  -1456446.83900  22626791.92400                  -1121834.02040  22626795.87340
   7431140.84400  21817821.71300                   5857130.67340  21817825.92040
   -555729.51100  24772463.91600                   -403194.02440  24772469.54140
   8879821.14800  21693465.96300                   6968515.45040  21693468.75240
   1545827.07800  23015337.80700                   1217189.95940  23015341.01840
 96  9 14  0 21  0.0020000  0  6  1 14 15 22 25 29
  44711396.85000  24663003.19700                  34923904.93740  24663008.06140
  -1456766.77000  22626731.25200                  -1122083.30140  22626735.14340
   7545013.08600  21839491.26000                   5945862.28640  21839495.32640
   -576330.77100  24768543.70500                   -419246.84340  24768549.90440
   8990453.62200  21714518.62700                   7054722.57440  21714521.45140
   1570047.55000  23019946.33000                   1236063.07940  23019949.36540
 96  9 14  0 21 30.0020000  0  6  1 14 15 22 25 29
  44860585.90700  24691392.58000                  35040156.08440  24691398.04140
  -1456927.68300  22626700.42400                  -1122208.67340  22626704.24440
   7659461.73100  21861269.80700                   6035043.04340  21861273.83840
   -596957.43500  24764618.45500                   -435319.38840  24764623.97540
   9101547.83800  21735659.18200                   7141289.49440  21735661.97140
   1594421.32400  23024584.72900                   1255055.65440  23024587.57640
 96  9 14  0 22  0.0020000  0  6  1 14 15 22 25 29
  45009791.20100  24719785.78300                  35156419.96840  24719788.72540
  -1456916.35600  22626702.36100                  -1122199.83740  22626706.15840
   7774489.92600  21883158.91600                   6124675.39940  21883163.13540
   -617597.71800  24760690.76000                   -451402.56740  24760696.27940
   9213112.43300  21756889.29900                   7228222.94640  21756892.19340
   1618960.55000  23029254.43200                   1274177.16140  23029257.56140
 96  9 14  0 22 30.0020000  0  6  1 14 15 22 25 29
  45158994.19500  24748177.22900                  35272682.02740  24748181.52940
  -1456728.39100  22626738.40800                  -1122053.35540  22626742.15840
   7890085.84600  21905156.03300                   6214750.13740  21905160.22940
   -638244.71000  24756761.39300                   -467490.96940  24756766.05740
   9325138.00300  21778207.08000                   7315515.59740  21778209.84640
   1643658.56900  23033954.37700                   1293422.39840  23033957.65840
 96  9 14  0 23  0.0030000  0  6  1 14 15 22 25 29
  45308202.42400  24776572.48300                  35388948.15540  24776576.64440
  -1456365.56100  22626807.33500                  -1121770.61040  22626811.17940
   8006247.34600  21927260.94400                   6305265.58940  21927265.26940
   -658887.18700  24752833.19400                   -483575.86840  24752838.16340
   9437622.20800  21799612.03800                   7403165.62440  21799614.95640
   1668515.47600  23038684.42900                   1312791.45540  23038687.59340
 96  9 14  0 23 30.0030000  0  6  1 14 15 22 25 29
  45457408.78700  24804965.36600                  35505212.85640  24804971.94040
  -1455826.97400  22626909.89700                  -1121350.92240  22626913.49540
   8122966.23800  21949471.87400                   6396215.37340  21949476.10440
   -679507.82900  24748909.10100                   -499643.76540  24748913.94040
   9550555.01800  21821102.43700                   7491165.21740  21821105.19040
   1693514.32100  23043441.36600                   1332271.10040  23043444.58940
 96  9 14  0 24  0.0030000  0  6  1 14 15 22 25 29
  45606603.42200  24833355.10800                  35621468.37740  24833359.38640
  -1455106.04000  22627047.10800                  -1120789.14540  22627051.16340
   8240245.99300  21971789.51500                   6487602.19140  21971793.89740
   -700112.88600  24744986.48300                   -515699.49840  24744992.85840
   9663939.32700  21842678.78800                   7579516.62540  21842681.43740
   1718653.87600  23048225.23300                   1351860.40140  23048228.45640
 96  9 14  0 24 30.0030000  0  6  1 14 15 22 25 29
  45755774.70100  24861741.27200                  35737705.74440  24861745.93740
  -1454196.96700  22627219.99100                  -1120080.76140  22627223.56540
   8358085.99100  21994213.74900                   6579425.56440  21994217.99140
   -720700.64100  24741069.06200                   -531741.72140  24741074.46440
   9777769.01800  21864339.84300                   7668215.08840  21864342.44440
   1743938.70300  23053036.89000                   1371562.89440  23053039.91340
 96  9 14  0 25  0.0030000  0  6  1 14 15 22 25 29
  45904931.58000  24890126.81900                  35853931.85940  24890129.47940
  -1453092.59500  22627430.23300                  -1119220.19940  22627433.97240
   8476481.71200  22016743.55400                   6671681.96140  22016747.76140
   -741275.14800  24737154.71800                   -547773.65440  24737160.13240
   9892030.90400  21886083.13200                   7757250.32340  21886085.79240
   1769359.64200  23057874.06900                   1391371.45740  23057877.14040
 96  9 14  0 25 30.0030000  0  6  1 14 15 22 25 29
  46054074.70100  24918504.67900                  35970147.26440  24918508.24140
  -1451787.46600  22627678.48300                  -1118203.19640  22627682.40940
   8595431.45000  22039379.01500                   6764370.05940  22039383.29240
   -761846.96500  24733239.64700                   -563803.47640  24733245.96440
  10006712.91700  21907906.38200                   7846612.93040  21907909.06540
   1794924.29400  23062738.97600                   1411291.99540  23062741.81240
 96  9 14  0 26  0.0030000  0  6  1 14 15 22 25 29
  46203202.55500  24946884.58500                  36086350.76040  24946890.72640
  -1450287.41100  22627963.82700                  -1117034.30740  22627967.53040
   8714928.05800  22062118.36600                   6857484.29640  22062122.69040
   -782424.58700  24729323.99900                   -579837.86540  24729328.97940
  10121805.45400  21929807.70200                   7936295.42940  21929810.57340
   1820643.36700  23067633.10100                   1431332.85940  23067635.86640
 96  9 14  0 26 30.0030000  0  6  1 14 15 22 25 29
  46352329.78700  24975261.99100                  36202553.76340  24975266.25740
  -1448584.09100  22628287.81900                  -1115707.02740  22628291.58140
   8834972.79100  22084962.21000                   6951025.64140  22084966.44040
   -802987.50900  24725410.97600                   -595860.79940  24725417.62040
  10237298.75600  21951785.36600                   8026290.21240  21951788.13240
   1846513.28100  23072556.27200                   1451491.26440  23072559.30840
 96  9 14  0 27  0.0030000  0  6  1 14 15 22 25 29
  46501467.94500  25003639.93700                  36318765.29340  25003646.56940
  -1446682.64200  22628649.85100                  -1114225.36240  22628653.65940
   8955570.13800  22107911.14000                   7044997.59140  22107915.40540
   -823523.85200  24721503.42900                   -611862.99640  24721509.12440
  10353194.44800  21973839.74100                   8116598.54640  21973842.44840
   1872533.82300  23077507.42900                   1471767.03240  23077510.22940
 96  9 14  0 27 30.0030000  0  6  1 14 15 22 25 29
  46650597.38500  25032021.07700                  36434970.02040  25032022.41340
  -1444594.70900  22629047.14700                  -1112598.38540  22629051.00340
   9076715.80300  22130964.42100                   7139396.81240  22130968.54640
   -844019.24300  24717603.67100                   -627833.34640  24717609.51940
  10469508.22300  21995973.44400                   8207232.65940  21995976.25740
   1898697.66300  23082486.39000                   1492154.46740  23082489.35440
 96  9 14  0 28  0.0030000  0  6  1 14 15 22 25 29
  46799713.05600  25060394.42100                  36551164.02640  25060400.12840
  -1442311.92600  22629481.59300                  -1110819.57340  22629485.40140
   9198407.45000  22154121.56200                   7234221.47440  22154125.75740
   -864464.34500  24713712.50700                   -643764.47540  24713717.08940
  10586251.68200  22018189.08500                   8298201.59240  22018191.89740
   1924993.06800  23087490.42900                   1512644.42340  23087493.24140
 96  9 14  0 28 30.0030000  0  6  1 14 15 22 25 29
  46948819.08300  25088772.29600                  36667350.49140  25088778.40140
  -1439830.53000  22629953.81200                  -1108886.00540  22629957.67940
   9320641.28300  22177381.81900                   7329468.60640  22177386.00340
   -884858.41700  24709830.67100                   -659655.86440  24709836.76540
  10703430.77300  22040487.34300                   8389509.97440  22040490.06240
   1951410.88900  23092517.14000                   1533229.76440  23092520.36240
 96  9 14  0 29  0.0030000  0  6  1 14 15 22 25 29
  47097914.71400  25117139.74100                  36783528.90540  25117143.46840
  -1437146.62400  22630464.54600                  -1106794.63040  22630468.27240
   9443421.12600  22200745.92900                   7425141.20940  22200750.04240
   -905202.00200  24705959.52200                   -675507.93240  24705964.72640
  10821070.47600  22062873.45200                   8481177.27540  22062876.07740
   1977962.51000  23097569.72600                   1553919.36340  23097572.89040
 96  9 14  0 29 30.0030000  0  6  1 14 15 22 25 29
  47246998.15300  25145512.75700                  36899697.76140  25145518.13640
  -1434247.10100  22631016.14000                  -1104535.24640  22631020.06540
   9566740.31800  22224212.90500                   7521234.08240  22224217.28840
   -925497.05300  24702097.39700                   -691322.14840  24702102.20240
  10939170.94600  22085347.24100                   8573203.61840  22085349.83140
   2004654.53000  23102649.35800                   1574718.36440  23102651.99540
 96  9 14  0 30  0.0030000  0  6  1 14 15 22 25 29
  47396080.77000  25173882.23300                  37015866.03540  25173886.61640
  -1431138.30600  22631607.96800                  -1102112.79440  22631611.77640
   9690593.82800  22247781.36600                   7617743.30540  22247785.55040
   -945755.39700  24698242.66300                   -707107.71240  24698247.36240
  11057701.69100  22107902.56200                   8665565.23940  22107905.44440
   2031493.56300  23107756.54600                   1595631.91540  23107759.47640
 96  9 14  0 30 30.0030000  0  6  1 14 15 22 25 29
  47545151.23800  25202249.56200                  37132024.81240  25202253.26540
  -1427827.26900  22632237.49100                  -1099532.75040  22632241.25340
   9814975.07500  22271450.46000                   7714663.75340  22271454.76140
   -965974.55500  24694395.81200                   -722862.83140  24694402.46840
  11176650.91900  22130538.03000                   8758252.95140  22130540.77240
   2058478.70800  23112891.56200                   1616659.32040  23112895.00740
 96  9 14  0 31  0.0030000  0  6  1 14 15 22 25 29
  47694195.65000  25230610.06200                  37248163.34140  25230614.25740
  -1424301.44500  22632908.74100                  -1096785.34040  22632912.42140
   9939887.43500  22295220.44400                   7811998.05840  22295224.74540
   -986143.97300  24690556.46800                   -738579.13140  24690561.60140
  11296019.13100  22153253.22600                   8851267.14240  22153256.00340
   2085615.58800  23118055.49100                   1637804.95340  23118058.46840
 96  9 14  0 31 30.0030000  0  6  1 14 15 22 25 29
  47843224.66900  25258970.27200                  37364289.82340  25258975.86240
  -1420558.45100  22633621.10100                  -1093868.70540  22633625.05040
  10065328.20500  22319091.16300                   7909744.11040  22319095.39440
  -1006271.70300  24686725.99900                   -754262.96540  24686729.99540
  11415791.32300  22176045.04600                   8944596.12540  22176047.81240
   2112903.04700  23123248.00700                   1659067.91940  23123250.90140
 96  9 14  0 32  0.0030000  0  6  1 14 15 22 25 29
  47992229.77900  25287326.00700                  37480397.70140  25287330.74140
  -1416592.04600  22634375.87400                  -1090777.98740  22634379.71840
  10191300.70900  22343062.83500                   8007904.50440  22343067.14740
  -1026359.65800  24682903.17100                   -769915.78040  24682908.65540
  11535971.11100  22198914.48300                   9038242.71840  22198917.17940
   2140332.55600  23128467.71800                   1680441.57240  23128470.65940
 96  9 14  0 32 30.0030000  0  6  1 14 15 22 25 29
  48141194.40900  25315670.78800                  37596474.01340  25315674.78440
  -1412397.33300  22635174.05400                  -1087509.36640  22635177.83940
  10317798.73800  22367134.47600                   8106474.39640  22367138.67140
  -1046409.26000  24679087.74900                   -785538.70940  24679091.53440
  11656574.62600  22221864.56900                   9132219.48440  22221867.18340
   2167900.83200  23133713.84300                   1701923.36240  23133716.89040
 96  9 14  0 33  0.0030000  0  6  1 14 15 22 25 29
  48290137.66700  25344017.78800                  37712533.61640  25344021.30440
  -1407988.08600  22636013.07700                  -1084073.57340  22636016.76940
  10444819.32700  22391305.71000                   8205451.46940  22391309.78840
  -1066431.00000  24675279.40500                   -801139.94140  24675284.04640
  11777599.81400  22244894.91300                   9226524.82440  22244897.70240
   2195606.50400  23138986.11600                   1723512.21140  23138989.26940
 96  9 14  0 33 30.0030000  0  6  1 14 15 22 25 29
  48439080.64400  25372356.92100                  37828593.05940  25372359.54640
  -1403370.73700  22636891.64700                  -1080475.62940  22636895.23340
  10572361.59900  22415576.11600                   8304835.05240  22415580.26540
  -1086413.28200  24671476.10800                   -816710.43140  24671480.08140
  11899051.77800  22268006.42900                   9321162.71740  22268009.22940
   2223452.61100  23144284.78000                   1745210.48540  23144287.67540
 96  9 14  0 34  0.0040000  0  6  1 14 15 22 25 29
  48588014.45100  25400699.31600                  37944645.31140  25400702.53940
  -1398550.02500  22637808.92600                  -1076719.22040  22637812.66440
  10700429.09700  22439946.77700                   8404627.90140  22439951.07840
  -1106332.73600  24667685.12900                   -832231.95240  24667690.19140
  12020938.95100  22291200.74600                   9416139.73240  22291203.41840
   2251438.73400  23149610.38700                   1767017.86840  23149613.29340
 96  9 14  0 34 30.0040000  0  6  1 14 15 22 25 29
  48736948.38100  25429040.86300                  38060697.66940  25429045.70340
  -1393533.23800  22638763.62100                  -1072810.03040  22638767.40640
  10829010.53900  22464414.89500                   8504821.21940  22464419.16040
  -1126178.24600  24663908.43400                   -847695.88840  24663913.37940
  12143245.40100  22314475.02000                   9511443.45540  22314477.73840
   2279563.93400  23154962.52700                   1788933.61840  23154965.68040
 96  9 14  0 35  0.0040000  0  6  1 14 15 22 25 29
  48885886.52900  25457381.34000                  38176753.37140  25457385.71140
  -1388317.20200  22639756.35500                  -1068745.57340  22639760.04740
  10958098.11100  22488979.67600                   8605408.92540  22488983.88340
  -1145949.99100  24660145.10500                   -863102.36640  24660151.23440
  12265948.15900  22337824.45700                   9607055.99440  22337827.21140
   2307808.92400  23160337.49600                   1810942.71640  23160340.48440
 96  9 14  0 35 30.0040000  0  6  1 14 15 22 25 29
  49034819.35500  25485722.87900                  38292804.87940  25485728.11740
  -1382875.80000  22640792.02000                  -1064505.51140  22640795.65240
  11087697.26200  22513641.60500                   8706395.26640  22513645.93040
  -1165624.91300  24656401.93400                   -878433.40840  24656405.75440
  12389038.43100  22361247.96500                   9702970.48940  22361250.80140
   2336184.35600  23165736.97300                   1833053.45840  23165739.84440
 96  9 14  0 36  0.0040000  0  6  1 14 15 22 25 29
  49183729.29200  25514061.20700                  38408838.52340  25514065.91840
  -1377220.06700  22641868.15200                  -1060098.44240  22641871.86740
  11217789.90600  22538397.25400                   8807766.14540  22538401.46140
  -1185227.38800  24652671.75400                   -893707.89140  24652676.07840
  12512479.00800  22384737.74600                   9799157.94940  22384740.53540
   2364671.96200  23171158.02700                   1855251.60840  23171160.99240
 96  9 14  0 36 30.0040000  0  6  1 14 15 22 25 29
  49332644.87200  25542398.62100                  38524876.61540  25542403.22740
  -1371325.58000  22642989.65200                  -1055505.32840  22642993.43740
  11348388.87400  22563249.56600                   8909531.56040  22563253.65640
  -1204745.77000  24648957.37100                   -908916.92540  24648963.13740
  12636274.95300  22408295.31600                   9895622.31840  22408298.10540
   2393293.00000  23176604.39500                   1877553.73540  23176607.43040
 96  9 14  0 37  0.0040000  0  6  1 14 15 22 25 29
  49481555.44200  25570734.73000                  38640910.81040  25570739.43040
  -1365194.78700  22644156.18400                  -1050728.07340  22644159.92240
  11479493.10300  22588197.80100                   9011690.68840  22588202.25440
  -1224171.36000  24645260.31600                   -924053.67340  24645264.87540
  12760430.04500  22431921.33200                   9992366.54340  22431923.98040
   2422053.08300  23182077.34800                   1899964.21240  23182080.37140
 96  9 14  0 37 30.0040000  0  6  1 14 15 22 25 29
  49630458.70000  25599068.56600                  38756939.31840  25599075.07040
  -1358843.02200  22645364.87900                  -1045778.64040  22645368.73440
  11611095.50600  22613240.84800                   9114237.99940  22613244.98440
  -1243512.54900  24641580.03500                   -939124.62440  24641584.14840
  12884947.96100  22455616.30100                  10089393.48540  22455619.03140
   2450952.95000  23187576.80100                   1922483.60740  23187579.68440
 96  9 14  0 38  0.0040000  0  6  1 14 15 22 25 29
  49779367.07800  25627407.66000                  38872971.77140  25627412.12540
  -1352261.65900  22646617.25400                  -1040650.29740  22646620.99240
  11743198.32500  22638378.98000                   9217175.25040  22638383.02340
  -1262765.03900  24637916.07400                   -954126.43440  24637920.39840
  13009848.80700  22479383.93400                  10186718.81840  22479386.68740
   2479991.14500  23193102.58200                   1945110.78840  23193105.67640
 96  9 14  0 38 30.0040000  0  6  1 14 15 22 25 29
  49928261.52500  25655739.05100                  38988993.40840  25655744.09040
  -1345449.03700  22647913.77700                  -1035341.74940  22647917.43440
  11875786.75500  22663609.88700                   9320490.89440  22663614.16440
  -1281922.87400  24634269.34000                   -969054.53040  24634274.00440
  13135132.88300  22503224.87100                  10284342.76640  22503227.56640
   2509156.27600  23198652.57400                   1967836.88540  23198655.75040
 96  9 14  0 39  0.0040000  0  6  1 14 15 22 25 29
  50077141.22700  25684070.37100                  39105003.57240  25684076.94540
  -1338374.81700  22649259.83200                  -1029829.36340  22649263.55940
  12008867.01400  22688934.29300                   9424189.78140  22688938.54740
  -1300964.08900  24630646.52700                   -983891.78940  24630651.98840
  13260804.62000  22527139.41800                  10382268.79440  22527142.24240
   2538448.27100  23204226.40200                   1990661.83540  23204229.20340
 96  9 14  0 39 30.0040000  0  6  1 14 15 22 25 29
  50226009.40500  25712397.63700                  39221004.73440  25712402.79340
  -1331010.26800  22650661.38700                  -1024090.74040  22650665.13740
  12142441.05100  22714352.53500                   9528273.42940  22714356.56640
  -1319886.72200  24627046.61300                   -998636.59040  24627051.55940
  13386859.82400  22551126.83200                  10480493.62740  22551129.52740
   2567869.37300  23209825.22300                   2013587.37840  23209827.87140
 96  9 14  0 40  0.0040000  0  6  1 14 15 22 25 29
  50374847.21900  25740724.65200                  39336982.19940  25740725.52040
  -1323354.12900  22652118.09000                  -1018124.89940  22652121.94540
  12276498.18500  22739862.80900                   9632733.51740  22739867.13340
  -1338690.36000  24623467.88700                  -1013288.68140  24623471.67240
  13513287.62100  22575185.29300                  10579008.79040  22575188.09440
   2597412.16200  23215446.90200                   2036607.74840  23215449.93740
 96  9 14  0 40 30.0040000  0  6  1 14 15 22 25 29
  50523634.34600  25769035.62900                  39452920.16340  25769040.11740
  -1315418.04700  22653628.36300                  -1011940.92440  22653632.10240
  12411032.12900  22765463.80100                   9737565.14740  22765468.13740
  -1357378.36800  24619911.10500                  -1027850.69940  24619916.71940
  13640083.65100  22599313.82400                  10677810.89440  22599316.52040
   2627080.22800  23221092.51200                   2059725.73940  23221095.52340
 96  9 14  0 41  0.0040000  0  6  1 14 15 22 25 29
  50672377.44600  25797341.37100                  39568823.84740  25797344.16040
  -1307208.76200  22655190.80100                  -1005544.06340  22655194.55140
  12546043.88600  22791155.57400                   9842769.10340  22791159.77040
  -1375972.12900  24616372.69100                  -1042339.28940  24616377.82440
  13767256.00600  22623513.74600                  10776906.23440  22623516.39540
   2656877.80400  23226762.94100                   2082944.64440  23226765.83640
 96  9 14  0 41 30.0040000  0  6  1 14 15 22 25 29
  50821071.87000  25825636.62100                  39684689.54240  25825642.03540
  -1298766.01800  22656796.92600                   -998965.28140  22656800.78140
  12681524.11600  22816936.84800                   9948338.10340  22816941.10240
  -1394494.73700  24612848.14500                  -1056772.41040  24612853.27740
  13894803.12800  22647785.27000                  10876293.60840  22647788.03540
   2686809.31500  23232458.67600                   2106267.91340  23232461.57040
 96  9 14  0 42  0.0040000  0  6  1 14 15 22 25 29
  50969744.06000  25853929.54300                  39800538.00640  25853934.14840
  -1290089.35400  22658448.23800                   -992204.22340  22658452.08240
  12817482.28300  22842808.73800                  10054279.52740  22842812.82840
  -1412928.21900  24609340.16800                  -1071136.09340  24609345.25440
  14022741.63600  22672130.93400                  10975985.94940  22672133.60540
   2716894.27100  23238183.69900                   2129710.74740  23238186.65240
 96  9 14  0 42 30.0040000  0  6  1 14 15 22 25 29
  51118407.03400  25882218.30900                  39916379.26040  25882224.21540
  -1281180.78000  22660143.39500                   -985262.46040  22660147.05140
  12953911.99100  22868770.43400                  10160588.37740  22868774.82840
  -1431280.43300  24605847.73800                  -1085436.43740  24605852.49640
  14151058.78700  22696549.27700                  11075973.33740  22696551.97340
   2747125.66500  23243936.21500                   2153267.68840  23243939.21540
 96  9 14  0 43  0.0040000  0  6  1 14 15 22 25 29
  51267085.84500  25910510.26200                  40032232.84340  25910513.68440
  -1272026.73000  22661885.27000                   -978129.41640  22661889.03140
  13090815.91100  22894822.46500                  10267266.74440  22894826.69540
  -1449533.71300  24602373.92600                  -1099659.69840  24602378.83640
  14279750.44400  22721038.37900                  11176252.55340  22721041.22740
   2777499.34900  23249716.08200                   2176935.49540  23249718.94140
 96  9 14  0 43 30.0040000  0  6  1 14 15 22 25 29
  51415777.15000  25938804.44100                  40148096.19240  25938809.56240
  -1262625.77800  22663674.19900                   -970803.98540  22663678.02040
  13228189.30500  22920963.77700                  10374310.93440  22920967.94940
  -1467664.34200  24598923.87900                  -1113787.39640  24598930.06640
  14408806.39300  22745596.83200                  11276815.63440  22745599.57440
   2808005.72400  23255521.53500                   2200706.71040  23255524.72340
 96  9 14  0 44  0.0040000  0  6  1 14 15 22 25 29
  51564476.33200  25967101.95700                  40263965.66840  25967105.12140
  -1252955.90800  22665514.41800                   -963269.00440  22665518.12140
  13366028.30200  22947193.57400                  10481717.93240  22947197.65240
  -1485661.11800  24595499.31600                  -1127810.79840  24595505.45740
  14538224.64100  22770224.39500                  11377661.02340  22770227.21940
   2838630.00300  23261349.19100                   2224569.79740  23261351.98040
 96  9 14  0 44 30.0050000  0  6  1 14 15 22 25 29
  51713156.56100  25995395.39900                  40379820.26540  25995400.54440
  -1243030.86300  22667403.03200                   -955535.18840  22667406.81740
  13504322.17700  22973510.01700                  10589479.37940  22973514.54040
  -1503529.25600  24592098.49300                  -1141733.91140  24592103.09940
  14667990.15900  22794917.80600                  11478777.00940  22794920.67740
   2869351.35100  23267195.16500                   2248508.51940  23267198.00140
 96  9 14  0 45  0.0050000  0  6  1 14 15 22 25 29
  51861802.59300  26023679.50900                  40495648.40640  26023684.98140
  -1232848.43400  22669340.48500                   -947600.81240  22669344.00140
  13643069.67400  22999913.07100                  10697594.29740  22999917.29040
  -1521247.22100  24588727.27400                  -1155540.04340  24588732.17340
  14798105.18200  22819677.89200                  11580165.34340  22819680.83340
   2900175.86200  23273060.90700                   2272527.63240  23273063.80240
 96  9 14  0 45 30.0050000  0  6  1 14 15 22 25 29
  52010408.26900  26051957.95400                  40611445.02540  26051963.61440
  -1222411.15700  22671326.85300                   -939467.86140  22671330.57940
  13782269.28100  23026401.79000                  10806061.50740  23026405.97440
  -1538818.00400  24585383.28200                  -1169231.50240  24585389.49340
  14928575.31600  22844505.53200                  11681830.38440  22844508.34540
   2931112.10900  23278947.85300                   2296633.81640  23278950.78240
 96  9 14  0 46  0.0050000  0  6  1 14 15 22 25 29
  52158982.80700  26080232.61000                  40727217.31940  26080235.91540
  -1211714.12300  22673362.39900                   -931132.49240  22673366.10340
  13921922.02200  23052976.97000                  10914881.80840  23052981.27040
  -1556235.61500  24582068.60300                  -1182803.60340  24582074.73140
  15059401.90500  22869400.98500                  11783773.18140  22869403.76340
   2962172.50600  23284858.47000                   2320836.74640  23284861.48140
 96  9 14  0 46 30.0050000  0  6  1 14 15 22 25 29
  52307531.58600  26108498.13400                  40842969.59740  26108502.44640
  -1200759.65400  22675447.01700                   -922596.53240  22675450.79040
  14062026.49400  23079637.84500                  11024054.11540  23079642.07540
  -1573496.37300  24578784.62600                  -1196253.50840  24578790.55640
  15190589.42900  22894365.11800                  11885997.22640  22894367.79040
   2993367.07600  23290794.46200                   2345144.22340  23290797.42740
 96  9 14  0 47  0.0050000  0  6  1 14 15 22 25 29
  52456054.64800  26136763.34500                  40958701.81940  26136769.81340
  -1189534.36600  22677583.20400                   -913849.54440  22677586.83740
  14202578.06500  23106383.87600                  11133574.81040  23106388.14240
  -1590601.11100  24575530.53200                  -1209581.80440  24575534.95040
  15322135.97900  22919397.64900                  11988501.03340  22919400.52040
   3024706.39500  23296758.18100                   2369564.49340  23296761.00540
 96  9 14  0 47 30.0050000  0  6  1 14 15 22 25 29
  52604549.95400  26165021.07900                  41074412.45040  26165025.18140
  -1178031.34500  22679772.14200                   -904886.14840  22679775.75140
  14343567.43200  23133213.18100                  11243436.64840  23133217.41140
  -1607554.74200  24572303.47800                  -1222792.36440  24572308.68140
  15454031.00400  22944496.50900                  12091276.37740  22944499.39240
   3056184.47800  23302748.07100                   2394092.88940  23302751.07140
 96  9 14  0 48  0.0050000  0  6  1 14 15 22 25 29
  52753010.99100  26193273.59500                  41190096.35140  26193278.27040
  -1166253.10800  22682013.33700                   -895708.29040  22682017.04040
  14484986.09700  23160124.21200                  11353632.99140  23160128.48940
  -1624366.13100  24569106.53200                  -1235892.08140  24569111.37240
  15586254.43300  22969657.96200                  12194307.61940  22969660.68140
   3087787.26300  23308761.89900                   2418718.46140  23308764.78240
 96  9 14  0 48 30.0050000  0  6  1 14 15 22 25 29
  52901438.61400  26221517.65700                  41305754.17040  26221520.57540
  -1154179.16900  22684310.89200                   -886300.02240  22684314.52440
  14626840.99200  23187118.26700                  11464169.26040  23187122.70840
  -1641022.83200  24565936.06300                  -1248871.28240  24565940.58740
  15718810.82600  22994882.25100                  12297598.31240  22994885.07540
   3119523.67300  23314801.27400                   2443448.15840  23314803.99340
 96  9 14  0 49  0.0050000  0  6  1 14 15 22 25 29
  53049839.27800  26249756.30600                  41421391.01240  26249764.94640
  -1141810.88300  22686664.54000                   -876662.38840  22686668.36040
  14769122.85800  23214193.73500                  11575038.23040  23214198.00140
  -1657525.43600  24562795.62600                  -1261730.42240  24562799.41140
  15851682.49100  23020166.82100                  12401134.67240  23020169.61040
   3151386.59200  23320864.65700                   2468276.43340  23320867.57540
 96  9 14  0 49 30.0050000  0  6  1 14 15 22 25 29
  53198238.86900  26277995.07900                  41537027.11740  26278002.32540
  -1129156.67900  22689072.34500                   -866801.96940  22689076.14240
  14911835.87500  23241351.07900                  11686243.16340  23241355.36840
  -1673873.92700  24559684.29000                  -1274469.47540  24559689.02440
  15984881.40300  23045513.88400                  12504926.02840  23045516.60340
   3183381.77400  23326952.97800                   2493207.77240  23326955.75540
 96  9 14  0 50  0.0050000  0  6  1 14 15 22 25 29
  53346639.50000  26306237.59500                  41652663.88340  26306240.29040
  -1116222.80800  22691533.57100                   -856723.62140  22691537.21640
  15054971.48700  23268589.04800                  11797777.38940  23268593.40740
  -1690080.80800  24556600.14900                  -1287098.18340  24556604.43840
  16118404.83000  23070922.64900                  12608970.25140  23070925.31040
   3215515.70600  23333068.03200                   2518247.22240  23333070.92740
 96  9 14  0 50 30.0050000  0  6  1 14 15 22 25 29
  53495058.45800  26334478.68800                  41768314.98640  26334485.60640
  -1102996.07800  22694050.68100                   -846417.06740  22694054.34940
  15198539.27700  23295908.68100                  11909648.38940  23295912.81740
  -1706125.71900  24553545.12600                  -1299600.66640  24553548.84140
  16252270.05900  23096396.23500                  12713280.82240  23096398.96640
   3247805.43200  23339212.31300                   2543408.06440  23339215.22040
 96  9 14  0 51  0.0050000  0  6  1 14 15 22 25 29
  53643497.22900  26362731.84500                  41883981.50840  26362735.71240
  -1089476.35300  22696623.47800                   -835882.21040  22696627.15740
  15342536.77200  23323310.81300                  12021854.21840  23323315.13840
  -1722012.52400  24550522.94600                  -1311979.96040  24550527.11840
  16386479.60200  23121935.55600                  12817859.67840  23121938.21640
   3280240.41100  23345384.52400                   2568682.09540  23345387.27840
 96  9 14  0 51 30.0050000  0  6  1 14 15 22 25 29
  53791924.57900  26390972.54000                  41999639.15040  26390973.38440
  -1075670.98900  22699250.39900                   -825124.77640  22699254.11440
  15486951.26000  23350791.97000                  12134384.96940  23350796.43540
  -1737748.49500  24547528.11800                  -1324241.73440  24547532.88840
  16521016.82300  23147537.03200                  12922693.87240  23147539.77440
   3312802.39800  23351580.63400                   2594055.07740  23351583.48140
 96  9 14  0 52  0.0050000  0  6  1 14 15 22 25 29
  53940307.08400  26419205.00100                  42115261.85740  26419212.22440
  -1061566.88600  22701934.43100                   -814134.55540  22701938.21640
  15631772.94500  23378350.52400                  12247233.01340  23378355.00140
  -1753314.66600  24544566.61800                  -1336371.17840  24544572.44240
  16655861.10100  23173197.05600                  13027767.33840  23173199.85640
   3345464.23200  23357796.06300                   2619505.86540  23357798.82940
 96  9 14  0 52 30.0050000  0  6  1 14 15 22 25 29
  54088633.55600  26447433.20400                  42230840.92240  26447440.55640
  -1047150.47400  22704677.72000                   -802900.97740  22704681.38840
  15777005.31300  23405987.48500                  12360401.07940  23405991.77440
  -1768682.86600  24541643.07900                  -1348346.35740  24541648.72840
  16791019.66200  23198917.00900                  13133085.68940  23198919.55240
   3378222.13200  23364029.88400                   2645031.51840  23364032.73140
 96  9 14  0 53  0.0050000  0  6  1 14 15 22 25 29
  54236904.37400  26475646.34500                  42346376.64440  26475650.47040
  -1032412.80700  22707482.14900                   -791417.07740  22707485.77040
  15922653.79600  23433703.26700                  12473893.38440  23433707.55640
  -1783853.02300  24538755.40700                  -1360167.22140  24538759.90740
  16926494.27300  23224696.86800                  13238650.31440  23224699.65740
   3411081.57700  23370282.72800                   2670636.28840  23370285.69240
 96  9 14  0 53 30.0050000  0  6  1 14 15 22 25 29
  54385113.79600  26503852.18100                  42461864.48340  26503859.09940
  -1017371.94500  22710344.32100                   -779696.91640  22710348.01340
  16068705.09100  23461496.19600                  12587699.57340  23461500.50940
  -1798831.19100  24535904.82100                  -1371838.50340  24535908.57140
  17062266.26700  23250533.42300                  13344446.67040  23250536.24740
   3444043.85800  23376555.03200                   2696321.18240  23376557.72840
 96  9 14  0 54  0.0050000  0  5 14 15 22 25 29
  -1002021.06000  22713265.69600                   -767735.17640  22713269.36440
  16215163.87600  23489366.13400                  12701823.28540  23489370.27040
  -1813609.71000  24533092.15700                  -1383354.18340  24533095.56740
  17198357.29000  23276430.82100                  13450491.62240  23276433.73940
   3477124.98000  23382850.42300                   2722098.69340  23382853.23540
 96  9 14  0 54 30.0050000  0  5 14 15 22 25 29
   -986373.85500  22716243.24300                   -755542.53340  22716246.89940
  16362019.55500  23517312.22800                  12816256.26640  23517316.70440
  -1828212.93200  24530312.65700                  -1394733.27740  24530316.23140
  17334757.77400  23302387.06300                  13556777.70840  23302389.81740
   3510335.48300  23389170.11000                   2747977.01140  23389172.89940
 96  9 14  0 55  0.0060000  0  5 14 15 22 25 29
   -970433.87300  22719276.25600                   -743121.76040  22719279.99440
  16509282.34300  23545335.10000                  12931006.47940  23545339.61140
  -1842635.00500  24527568.40400                  -1405971.22440  24527572.89340
  17471472.57400  23328402.88100                  13663308.71840  23328405.67040
   3543682.06200  23395515.60000                   2773961.36540  23395518.44740
 96  9 14  0 55 30.0060000  0  5 14 15 22 25 29
   -954190.03200  22722367.44300                   -730464.20840  22722371.13540
  16656941.95200  23573433.86500                  13046065.88940  23573438.24840
  -1856850.41500  24524862.81800                  -1417048.12540  24524867.02540
  17608511.16700  23354480.44300                  13770092.03640  23354483.17440
   3577166.46700  23401887.58400                   2800053.10940  23401890.47840
 96  9 14  0 56  0.0060000  0  5 14 15 22 25 29
   -937645.78400  22725515.76400                   -717572.57540  22725519.25640
  16804985.89900  23601605.76400                  13161424.79640  23601610.18240
  -1870867.93600  24522195.71700                  -1427970.83640  24522200.48640
  17745869.79500  23380618.97500                  13877124.73040  23380621.57640
   3610770.04500  23408282.22500                   2826237.71640  23408285.03740
 96  9 14  0 56 30.0060000  0  5 14 15 22 25 29
   -920793.92100  22728722.46700                   -704441.24140  22728726.14640
  16953419.23100  23629851.61500                  13277087.11240  23629856.01040
  -1884673.33900  24519569.22500                  -1438728.25740  24519573.77140
  17883543.82200  23406817.32600                  13984403.18340  23406820.09240
   3644500.26300  23414700.88900                   2852521.00640  23414703.81840
 96  9 14  0 57  0.0060000  0  5 14 15 22 25 29
   -903642.98100  22731986.24800                   -691076.85940  22731989.95140
  17102228.73300  23658169.06800                  13393042.55540  23658173.26440
  -1898276.72700  24516980.88100                  -1449328.27140  24516984.37340
  18021529.73300  23433075.28700                  14091924.67740  23433077.93640
   3678338.91300  23421139.99800                   2878888.78740  23421142.92840
 96  9 14  0 57 30.0060000  0  5 14 15 22 25 29
   -886175.59900  22735310.28700                   -677465.90040  22735313.85040
  17251411.85200  23686557.67800                  13509289.12740  23686562.11940
  -1911687.42300  24514428.52900                  -1459778.13340  24514432.01040
  18159816.16200  23459390.27100                  14199680.33540  23459393.16640
   3712286.34900  23427599.95900                   2905341.33640  23427602.80740
 96  9 14  0 58  0.0060000  0  5 14 15 22 25 29
   -868389.13200  22738694.72500                   -663606.30240  22738698.36940
  17400967.64200  23715017.22500                  13625826.08540  23715021.58440
  -1924907.89000  24511913.44300                  -1470079.75640  24511917.80340
  18298381.69600  23485758.60000                  14307653.48140  23485761.30740
   3746345.63900  23434081.45900                   2931881.04740  23434084.42440
 96  9 14  0 58 30.0060000  0  5 14 15 22 25 29
   -850283.33500  22742140.17000                   -649497.87640  22742143.83840
  17550893.28700  23743547.20100                  13742651.23640  23743551.49040
  -1937933.64200  24509434.46700                  -1480229.66740  24509438.33440
  18437225.94200  23512179.88100                  14415843.80640  23512182.83440
   3780521.43600  23440584.79500                   2958511.54540  23440587.67840
 96  9 14  0 59  0.0060000  0  5 14 15 22 25 29
   -831854.64500  22745646.98200                   -635137.84640  22745650.69740
  17701187.34200  23772147.28700                  13859763.46540  23772151.61140
  -1950761.53900  24506993.17800                  -1490225.40240  24506996.41240
  18576348.16100  23538653.87300                  14524250.72740  23538656.67440
   3814818.13100  23447111.29500                   2985236.24740  23447114.10740
 96  9 14  0 59 30.0060000  0  5 14 15 22 25 29
   -813116.52200  22749212.67000                   -620536.70140  22749216.25640
  17851834.95100  23800814.42000                  13977151.20040  23800818.62740
  -1963387.57100  24504590.13900                  -1500063.86240  24504594.51040
  18715730.89700  23565177.53700                  14632860.66140  23565180.23240
   3849241.80700  23453661.76400                   3012059.90240  23453664.62340
 96  9 14  1  0  0.0060000  0  5 14 15 22 25 29
   -794074.69100  22752836.30300                   -605698.90940  22752839.99440
  18002834.17900  23829548.57600                  14094812.91740  23829552.83040
  -1975796.66900  24502228.68600                  -1509733.26140  24502233.72540
  18855388.92100  23591753.68600                  14741685.08940  23591756.47540
   3883807.54600  23460239.31100                   3038994.25840  23460242.06440
 96  9 14  1  0 30.0060000  0  5 14 15 22 25 29
   -774726.61500  22756518.12300                   -590622.48040  22756521.70940
  18154189.76200  23858350.74000                  14212752.32240  23858355.18240
  -1987972.86900  24499912.20900                  -1519221.16740  24499916.76840
  18995334.41300  23618384.12300                  14850733.52740  23618386.85340
   3918520.37700  23466845.14600                   3066043.23140  23466847.87740
 96  9 14  1  1  0.0060000  0  5 14 15 22 25 29
   -755070.45800  22760258.58400                   -575305.99040  22760262.14640
  18305892.25100  23887218.74000                  14330962.03740  23887223.28740
  -1999917.82400  24497639.70900                  -1528528.90840  24497643.65840
  19135547.68700  23645065.96700                  14959990.61740  23645068.70940
   3953366.16900  23473475.97500                   3093195.81740  23473478.72840
 96  9 14  1  1 30.0060000  0  5 14 15 22 25 29
   -735086.94600  22764061.27900                   -559734.41740  22764064.81840
  18457940.86200  23916152.82600                  14449441.46040  23916157.29140
  -2011618.49600  24495412.42800                  -1537646.29540  24495416.16640
  19276027.31000  23671798.20100                  15069455.26440  23671801.06140
   3988329.70000  23480129.10700                   3120440.14740  23480131.67440
 96  9 14  1  2  0.0060000  0  5 14 15 22 25 29
   -714766.12000  22767928.37300                   -543899.99940  22767932.12340
  18610331.05400  23945151.41200                  14568187.04840  23945155.72540
  -2023075.35700  24493232.05300                  -1546573.69440  24493235.81440
  19416771.21300  23698580.86500                  15179125.83640  23698583.49040
   4023380.73000  23486799.36500                   3147752.65840  23486802.17840
 96  9 14  1  2 30.0060000  0  5 14 15 22 25 29
   -694109.05300  22771859.33400                   -527803.57740  22771862.94340
  18763056.95500  23974214.27100                  14687194.22940  23974218.73640
  -2034296.00900  24491096.20900                  -1555317.03540  24491099.85340
  19557765.99900  23725411.24000                  15288991.90040  23725413.77140
   4058499.74900  23493482.22500                   3175118.14440  23493484.85040
 96  9 14  1  3  0.0060000  0  5 14 15 22 25 29
   -673110.40600  22775854.93600                   -511440.98740  22775858.66240
  18916116.48200  24003340.74000                  14806461.37740  24003344.97140
  -2045288.69300  24489004.38100                  -1563882.74540  24489009.06840
  19699006.15900  23752288.26400                  15399049.16140  23752291.14640
   4093689.39700  23500178.60000                   3202538.67440  23500181.26040
 96  9 14  1  3 30.0060000  0  5 14 15 22 25 29
   -651774.30800  22779915.11500                   -494815.45140  22779918.74840
  19069510.25900  24032530.56100                  14925988.98440  24032535.10740
  -2056056.23600  24486956.13900                  -1572273.01040  24486960.13540
  19840511.07900  23779215.78700                  15509312.72840  23779218.55340
   4128957.72400  23506889.93600                   3230020.51140  23506892.60740
 96  9 14  1  4  0.0060000  0  5 14 15 22 25 29
   -630117.12200  22784036.42000                   -477939.71040  22784039.98240
  19223234.08800  24061783.06100                  15045773.77940  24061787.95940
  -2066604.07200  24484949.11500                  -1580492.06640  24484953.47540
  19982289.56100  23806195.45100                  15619789.47040  23806198.20540
   4164318.65400  23513618.88900                   3257574.50440  23513621.83040
 96  9 14  1  4 30.0060000  0  5 14 15 22 25 29
   -608143.24700  22788217.90400                   -460817.20040  22788221.51440
  19377281.28300  24091097.86500                  15165810.54640  24091102.22540
  -2076936.29400  24482983.25600                  -1588543.12340  24482987.14640
  20124333.14700  23833225.49800                  15730472.78040  23833228.04140
   4199782.28500  23520367.25600                   3285208.52140  23520370.02140
 96  9 14  1  5  0.0060000  0  5 14 15 22 25 29
   -585841.12900  22792461.92800                   -443438.92040  22792465.58440
  19531651.89500  24120473.38100                  15286099.31740  24120477.77540
  -2087037.85400  24481060.49000                  -1596414.44040  24481064.92040
  20266658.95400  23860309.14600                  15841376.00840  23860311.57240
   4235360.67100  23527137.44300                   3312931.95640  23527140.25640
 96  9 14  1  5 30.0060000  0  5 14 15 22 25 29
   -563192.82000  22796771.65400                   -425790.87740  22796775.35740
  19686349.85500  24149911.44300                  15406643.17640  24149915.79140
  -2096881.49500  24479187.22500                  -1604084.77940  24479191.44340
  20409278.38900  23887448.75600                  15952508.02540  23887451.51040
   4271063.49100  23533931.51400                   3340752.35140  23533934.10340
 96  9 14  1  6  0.0070000  0  5 14 15 22 25 29
   -540189.86900  22801148.94800                   -407866.50040  22801152.47640
  19841374.43100  24179411.40900                  15527441.53140  24179415.86240
  -2106454.97300  24477365.51100                  -1611544.59640  24477370.11640
  20552174.48100  23914641.04200                  16063855.62240  23914643.90140
   4306895.31100  23540750.24500                   3368673.26740  23540752.84740
 96  9 14  1  6 30.0070000  0  6 14 15 18 22 25 29
   -516820.93800  22805595.65100                   -389656.92640  22805599.19040
  19996711.98600  24208971.10400                  15648483.77540  24208975.66340
     -1252.97010  26799467.44000
  -2115742.53800  24475597.70600                  -1618781.61640  24475602.49940
  20695318.21600  23941880.25300                  16175396.19440  23941882.98340
   4342853.94900  23547592.93300                   3396692.99940  23547595.48740
 96  9 14  1  7  0.0070000  0  6 14 15 18 22 25 29
   -493087.74100  22810112.34700                   -371163.51840  22810115.85140
  20152361.23700  24238590.37000                  15769768.88240  24238594.69440
     -8778.84800  26798034.51100
  -2124739.00900  24473886.50300                  -1625791.82040  24473890.39440
  20838690.05400  23969163.13600                  16287114.49740  23969166.01940
   4378934.02100  23554458.77600                   3424807.35040  23554461.37840
 96  9 14  1  7 30.0070000  0  6 14 15 18 22 25 29
   -468994.13000  22814697.10400                   -352389.26540  22814700.73740
  20308316.98500  24268267.45600                  15891292.83340  24268271.76940
    -16337.78100  26796596.33900
  -2133443.53700  24472230.45600                  -1632574.53940  24472234.69840
  20982262.59900  23996484.16700                  16398989.20840  23996487.08540
   4415125.62400  23561345.49500                   3453008.60740  23561348.13240
 96  9 14  1  8  0.0070000  0  6 14 15 18 22 25 29
   -444542.69500  22819349.98700                   -333336.18640  22819353.56140
  20464578.85200  24298003.33100                  16013055.31540  24298007.51540
    -23927.25600  26795150.52600                     -3550.13350  26795155.24940
  -2141866.12900  24470626.56500                  -1639137.57240  24470630.22240
  21126031.35300  24023842.28400                  16511016.80740  24023844.95640
   4451429.58300  23568254.00300                   3481297.41940  23568256.61640
 96  9 14  1  8 30.0070000  0  6 14 15 18 22 25 29
   -419733.38700  22824070.99500                   -314004.24540  22824074.62840
  20621141.41600  24327796.25300                  16135052.10340  24327800.78840
    -31537.58100  26793702.55000                     -9480.19940  26793706.49940
  -2150015.80000  24469075.02600                  -1645487.93440  24469079.25740
  21269999.56300  24051238.83100                  16623199.82140  24051241.52640
   4487834.36700  23575181.61200                   3509664.78640  23575184.19040
 96  9 14  1  9  0.0070000  0  6 14 15 18 22 25 29
   -394561.50500  22828861.00300                   -294389.78040  22828864.56540
  20778013.95400  24357648.22200                  16257290.43440  24357652.65140
    -39157.75600  26792252.53400                    -15417.90540  26792258.96840
  -2157897.91500  24467575.91700                  -1651629.81440  24467580.04240
  21414199.52800  24078678.77600                  16735563.41840  24078681.57740
   4524349.04100  23582130.29200                   3538117.77940  23582133.02240
 96  9 14  1  9 30.0070000  0  6 14 15 18 22 25 29
   -369018.70700  22833721.58900                   -274486.30540  22833725.17540
  20935194.67600  24387558.87000                  16379768.89740  24387563.28840
    -46773.34300  26790802.92500
  -2165524.67600  24466125.02600                  -1657572.70640  24466129.31540
  21558657.02400  24106168.29200                  16848127.69940  24106171.16340
   4560983.35400  23589101.26100                   3566664.00840  23589103.85140
 96  9 14  1 10  0.0070000  0  6 14 15 18 22 25 29
   -343110.55400  22838651.83100                   -254298.12840  22838655.31140
  21092669.78600  24417525.19800                  16502476.76240  24417529.73340
    -54373.30900  26789360.15900
  -2172911.76800  24464718.67500                  -1663328.86540  24464722.63640
  21703368.64100  24133705.99500                  16960889.99540  24133708.71440
   4597728.73100  23596093.95600                   3595296.77740  23596096.49940
 96  9 14  1 10 30.0070000  0  6 14 15 18 22 25 29
   -316844.00900  22843650.23700                   -233830.67940  22843653.71840
  21250430.89700  24447546.26900                  16625407.48440  24447550.76940
    -61965.79300  26787912.83900                        -0.28450  26787916.64740
  -2180050.67100  24463360.30000                  -1668891.62140  24463364.51940
  21848340.11900  24161293.15900                  17073854.78240  24161295.99540
   4634572.33600  23603104.83900                   3624006.08540  23603107.47640
 96  9 14  1 11  0.0070000  0  6 14 15 18 22 25 29
   -290219.76100  22848716.60400                   -213084.49640  22848720.14440
  21408486.58100  24477623.01100                  16748567.74540  24477627.42940
    -69541.35500  26786471.03400                     -5903.21740  26786476.00340
  -2186915.13900  24462053.69000                  -1674240.53540  24462057.78040
  21993580.13800  24188931.37800                  17187028.81640  24188934.16740
   4671539.01800  23610139.39400                   3652811.30140  23610142.13640
 96  9 14  1 11 30.0070000  0  6 14 15 18 22 25 29
   -263241.52800  22853850.54200                   -192062.49240  22853854.08140
  21566822.92100  24507753.49500                  16871946.69140  24507757.79640
    -77107.03200  26785032.65100                    -11798.55940  26785040.21440
  -2193492.61800  24460802.48700                  -1679365.82140  24460806.37840
  22139056.86600  24216614.70600                  17300387.29840  24216617.40140
   4708620.63800  23617196.01100                   3681706.08140  23617198.65940
 96  9 14  1 12  0.0070000  0  6 14 15 18 22 25 29
   -235916.08000  22859049.90900                   -170769.92240  22859053.48340
  21725437.69900  24537937.01900                  16995542.61240  24537941.13240
    -84664.99300  26783593.32300                    -17687.87540  26783597.63640
  -2199753.82800  24459611.22200                  -1684244.65540  24459614.91340
  22284758.13400  24244340.81500                  17413920.74940  24244343.81540
   4745814.27500  23624273.42500                   3710688.14240  23624276.03840
 96  9 14  1 12 30.0070000  0  6 14 15 18 22 25 29
   -208236.55400  22864317.40900                   -149201.44940  22864320.91340
  21884337.65100  24568174.66700                  17119360.72840  24568179.33140
    -92214.31000  26782154.01100                    -23570.40840  26782157.72640
  -2205670.94600  24458484.90900                  -1688855.38040  24458488.89440
  22430687.28500  24272109.99500                  17527631.77040  24272112.62040
   4783143.71600  23631377.20600                   3739776.02440  23631379.78440
 96  9 14  1 13  0.0070000  0  6 14 15 18 22 25 29
   -180182.05600  22869656.03400                   -127340.79540  22869659.66740
  22043520.82300  24598466.35400                  17243399.54140  24598470.92540
    -99751.75100  26780724.96400                    -29443.68540  26780728.64440
  -2211245.17600  24457424.01900                  -1693198.90640  24457428.08540
  22576822.03600  24299918.57300                  17641503.00340  24299921.47940
   4820622.55500  23638509.06500                   3768980.33040  23638511.73740
 96  9 14  1 13 30.0070000  0  6 14 15 18 22 25 29
   -151733.10000  22875069.75300                   -105172.77040  22875073.26940
  22202988.18800  24628812.08100                  17367659.80340  24628816.11240
   -107277.68300  26779289.06500                    -35308.06140  26779294.73740
  -2216480.62400  24456427.60400                  -1697278.45440  24456431.65940
  22723166.13200  24327767.12000                  17755537.35340  24327769.67540
   4858238.72600  23645667.19800                   3798291.63640  23645669.83540
 96  9 14  1 14  0.0070000  0  6 14 15 18 22 25 29
   -122900.28800  22880556.55800                    -82705.63040  22880560.17940
  22362716.93300  24659207.29200                  17492123.73040  24659211.56940
   -114815.18700  26777855.66700                    -41181.35940  26777858.58540
  -2221403.78700  24455491.19800                  -1701114.65140  24455495.01940
  22869710.56200  24355653.37800                  17869727.81440  24355656.36640
   4895964.10400  23652846.13600                   3827688.04740  23652848.66740
 96  9 14  1 14 30.0070000  0  6 14 15 18 22 25 29
    -93654.98700  22886121.57300                    -59917.08340  22886125.11240
  22522724.61000  24689655.59700                  17616805.01240  24689659.60440
   -122352.02800  26776422.70600                    -47054.09940  26776426.05840
  -2226012.47700  24454614.40900                  -1704705.80740  24454618.44040
  23016482.81400  24383583.38600                  17984095.79240  24383586.16340
   4933808.82100  23660047.72900                   3857177.44440  23660050.19040
 96  9 14  1 15  0.0070000  0  6 14 15 18 22 25 29
    -64000.25400  22891764.83900                    -36809.49240  22891768.39040
  22683000.06100  24720154.80000                  17741694.94640  24720159.37040
   -129909.14400  26774983.31500                    -52942.72840  26774988.22640
  -2230327.74200  24453792.90900                  -1708068.32440  24453797.14040
  23163493.19200  24411558.65100                  18098649.32840  24411561.69840
   4971748.71700  23667267.41700                   3886741.00240  23667269.93640
 96  9 14  1 15 30.0070000  0  6 14 15 18 22 25 29
    -33941.70100  22897484.60400                    -13387.23540  22897488.17940
  22843540.50300  24750704.95600                  17866791.37440  24750709.80840
   -137487.91400  26773539.50300                    -58848.19940  26773543.85140
  -2234338.38800  24453029.32300                  -1711193.47140  24453033.46040
  23310754.50300  24439581.40900                  18213398.39040  24439584.22240
   5009777.95400  23674503.96400                   3916374.18940  23674506.65940
 96  9 14  1 16  0.0070000  0  6 14 15 18 22 25 29
     -3482.62300  22903280.80800                     10347.12840  22903284.33540
  23004338.88000  24781303.54200                  17992088.78140  24781307.76140
   -145090.75400  26772093.87000                    -64772.45640  26772099.14440
  -2238035.89600  24452326.17500                  -1714074.61840  24452330.24140
  23458254.71200  24467649.56500                  18328333.60940  24467652.67140
   5047908.86000  23681760.25300                   3946086.59340  23681762.90140
 96  9 14  1 16 30.0080000  0  6 14 15 18 22 25 29
     27368.86700  22909151.80500                     34387.25240  22909155.41440
  23165393.99700  24811951.52300                  18117586.24440  24811956.07040
   -152721.37800  26770642.56200                    -70718.24940  26770644.21540
  -2241415.05400  24451683.03900                  -1716707.69640  24451686.82440
  23605986.17400  24495762.15600                  18443449.02640  24495765.26240
   5086149.91100  23689037.10200                   3975884.83040  23689039.77340
 96  9 14  1 17  0.0080000  0  6 14 15 18 22 25 29
     58617.63900  22915098.05500                     58736.95840  22915101.64140
  23326692.26000  24842645.85900                  18243273.18440  24842650.40640
   -160362.21600  26769188.10200                    -76672.12040  26769192.51940
  -2244464.17300  24451102.61700                  -1719083.60440  24451106.75440
  23753921.10800  24523913.18000                  18558722.99440  24523916.05140
   5124512.72800  23696337.42200                   4005777.94640  23696339.94140
 96  9 14  1 17 30.0080000  0  6 14 15 18 22 25 29
     90265.68800  22921120.39800                     83397.78240  22921123.90240
  23488234.43700  24873386.12500                  18369150.17540  24873390.39140
   -167988.40500  26767738.68700                    -82614.48940  26767742.83640
  -2247178.59200  24450585.96100                  -1721198.71040  24450589.99240
  23902032.20600  24552097.60200                  18674134.23340  24552100.43740
   5162999.98600  23703661.14800                   4035768.02440  23703663.78540
 96  9 14  1 18  0.0080000  0  6 14 15 18 22 25 29
    122313.04300  22927218.91400                    108369.75540  22927222.47740
  23650023.36300  24904173.78100                  18495219.44240  24904177.98840
   -175593.96300  26766288.53900                    -88540.85040  26766294.01240
  -2249557.59400  24450133.28900                  -1723052.45140  24450137.42640
  24050321.49700  24580316.42200                  18789684.32240  24580319.49240
   5201617.15000  23711009.75800                   4065859.32540  23711012.44140
 96  9 14  1 18 30.0080000  0  6 14 15 18 22 25 29
    154758.63900  22933393.06200                    133652.03540  22933396.57840
  23812052.51500  24935006.64800                  18621475.90540  24935011.51240
   -183174.93500  26764847.66400                    -94448.04540  26764854.19140
  -2251606.75500  24449743.28100                  -1724649.17240  24449747.38340
  24198781.49500  24608566.99200                  18905367.42340  24608569.82840
   5240360.12500  23718382.51600                   4096048.66740  23718385.15240
 96  9 14  1 19  0.0080000  0  6 14 15 18 22 25 29
    187610.93900  22939644.67200                    159251.23140  22939648.21140
  23974319.33800  24965884.96100                  18747917.56940  24965890.03540
   -190725.78000  26763409.68000                   -100331.75340  26763413.32440
  -2253329.16400  24449415.58600                  -1725991.28340  24449419.86340
  24347407.83600  24636849.75800                  19021180.14840  24636852.28940
   5279228.48900  23725778.81200                   4126335.71540  23725781.47340
 96  9 14  1 19 30.0080000  0  6 14 15 18 22 25 29
    220870.94400  22945973.71100                    185168.12040  22945977.25040
  24136824.40700  24996808.80500                  18874544.87340  24996814.11340
   -198263.89600  26761976.03900                   -106205.56140  26761980.38740
  -2254710.25400  24449152.62500                  -1727067.43840  24449156.45740
  24496213.72500  24665166.74200                  19137132.78040  24665169.95340
   5318227.24600  23733199.92200                   4156724.36340  23733202.52340
 96  9 14  1 20  0.0080000  0  6 14 15 18 22 25 29
    254543.91700  22952381.53900                    211406.79840  22952385.13740
  24299565.81000  25027777.50800                  19001356.34240  25027781.63340
   -205806.00400  26760539.16400                   -112082.50540  26760543.62940
  -2255740.42900  24448956.19500                  -1727870.14040  24448960.00440
  24645220.93800  24693522.31200                  19253242.29140  24693525.04340
   5357365.75400  23740647.67200                   4187221.91240  23740650.33240
 96  9 14  1 20 30.0080000  0  6 14 15 18 22 25 29
    288636.50600  22958869.10200                    237972.46440  22958872.66440
  24462536.96500  25058789.99200                  19128346.84040  25058794.26940
   -213350.14500  26759104.36700                   -117960.93640  26759109.31240
  -2256416.79700  24448828.14100                  -1728397.14940  24448832.05540
  24794425.35800  24721914.84400                  19369505.46940  24721917.66840
   5396641.17400  23748121.54700                   4217826.13940  23748124.31240
 96  9 14  1 21  0.0080000  0  6 14 15 18 22 25 29
    323150.92100  22965437.04700                    264866.82040  22965440.69140
  24625734.27200  25089845.07000                  19255513.56140  25089849.65240
   -220914.69600  26757667.34400                   -123855.37740  26757671.87940
  -2256737.10100  24448766.68700                  -1728646.72140  24448770.84840
  24943836.16500  24750346.55500                  19485929.46940  24750349.18040
   5436047.46900  23755620.25000                   4248532.35240  23755623.13340
 96  9 14  1 21 30.0080000  0  6 14 15 18 22 25 29
    358076.24400  22972083.17200                    292081.36640  22972086.72340
  24789148.40600  25120941.88300                  19382849.24040  25120946.18440
   -228503.29900  26756221.99200                   -129768.53240  26756226.17640
  -2256698.57300  24448774.54700                  -1728616.67540  24448778.41440
  25093458.35500  24778818.82800                  19602518.17840  24778821.27740
   5475568.31100  23763140.86700                   4279327.82140  23763143.68040
 96  9 14  1 22  0.0080000  0  6 14 15 18 22 25 29
    393412.90800  22978807.44500                    319616.44040  22978810.97340
  24952781.20800  25152080.02300                  19510355.29940  25152084.79340
   -236097.05500  26754776.29700                   -135685.70740  26754778.82840
  -2256299.68600  24448850.32800                  -1728305.82240  24448854.24240
  25243297.32500  24807332.32000                  19719275.81240  24807334.98040
   5515203.06000  23770683.18700                   4310212.04840  23770685.75440
 96  9 14  1 22 30.0080000  0  6 14 15 18 22 25 29
    429171.85700  22985612.06200                    347480.56040  22985615.57840
  25116632.93000  25183260.19500                  19638031.95740  25183264.73040
   -243683.11600  26753332.33600                   -141596.88340  26753337.28140
  -2255533.49200  24448996.05500                  -1727708.75740  24448999.99240
  25393345.16500  24835885.18700                  19836196.20340  24835887.91840
   5554947.87600  23778246.39800                   4341182.04740  23778249.04740
 96  9 14  1 23  0.0080000  0  6 14 15 18 22 25 29
    465350.21500  22992496.59400                    375671.49340  22992500.14440
  25280699.71300  25214481.00000                  19765876.18740  25214485.69940
   -251260.63000  26751889.64100                   -147501.40340  26751894.01240
  -2254391.79000  24449213.18000                  -1726819.09540  24449217.12940
  25543595.65200  24864477.00000                  19953274.50340  24864479.73040
   5594797.37200  23785829.33600                   4372233.61940  23785832.04340
 96  9 14  1 23 30.0080000  0  6 14 15 18 22 25 29
    501942.28100  22999459.94500                    404184.79140  22999463.48440
  25444975.79400  25245741.70300                  19893883.50840  25245746.09840
   -258813.80500  26750452.73400                   -153386.94140  26750457.30540
  -2252864.07800  24449504.10900                  -1725628.64340  24449508.11740
  25694035.26000  24893104.50800                  20070500.17340  24893107.21540
   5634744.01900  23793431.04700                   4403360.89540  23793433.68440
 96  9 14  1 24  0.0080000  0  6 14 15 18 22 25 29
    538955.21600  23006503.19500                    433026.03240  23006506.72340
  25609456.09600  25277041.75000                  20022049.96240  25277046.01640
   -266346.46100  26749019.38300                   -159256.53940  26749024.05940
  -2250949.68000  24449868.07800                  -1724136.87440  24449872.50840
  25844642.20500  24921764.16400                  20187856.22140  24921766.78940
   5674786.62000  23801050.93700                   4434562.93640  23801053.65640
 96  9 14  1 24 30.0080000  0  6 14 15 18 22 25 29
    576392.07200  23013627.23400                    462197.62240  23013630.80940
  25774136.81100  25308378.68000                  20150372.58240  25308383.25040
   -273862.74300  26747588.08600                   -165113.34140  26747590.45340
  -2248654.47300  24450304.88300                  -1722348.37540  24450308.90240
  25995400.52300  24950452.84400                  20305330.23240  24950455.49240
   5714927.67300  23808689.45300                   4465841.69140  23808692.09040
 96  9 14  1 25  0.0080000  0  6 14 15 18 22 25 29
    614234.80000  23020828.44500                    491685.47540  23020831.93740
  25939013.52500  25339754.03900                  20278847.94040  25339758.15240
   -281373.05800  26746160.89800                   -170965.47940  26746165.68040
  -2245983.00800  24450813.36700                  -1720266.68340  24450817.46940
  26146316.07900  24979170.89100                  20422926.76540  24979173.97340
   5755174.18200  23816348.22700                   4497202.61640  23816350.89840
 96  9 14  1 25 30.0080000  0  6 14 15 18 22 25 29
    652483.64100  23028107.03100                    521489.76940  23028110.46540
  26104083.74900  25371166.24200                  20407474.06540  25371170.94140
   -288884.17600  26744730.18000                   -176818.25840  26744735.26640
  -2242942.27900  24451391.54700                  -1717897.25440  24451395.39140
  26297389.75000  25007919.20300                  20540646.50640  25007922.21540
   5795540.99300  23824029.75000                   4528657.28840  23824032.43440
 96  9 14  1 26  0.0080000  0  6 14 15 18 22 25 29
    691138.45900  23035462.81200                    551610.40840  23035466.31640
  26269339.31800  25402612.82800                  20536244.61840  25402617.38740
   -296412.63700  26743299.39800                   -182684.51240  26743303.73440
  -2239550.01500  24452037.23400                  -1715253.90540  24452040.94940
  26448627.57400  25036698.98400                  20658494.14640  25036701.77340
   5836037.12900  23831735.89800                   4560212.72640  23831738.54740
 96  9 14  1 26 30.0080000  0  6 14 15 18 22 25 29
    730197.79200  23042895.43000                    582046.26040  23042898.91040
  26434779.07400  25434095.01600                  20665158.70640  25434099.92640
   -303954.86900  26741863.28900                   -188561.56240  26741867.03940
  -2235803.10900  24452750.52300                  -1712334.21940  24452754.34440
  26600046.26600  25065512.84400                  20776482.72840  25065515.56240
   5876679.05000  23839469.77300                   4591881.76740  23839472.42240
 96  9 14  1 27  0.0080000  0  6 14 15 18 22 25 29
    769683.74300  23050409.38300                    612814.53940  23050412.93440
  26600404.32700  25465612.38300                  20794217.33440  25465617.91440
   -311508.35000  26740425.68000                   -194447.34740  26740429.87540
  -2231678.25700  24453535.11700                  -1709120.02340  24453538.92640
  26751661.59500  25094364.15600                  20894624.53940  25094366.92240
   5917459.88400  23847230.18700                   4623659.04340  23847232.78940
 96  9 14  1 27 30.0090000  0  6 14 15 18 22 25 29
    809611.75100  23058007.39500                    643927.28240  23058010.92340
  26766211.19600  25497164.46600                  20923417.46940  25497168.73140
   -319069.98500  26738987.09100                   -200339.43640  26738990.04440
  -2227175.59000  24454392.29400                  -1705611.42440  24454396.23140
  26903456.46800  25123250.15300                  21012906.25140  25123253.11840
   5958359.26800  23855012.88800                   4655528.70740  23855015.46640
 96  9 14  1 28  0.0090000  0  6 14 15 18 22 25 29
    849983.43800  23065689.75500                    675385.74940  23065693.34140
  26932181.62900  25528747.34100                  21052745.07040  25528752.05240
   -326630.45300  26737547.80200                   -206230.68840  26737553.50940
  -2222289.83400  24455321.65300                  -1701804.31740  24455325.26340
  27055399.77400  25152163.91900                  21131303.63640  25152166.77840
   5999351.32400  23862813.41100                   4687470.58140  23862816.06040
 96  9 14  1 28 30.0090000  0  6 14 15 18 22 25 29
    890804.66900  23073457.97400                    707194.50740  23073461.53640
  27098319.29700  25560362.88800                  21182202.97740  25560367.47040
   -334176.75200  26736111.02800                   -212110.84240  26736114.56740
  -2217005.64600  24456327.58300                  -1697686.74440  24456331.29840
  27207477.36600  25181103.37200                  21249805.63940  25181106.14940
   6040433.08900  23870631.07500                   4719482.35740  23870633.60640
 96  9 14  1 29  0.0090000  0  6 14 15 18 22 25 29
    932080.40400  23081312.40300                    739357.43040  23081316.11840
  27264624.02200  25592009.60600                  21311791.06440  25592013.94240
   -341706.49000  26734678.13000                   -217978.11840  26734681.84540
  -2211317.17500  24457409.91900                  -1693254.14640  24457413.82140
  27359675.47400  25210065.56000                  21368401.56740  25210068.56040
   6081608.68500  23878466.40300                   4751567.24040  23878468.91140
 96  9 14  1 29 30.0090000  0  6 14 15 18 22 25 29
    973796.15000  23089250.73100                    771863.21640  23089254.31740
  27431097.48300  25623687.87200                  21441510.63540  25623692.48940
   -349213.03200  26733250.51300                   -223827.27640  26733255.29440
  -2205224.32000  24458568.92700                  -1688506.44540  24458572.61840
  27511987.79900  25239049.52800                  21487086.48540  25239052.38840
   6122900.09100  23886323.82500                   4783742.36340  23886326.32140
 96  9 14  1 30  0.0090000  0  6 14 15 18 22 25 29
   1015935.84400  23097269.59100                    804699.34540  23097273.10640
  27597723.78600  25655396.63000                  21571349.29140  25655401.29440
   -356713.34400  26731822.94200                   -229671.66540  26731827.74740
  -2198731.82400  24459804.32500                  -1683447.34440  24459808.40340
  27664417.48600  25268055.73900                  21605862.85840  25268058.20040
   6164316.96300  23894205.53600                   4816015.25940  23894208.10240
 96  9 14  1 30 30.0090000  0  6 14 15 18 22 25 29
   1058504.19400  23105370.17700                    837869.49640  23105373.66940
  27764499.94900  25687132.58300                  21701304.73140  25687137.11840
   -364220.57500  26730393.57500                   -235521.35740  26730397.84140
  -2191838.35500  24461116.30200                  -1678075.77740  24461120.31040
  27816982.35800  25297088.34900                  21724744.57540  25297091.00940
   6205880.09800  23902114.45000                   4848402.12840  23902116.95840
 96  9 14  1 31  0.0090000  0  6 14 15 18 22 25 29
   1101508.42100  23113553.50500                    871379.28740  23113556.96240
  27931425.55300  25718897.82500                  21831376.61140  25718902.30240
   -371739.09700  26728963.57500                   -241379.88940  26728967.53640
  -2184533.57800  24462506.45800                  -1672383.72040  24462509.92740
  27969687.65200  25326147.09900                  21843735.69740  25326150.19240
   6247578.18700  23910049.31700                   4880894.14640  23910051.89540
 96  9 14  1 31 30.0090000  0  6 14 15 18 22 25 29
   1144952.32100  23121820.73900                    905231.67840  23121824.25540
  28098492.00700  25750689.32500                  21961558.24740  25750693.32140
   -379276.75600  26727529.14500                   -247253.31640  26727533.52840
  -2176816.45500  24463975.00500                  -1666370.35440  24463978.61440
  28122542.03800  25355234.17700                  21962843.01040  25355236.80240
   6289391.58400  23918006.16900                   4913476.02440  23918008.59540
 96  9 14  1 32  0.0090000  0  6 14 15 18 22 25 29
   1188853.99200  23130174.68500                    939440.77840  23130178.15340
  28265698.32400  25782507.59100                  22091848.86440  25782512.88840
   -386834.74700  26726089.45800                   -253142.63340  26726091.68540
  -2168689.39900  24465521.34900                  -1660037.56140  24465524.93540
  28275546.98900  25384349.96600                  22082067.63940  25384353.01340
   6331318.69100  23925984.79400                   4946146.49840  23925987.50140
 96  9 14  1 32 30.0090000  0  6 14 15 18 22 25 29
   1233219.78600  23138617.39500                    974011.53340  23138620.81740
  28433046.30300  25814353.01300                  22222249.87140  25814357.63040
   -394411.95700  26724648.47400                   -259046.90640  26724653.51340
  -2160146.37300  24467146.97400                  -1653380.62940  24467150.75940
  28428693.63000  25413493.40300                  22201402.67740  25413495.97040
   6373348.58500  23933982.73100                   4978897.06240  23933985.36840
 96  9 14  1 33  0.0090000  0  6 14 15 18 22 25 29
   1278035.74400  23147145.46600                   1008933.05640  23147148.88840
  28600525.97300  25846222.59100                  22352753.50540  25846227.91140
   -402011.99700  26723202.98100                   -264968.96740  26723207.00140
  -2151189.72700  24468851.32500                  -1646401.40540  24468854.86440
  28581974.18600  25442661.45800                  22320842.06340  25442664.58740
   6415466.99300  23941997.73900                   5011716.60640  23942000.23540
 96  9 14  1 33 30.0090000  0  6 14 15 18 22 25 29
   1323300.73500  23155759.16900                   1044204.48440  23155762.61440
  28768130.26700  25878117.38800                  22483354.22140  25878122.48540
   -409644.03800  26721750.38800                   -270915.98840  26721752.41540
  -2141840.43700  24470630.65300                  -1639116.21040  24470634.13440
  28735384.02300  25471854.20800                  22440382.19140  25471857.14940
   6457689.81000  23950032.11400                   5044617.51640  23950034.71640
 96  9 14  1 34  0.0090000  0  6 14 15 18 22 25 29
   1369014.44300  23164458.27000                   1079825.55540  23164461.63440
  28935861.16900  25910035.39500                  22614053.59840  25910039.75540
   -417293.03200  26720295.36400                   -276876.23140  26720298.93840
  -2132095.59000  24472485.07500                  -1631522.80140  24472488.66140
  28888919.97800  25501071.41100                  22560020.58240  25501073.87240
   6500033.30100  23958089.91900                   5077612.45640  23958092.33340
 96  9 14  1 34 30.0090000  0  6 14 15 18 22 25 29
   1415168.68600  23173241.13800                   1115789.89740  23173244.48940
  29103716.92800  25941977.11400                  22744850.30440  25941981.60240
   -424942.16800  26718838.73900                   -282836.57340  26718844.02440
  -2121942.77300  24474416.94200                  -1623611.48740  24474420.72740
  29042587.82500  25530313.06700                  22679761.76340  25530315.57540
   6542493.65000  23966169.91900                   5110698.46340  23966172.52040
 96  9 14  1 35  0.0090000  0  6 14 15 18 22 25 29
   1461771.34900  23182109.29400                   1152103.66740  23182112.75140
  29271701.81800  25973943.81000                  22875747.59240  25973948.45040
   -432570.86500  26717387.04400                   -288780.96040  26717392.79840
  -2111382.06200  24476426.32500                  -1615382.33640  24476430.15740
  29196398.46400  25559582.63800                  22799614.20140  25559585.12240
   6585088.20100  23974275.50500                   5143889.02540  23974277.98940
 96  9 14  1 35 30.0090000  0  6 14 15 18 22 25 29
   1508814.31800  23191061.23900                   1188760.53240  23191064.69640
  29439799.59800  26005931.89500                  23006732.86340  26005936.12640
   -440173.03300  26715940.16900                   -294704.71840  26715945.52440
  -2100421.39100  24478512.34900                  -1606841.52840  24478516.01740
  29350334.23100  25588875.20000                  22919564.13940  25588878.23540
   6627810.15100  23982405.08300                   5177178.87040  23982407.59140
 96  9 14  1 36  0.0090000  0  6 14 15 18 22 25 29
   1556294.09400  23200096.35600                   1225757.77040  23200099.80240
  29608011.46700  26037941.17700                  23137807.02340  26037946.73140
   -447737.61000  26714501.01300                   -300599.16440  26714505.22040
  -2089036.05900  24480678.90300                  -1597969.81740  24480682.53640
  29504407.95600  25618194.98900                  23039621.57540  25618197.95440
   6670656.46000  23990558.52800                   5210565.61240  23990561.01340
 96  9 14  1 36 30.0090000  0  6 14 15 18 22 25 29
   1604225.85400  23209217.48900                   1263107.19540  23209220.92340
  29776341.10100  26069973.67700                  23268972.96440  26069978.58740
   -455261.10300  26713069.29400                   -306461.59440  26713071.15740
  -2077210.71500  24482929.26300                  -1588755.24440  24482932.88440
  29658621.26900  25647540.38800                  23159787.79440  25647543.08340
   6713628.40300  23998735.77000                   5244050.25540  23998738.24340
 96  9 14  1 37  0.0090000  0  6 14 15 18 22 25 29
   1652619.18600  23218426.23900                   1300816.29640  23218429.67340
  29944778.60600  26102026.44200                  23400222.95040  26102031.17740
   -462771.76900  26711640.07500                   -312314.02240  26711644.08340
  -2064951.15200  24485262.31000                  -1579202.30740  24485266.01340
  29812946.85800  25676907.46600                  23280041.48740  25676910.43140
   6756716.24400  24006935.15300                   5277625.21940  24006937.66140
 96  9 14  1 37 30.0090000  0  6 14 15 18 22 25 29
   1701483.38000  23227724.89500                   1338892.29340  23227728.25940
  30113325.71800  26134099.68500                  23531558.33840  26134104.75940
   -470280.08100  26710211.05200                   -318164.64540  26710214.13440
  -2052241.28200  24487680.47400                  -1569298.49040  24487684.10640
  29967377.93900  25706294.98100                  23400377.38040  25706297.93540
   6799911.78600  24015155.09900                   5311284.10040  24015157.63040
 96  9 14  1 38  0.0090000  0  6 14 15 18 22 25 29
   1750811.33000  23237111.66900                   1377329.66040  23237115.10240
  30281966.14200  26166190.47400                  23662966.44740  26166195.14940
   -477824.10200  26708776.10600                   -324043.03540  26708780.43140
  -2039090.36400  24490182.99700                  -1559051.00640  24490186.61840
  30121895.59100  25735699.02800                  23520780.75240  25735701.75940
   6843190.60900  24023390.45000                   5345007.87140  24023392.91140
 96  9 14  1 38 30.0090000  0  6 14 15 18 22 25 29
   1800619.08200  23246589.73900                   1416140.90240  23246593.17340
  30450702.50100  26198300.38800                  23794449.29640  26198304.45440
   -485408.96300  26707332.65300                   -329953.29240  26707336.01740
  -2025492.81800  24492770.54400                  -1548455.48440  24492774.39940
  30276491.08700  25765117.23100                  23641244.76140  25765120.18540
   6886557.08900  24031642.90300                   5378799.93640  24031645.37640
 96  9 14  1 39  0.0100000  0  6 14 15 18 22 25 29
   1850901.39800  23256158.24400                   1455321.92540  23256161.73640
  30619541.47400  26230429.65000                  23926012.11340  26230433.83440
   -493042.26400  26705879.24400                   -335901.23840  26705882.76040
  -2011439.07600  24495444.79100                  -1537504.49140  24495448.43540
  30431176.82000  25794552.86900                  23761779.09640  25794555.98640
   6930025.82500  24039914.95500                   5412671.68440  24039917.39340
 96  9 14  1 39 30.0100000  0  6 14 15 18 22 25 29
   1901623.90100  23265810.29900                   1494845.95640  23265813.69740
  30788453.96100  26262572.60300                  24057632.20740  26262577.27940
   -500724.38000  26704417.66600                   -341887.26640  26704423.03340
  -1996942.52600  24498203.42400                  -1526208.45640  24498207.06840
  30585945.31700  25824004.51800                  23882377.92440  25824007.30740
   6973592.52900  24048205.26000                   5446619.77140  24048207.72140
 96  9 14  1 40  0.0100000  0  6 14 15 18 22 25 29
   1952800.80300  23275549.12700                   1534724.06640  23275552.61940
  30957457.10900  26294732.11100                  24189322.95540  26294737.23240
   -508439.12600  26702949.77500                   -347898.72340  26702952.98640
  -1981983.98800  24501049.96300                  -1514552.42140  24501053.91240
  30740815.52600  25853475.30700                  24003056.00740  25853478.18940
   7017283.37100  24056519.46300                   5480664.58940  24056521.92440
 96  9 14  1 40 30.0100000  0  6 14 15 18 22 25 29
   2004430.52600  23285373.65800                   1574955.02240  23285377.02140
  31126542.91600  26326908.26000                  24321078.07740  26326913.22840
   -516172.58900  26701478.44700                   -353924.73540  26701482.93540
  -1966571.76300  24503982.90000                  -1502542.87540  24503986.54540
  30895776.00900  25882962.76800                  24123804.43340  25882965.41640
   7061100.68200  24064857.47800                   5514807.95540  24064859.84640
 96  9 14  1 41  0.0100000  0  6 14 15 18 22 25 29
   2056523.45800  23295286.76800                   1615546.92240  23295290.14340
  31295714.16600  26359100.87700                  24452899.82740  26359105.14340
   -523894.41600  26700008.91600                   -359941.72540  26700013.82640
  -1950699.17300  24507003.40000                  -1490174.60240  24507007.19740
  31050836.22500  25912470.08800                  24244630.56940  25912473.33440
   7105050.74900  24073220.86900                   5549054.77240  24073223.38940
 96  9 14  1 41 30.0100000  0  6 14 15 18 22 25 29
   2109100.00400  23305291.77500                   1656515.66540  23305295.10340
  31464966.73300  26391308.97100                  24584784.91540  26391313.81040
   -531587.26500  26698544.53300                   -365936.09740  26698548.02540
  -1934369.62300  24510110.69700                  -1477450.25540  24510114.30740
  31205991.34900  25941995.18900                  24365530.65940  25941998.42440
   7149124.94300  24081607.91600                   5583398.31140  24081610.45940
 96  9 14  1 42  0.0100000  0  6 14 15 18 22 25 29
   2162170.75100  23315390.79100                   1697869.49640  23315394.13140
  31634296.77500  26423530.45500                  24716730.39040  26423535.44740
   -539248.34500  26697087.26000                   -371905.73240  26697091.33840
  -1917578.04400  24513306.01000                  -1464365.87540  24513309.65440
  31361231.30100  25971536.29100                  24486496.85240  25971538.51840
   7193313.60200  24090016.58000                   5617831.02840  24090018.99440
 96  9 14  1 42 30.0100000  0  6 14 15 18 22 25 29
   2215739.07600  23325584.52500                   1739611.04640  23325587.99440
  31803699.97000  26455766.17400                  24848732.85040  26455771.23640
   -546873.42900  26695635.90000                   -377847.30940  26695639.63940
  -1900329.64200  24516588.08800                  -1450925.54240  24516591.46340
  31516563.78100  26001094.85300                  24607535.15040  26001097.44340
   7237615.04000  24098446.99400                   5652351.63040  24098449.47840
 96  9 14  1 43  0.0100000  0  6 14 15 18 22 25 29
   2269798.41000  23335871.61900                   1781735.20540  23335874.95940
  31973176.65400  26488017.55700                  24980792.53940  26488023.10040
   -554470.51600  26694189.62700                   -383767.07540  26694192.67440
  -1882617.01600  24519958.89300                  -1437123.46740  24519962.60740
  31671994.67100  26030672.68900                  24728650.12540  26030675.61940
   7282043.68300  24106901.54100                   5686971.35940  24106903.89640
 96  9 14  1 43 30.0100000  0  6 14 15 18 22 25 29
   2324340.10800  23346250.53300                   1824235.23240  23346253.96740
  32142716.11500  26520279.61100                  25112901.18940  26520285.10740
   -562070.44500  26692742.91600                   -389689.05240  26692747.29940
  -1864448.35800  24523416.26000                  -1422966.04740  24523419.77540
  31827512.36100  26060266.51000                  24849832.73840  26060269.08840
   7326598.62700  24115379.99400                   5721689.50840  24115382.45540
 96  9 14  1 44  0.0100000  0  6 14 15 18 22 25 29
   2379352.33500  23356718.93900                   1867101.90940  23356722.35040
  32312316.18800  26552553.89300                  25245057.07240  26552558.97840
   -569691.79600  26691293.23600                   -395627.72840  26691297.44340
  -1845821.44800  24526960.68200                  -1408451.55240  24526964.47840
  31983123.75800  26089878.15800                  24971088.36740  26089880.79540
   7371291.94900  24123884.88500                   5756515.47440  24123887.32240
 96  9 14  1 44 30.0100000  0  6 14 15 18 22 25 29
   2434836.13800  23367277.19700                   1910336.04240  23367280.66640
  32481971.03300  26584838.01000                  25377255.60240  26584843.44740
   -577330.48500  26689839.48600                   -401579.90840  26689843.22540
  -1826741.95700  24530591.44700                  -1393584.39440  24530595.02140
  32138832.08200  26119509.15800                  25092419.52940  26119512.20540
   7416123.28300  24132415.98600                   5791448.98840  24132418.47140
 96  9 14  1 45  0.0100000  0  6 14 15 18 22 25 29
   2490800.18600  23377926.92400                   1953944.39240  23377930.38140
  32651682.80300  26617132.45500                  25509498.51840  26617136.72140
   -584975.26800  26688385.05700                   -407536.84040  26688389.63940
  -1807201.98200  24534309.50200                  -1378358.41340  24534313.07640
  32294636.12300  26149157.63500                  25213825.26940  26149160.43540
   7461097.96800  24140974.45500                   5826494.20840  24140976.93940
 96  9 14  1 45 30.0100000  0  6 14 15 18 22 25 29
   2547253.40500  23388669.52500                   1997933.92240  23388673.00640
  32821448.85500  26649438.42400                  25641783.70940  26649443.54540
   -592609.89800  26686932.35300                   -413485.84840  26686935.68240
  -1787201.09500  24538115.60300                  -1362773.28440  24538119.18940
  32450543.87700  26178825.54100                  25335311.83740  26178828.35340
   7506202.91500  24149557.61100                   5861640.92540  24149560.06040
 96  9 14  1 46  0.0100000  0  6 14 15 18 22 25 29
   2604179.59900  23399502.35300                   2042291.99840  23399505.77540
  32991265.06900  26681753.68200                  25774107.97040  26681758.56840
   -600223.19100  26685483.37700                   -419418.25240  26685486.52940
  -1766729.21400  24542011.32200                  -1346821.14440  24542014.83840
  32606555.15500  26208513.76000                  25456879.05640  26208516.52540
   7551430.89000  24158164.16600                   5896883.50840  24158166.54540
 96  9 14  1 46 30.0100000  0  6 14 15 18 22 25 29
   2661579.49100  23410424.97800                   2087019.19040  23410428.41240
  33161130.94800  26714078.83800                  25906470.96340  26714083.32640
   -607803.26200  26684042.08800                   -425324.75240  26684045.36940
  -1745789.13100  24545996.00200                  -1330504.17140  24545999.65840
  32762653.03900  26238218.19700                  25578513.77940  26238221.18540
   7596779.14000  24166793.67400                   5932219.81940  24166795.99440
 96  9 14  1 47  0.0100000  0  6 14 15 18 22 25 29
   2719434.95700  23421434.47800                   2132101.37440  23421437.93540
  33331028.74800  26746408.90000                  26038858.81940  26746414.15040
   -615386.63000  26682598.52500                   -431233.84740  26682602.38140
  -1724387.29400  24550068.93200                  -1313827.39040  24550072.45940
  32918816.87100  26267934.97800                  25700199.87640  26267938.21340
   7642235.53000  24175443.73600                   5967640.39240  24175446.08040
 96  9 14  1 47 30.0100000  0  6 14 15 18 22 25 29
   2777744.48000  23432530.46300                   2177537.37440  23432533.90840
  33500959.25800  26778745.04900                  26171272.17940  26778749.44340
   -622980.61200  26681152.92400                   -437151.20040  26681156.31040
  -1702508.87700  24554232.33000                  -1296779.24940  24554236.20940
  33075051.03900  26297665.08000                  25821940.78540  26297666.74440
   7687807.50600  24184115.72800                   6003151.02840  24184118.08440
 96  9 14  1 48  0.0100000  0  6 14 15 18 22 25 29
   2836515.35900  23443714.17400                   2223332.86640  23443717.47840
  33670920.79600  26811087.22800                  26303709.69440  26811092.15040
   -630599.08300  26679702.98600                   -443087.62240  26679707.65040
  -1680145.79100  24558487.54900                  -1279353.44840  24558491.19340
  33231345.06300  26327407.41600                  25943728.33640  26327410.74440
   7733499.99200  24192810.72100                   6038755.57140  24192812.99440
 96  9 14  1 48 30.0100000  0  6 14 15 18 22 25 29
   2895773.89200  23454990.81400                   2269508.35840  23454994.29540
  33840906.18800  26843434.56400                  26436165.83240  26843438.97140
   -638242.58900  26678248.54900                   -449043.57340  26678252.06440
  -1657307.25700  24562833.76800                  -1261557.16640  24562837.38940
  33387695.33300  26357159.86900                  26065559.71340  26357162.55340
   7779308.65100  24201528.01000                   6074450.63440  24201530.38940
 96  9 14  1 49  0.0100000  0  6 14 15 18 22 25 29
   2955532.32200  23466362.47800                   2316073.37540  23466365.81840
  34010914.85400  26875785.99400                  26568640.08740  26875790.51840
   -645897.84400  26676792.44700                   -455008.67040  26676796.29140
  -1633971.99000  24567274.18200                  -1243373.81740  24567277.85040
  33544114.48900  26386925.39300                  26187444.78040  26386928.36940
   7825234.45900  24210267.23600                   6110236.98740  24210269.61540
 96  9 14  1 49 30.0100000  0  6 14 15 18 22 25 29
   3015779.59200  23477827.12700                   2363019.30240  23477830.59640
  34180935.54700  26908140.43200                  26701123.67640  26908145.03740
   -653556.71900  26675334.06400                   -460976.59840  26675337.27540
  -1610143.37200  24571808.53300                  -1224806.04440  24571812.09640
  33700586.11900  26416701.20500                  26309370.71940  26416704.48640
   7871254.94800  24219024.63500                   6146097.11140  24219027.02540
 96  9 14  1 50  0.0110000  0  6 14 15 18 22 25 29
   3076526.59800  23489386.95200                   2410354.63940  23489390.39740
  34350975.34500  26940498.57700                  26833622.17840  26940503.12440
   -661211.05600  26673877.94400                   -466940.98940  26673881.14340
  -1585816.94400  24576437.89000                  -1205850.36340  24576441.56940
  33857111.97600  26446486.92100                  26431338.91840  26446489.32340
   7917363.48200  24227798.71800                   6182025.84540  24227801.21440
 96  9 14  1 50 30.0110000  0  6 14 15 18 22 25 29
   3137769.61500  23501040.99900                   2458076.47640  23501044.39740
  34521027.74600  26972858.49900                  26966130.50740  26972863.21040
   -668839.63000  26672425.46000                   -472885.28640  26672428.83540
  -1560982.83900  24581163.50700                  -1186499.08940  24581166.91740
  34013683.09900  26476280.65500                  26553342.38240  26476283.76140
   7963576.76100  24236593.11600                   6218036.20140  24236595.53040
 96  9 14  1 51  0.0110000  0  6 14 15 18 22 25 29
   3199490.82100  23512786.22600                   2506170.91740  23512789.58940
  34691088.64700  27005219.53000                  27098645.47040  27005224.35840
   -676450.29000  26670977.31900                   -478815.63040  26670980.67140
  -1535646.51900  24585984.72600                  -1166756.47840  24585988.40540
  34170280.16300  26506080.49100                  26675366.06740  26506083.14040
   8009892.37800  24245406.46800                   6254126.29640  24245408.89340
 96  9 14  1 51 30.0110000  0  6 14 15 18 22 25 29
   3261698.60400  23524623.94400                   2554644.51340  23524627.37840
  34861157.40700  27037582.38200                  27231166.55640  27037587.21040
   -684050.28800  26669531.65500                   -484737.67640  26669534.94840
  -1509809.58900  24590901.26500                  -1146623.78740  24590904.72240
  34326905.62500  26535885.85800                  26797411.87540  26535889.26840
   8056321.35600  24254241.69400                   6290304.73040  24254244.14340
 96  9 14  1 52  0.0110000  0  6 14 15 18 22 25 29
   3324403.98300  23536556.40500                   2603505.84540  23536559.73340
  35031226.82900  27069946.33500                  27363688.13940  27069952.18340
   -691646.12300  26668085.73300                   -490656.48140  26668089.53040
  -1483486.20500  24595910.67900                  -1126112.03440  24595914.17140
  34483560.94800  26565696.44400                  26919480.96740  26565699.24540
   8102893.50800  24263104.09300                   6326594.71840  24263106.51840
 96  9 14  1 52 30.0110000  0  6 14 15 18 22 25 29
   3387604.11800  23548583.07700                   2652752.70840  23548586.46440
  35201288.48100  27102307.68600                  27496203.67040  27102312.32740
   -699241.39200  26666640.85800                   -496574.82440  26666644.35140
  -1456687.94300  24601010.10100                  -1105230.25440  24601013.69840
  34640249.58900  26595512.71800                  27041576.01040  26595515.81140
   8149616.65900  24271995.21800                   6363002.37840  24271997.57340
 96  9 14  1 53  0.0110000  0  6 14 15 18 22 25 29
   3451305.69200  23560704.93600                   2702390.29240  23560708.31140
  35371339.35800  27134667.65500                  27628710.82040  27134672.17940
   -706856.13400  26665191.23300                   -502508.38640  26665195.18340
  -1429418.61700  24606199.18600                  -1083981.40640  24606202.74940
  34796986.50900  26625339.00700                  27163708.67340  26625342.60440
   8196479.04800  24280912.75700                   6399518.53640  24280915.15940
 96  9 14  1 53 30.0110000  0  6 14 15 18 22 25 29
   3515506.65500  23572921.83500                   2752417.01240  23572925.17540
  35541383.13500  27167025.50700                  27761212.42940  27167030.53440
   -714490.32000  26663738.81100                   -508457.05040  26663742.69040
  -1401670.45900  24611479.64000                  -1062359.44440  24611483.03840
  34953796.01100  26655178.30400                  27285897.88040  26655181.22240
   8243488.25800  24289858.31900                   6436149.09340  24289860.71040
 96  9 14  1 54  0.0110000  0  6 14 15 18 22 25 29
   3580182.43400  23585229.20200                   2802813.72240  23585232.67140
  35711406.36900  27199380.23300                  27893698.02740  27199384.99140
   -722166.02600  26662278.36600                   -514438.09740  26662281.55440
  -1373452.51600  24616849.18600                  -1040371.41540  24616852.72640
  35110659.20400  26685029.17900                  27408128.94040  26685031.48740
   8290618.97000  24298826.99100                   6472874.33440  24298829.34740
 96  9 14  1 54 30.0110000  0  6 14 15 18 22 25 29
   3645326.06100  23597625.71800                   2853574.99540  23597629.17540
  35881411.18500  27231731.33500                  28026169.29740  27231735.39040
   -729880.76500  26660809.69400                   -520449.53940  26660812.44840
  -1344739.99600  24622312.82700                  -1017998.00340  24622316.21440
  35267570.95000  26714888.30400                  27530397.82140  26714890.94040
   8337854.35300  24307815.56100                   6509681.13640  24307817.89340
 96  9 14  1 55  0.0110000  0  6 14 15 18 22 25 29
   3710924.17800  23610108.61600                   2904690.40740  23610112.03840
  36051387.11200  27264076.06900                  28158618.04340  27264080.58140
   -737636.31200  26659334.31900                   -526492.79940  26659338.53840
  -1315523.81300  24627872.66300                   -995232.12540  24627876.24940
  35424509.64500  26744752.16300                  27652687.71740  26744755.14040
   8385180.39100  24316821.39000                   6546558.57540  24316823.69840
 96  9 14  1 55 30.0110000  0  6 14 15 18 22 25 29
   3776981.52200  23622679.06100                   2956163.66040  23622682.43640
  36221337.36600  27296416.78800                  28291046.79140  27296420.91340
   -745405.63000  26657855.31100                   -532546.78340  26657858.93340
  -1285788.43500  24633531.15500                   -972061.68140  24633534.57740
  35581466.19600  26774620.27200                  27774991.52740  26774622.81540
   8432609.92400  24325846.92100                   6583516.66640  24325849.35840
 96  9 14  1 56  0.0110000  0  6 14 15 18 22 25 29
   3843521.77100  23635341.19400                   3008013.19740  23635344.56940
  36391262.72800  27328751.92100                  28423456.11540  27328757.34740
   -753174.30300  26656377.58500                   -538600.26540  26656382.07340
  -1255521.76700  24639290.76500                   -948477.23940  24639294.19840
  35738433.04700  26804490.14700                  27897303.35240  26804493.79240
   8480145.53900  24334892.67100                   6620557.41740  24334895.16740
 96  9 14  1 56 30.0110000  0  6 14 15 18 22 25 29
   3910544.20900  23648095.06900                   3060238.48640  23648098.49140
  36561155.02100  27361082.31900                  28555839.69740  27361086.71440
   -760930.59400  26654901.65500                   -544644.10440  26654905.73340
  -1224733.32600  24645149.70200                   -924486.22840  24645153.17140
  35895418.80900  26834363.43600                  28019629.92440  26834366.84740
   8527784.80500  24343958.09300                   6657678.93240  24343960.50740
 96  9 14  1 57  0.0110000  0  6 14 15 18 22 25 29
   3978061.07900  23660943.31900                   3112849.04040  23660946.76540
  36731009.65700  27393403.93600                  28688193.94040  27393408.37840
   -768677.76200  26653426.23300                   -550680.81840  26653429.24540
  -1193445.60700  24651103.28800                   -900106.16440  24651106.82740
  36052442.46700  26864244.44400                  28141986.03340  26864247.22240
   8575531.91000  24353043.90500                   6694884.47640  24353046.39040
 96  9 14  1 57 30.0110000  0  6 14 15 18 22 25 29
   4046085.14900  23673887.56900                   3165854.80540  23673891.00340
  36900821.99600  27425718.62400                  28820515.18040  27425723.73340
   -776425.22400  26651952.41300                   -556717.78540  26651956.25740
  -1161663.76900  24657151.29600                   -875341.07540  24657154.61240
  36209517.15100  26894134.59300                  28264381.89340  26894137.21840
   8623392.73700  24362151.56900                   6732178.64640  24362153.86640
 96  9 14  1 58  0.0110000  0  6 14 15 18 22 25 29
   4114626.65600  23686930.76500                   3219263.77240  23686934.26840
  37070592.10500  27458024.34300                  28952803.53740  27458028.30440
   -784174.94700  26650478.02200                   -562756.50040  26650482.18340
  -1129385.43900  24663293.72600                   -850189.10740  24663297.17140
  36366654.28700  26924037.53800                  28386826.41540  26924040.02240
   8671372.30400  24371281.74900                   6769565.33140  24371284.17540
 96  9 14  1 58 30.0110000  0  6 14 15 18 22 25 29
   4183676.78500  23700070.53800                   3273069.06640  23700073.89040
  37240315.17200  27490322.32700                  29085055.25240  27490326.76840
   -791924.06400  26649002.81100                   -568794.74340  26649005.26140
  -1096610.26400  24669530.35800                   -824649.98740  24669533.78040
  36523846.55000  26953949.10100                  28509313.88140  26953951.36240
   8719479.55300  24380436.31100                   6807051.51240  24380438.66740
 96  9 14  1 59  0.0110000  0  6 14 15 18 22 25 29
   4253252.32100  23713310.32700                   3327283.76740  23713313.71440
  37409996.91000  27522611.24900                  29217274.78240  27522616.20640
   -799665.49900  26647529.82700                   -574827.01340  26647532.92140
  -1063314.38500  24675866.49100                   -798705.12640  24675869.77240
  36681076.37500  26983869.40500                  28631830.63340  26983871.81940
   8767724.52200  24389617.03000                   6844644.99640  24389619.37440
 96  9 14  1 59 30.0110000  0  6 14 15 18 22 25 29
   4323340.61500  23726647.69400                   3381898.01840  23726651.08140
  37579629.00000  27554891.70200                  29349455.55440  27554896.67140
   -807394.21800  26646058.81100                   -580849.36440  26646062.17540
  -1029480.16600  24682304.60100                   -772340.77640  24682307.89340
  36838310.75900  27013790.31900                  28754350.92940  27013791.84340
   8816099.86400  24398822.53000                   6882340.07240  24398825.00340
 96  9 14  2  0  0.0110000  0  6 14 15 18 22 25 29
   4393919.66300  23740078.52200                   3436894.68340  23740081.88640
  37749204.26000  27587159.87400                  29481592.11140  27587164.57340
   -815102.82900  26644592.04600                   -586856.02640  26644596.52240
   -995115.44900  24688844.03800                   -745563.05740  24688847.53040
  36995529.59600  27043707.92900                  28876859.13240  27043711.05840
   8864598.83000  24408051.65500                   6920131.48240  24408053.98740
 96  9 14  2  0 30.0110000  0  6 14 15 18 22 25 29
   4464979.86600  23753600.85800                   3492266.27440  23753604.30440
  37918717.90700  27619417.56900                  29613680.63540  27619423.11240
   -822791.19700  26643129.06100                   -592846.94240  26643132.33140
   -960221.72200  24695484.35800                   -718373.11540  24695487.85140
  37152720.63200  27073620.80400                  28999345.65840  27073624.17940
   8913212.94100  24417302.46000                   6958012.61140  24417304.97940
 96  9 14  2  1  0.0110000  0  6 14 15 18 22 25 29
   4536517.19300  23767213.72600                   3548009.64340  23767217.11240
  38088163.22000  27651661.46800                  29745715.91140  27651666.74140
   -830469.44400  26641667.82700                   -598829.95340  26641671.36640
   -924809.75900  24702222.89000                   -690779.35540  24702226.25340
  37309892.01400  27103529.00700                  29121816.85040  27103531.79640
   8961938.84000  24426574.91300                   6995980.84540  24426577.39740
 96  9 14  2  1 30.0120000  0  6 14 15 18 22 25 29
   4608526.98800  23780916.86300                   3604121.17140  23780920.20340
  38257535.93500  27683893.05100                  29877694.63440  27683896.07440
   -838151.93700  26640206.06600                   -604816.30240  26640209.35940
   -888900.27800  24709056.24600                   -662797.92140  24709059.75040
  37467061.35400  27133437.62100                  29244286.47140  27133441.05540
   9010780.10900  24435868.77700                   7034038.98840  24435871.28540
 96  9 14  2  2  0.0120000  0  6 14 15 18 22 25 29
   4681035.17900  23794714.55100                   3660621.06840  23794717.82040
  38426844.96200  27716109.53500                  30009623.69840  27716113.60140
   -845824.74300  26638746.58200                   -610795.05740  26638750.39140
   -852484.00400  24715985.98800                   -634421.58040  24715989.35140
  37624244.92700  27163347.52700                  29366767.19440  27163350.39840
   9059753.28700  24445188.19900                   7072199.90740  24445190.51940
 96  9 14  2  2 30.0120000  0  6 14 15 18 22 25 29
   4754052.58700  23808609.55100                   3717517.75240  23808612.86740
  38596074.91400  27748314.09000                  30141491.14640  27748319.46940
   -853519.46700  26637281.98000                   -616790.91940  26637285.98840
   -815573.27200  24723009.80900                   -605659.95240  24723013.26640
  37781433.42600  27193260.14400                  29489251.73840  27193263.74240
   9108839.01200  24454528.85500                   7110448.52640  24454531.32840
 96  9 14  2  3  0.0120000  0  6 14 15 18 22 25 29
   4827608.44400  23822606.69100                   3774834.00240  23822610.06640
  38765241.60200  27780505.46500                  30273309.30940  27780511.87540
   -861226.69200  26635815.25400                   -622796.52540  26635818.72340
   -778148.13500  24730131.76200                   -576497.48740  24730135.14840
  37938641.58000  27223176.76900                  29611751.61040  27223179.12540
   9158062.79600  24463895.84800                   7148804.73440  24463898.34440
 96  9 14  2  3 30.0120000  0  6 14 15 18 22 25 29
   4901678.96800  23836701.85500                   3832551.28440  23836705.24240
  38934326.17100  27812681.09000                  30405063.50240  27812686.26940
   -868967.84000  26634341.80100                   -628828.55440  26634345.05940
   -740213.17800  24737350.53500                   -546937.75640  24737353.82840
  38095838.76800  27253090.23800                  29734242.96140  27253092.48840
   9207402.90300  24473284.89400                   7187251.57740  24473287.22640
 96  9 14  2  4  0.0120000  0  6 14 15 18 22 25 29
   4976250.23500  23850892.34800                   3890658.77340  23850895.68740
  39103318.64400  27844838.78500                  30536745.92640  27844846.48840
   -876740.71000  26632862.85500                   -634885.29840  26632866.11340
   -701768.19400  24744666.27700                   -516980.61040  24744669.67640
  38253006.81500  27282998.20700                  29856711.54640  27283000.80940
   9256856.07700  24482695.61300                   7225786.51840  24482698.06240
 96  9 14  2  4 30.0120000  0  6 14 15 18 22 25 29
   5051315.36200  23865176.56600                   3949151.08040  23865179.88340
  39272224.77100  27876981.39400                  30668361.04440  27876987.40640
   -884534.23000  26631379.57400                   -640958.13040  26631383.65240
   -662793.48100  24752082.74600                   -486610.68040  24752086.08640
  38410158.88400  27312902.74600                  29979167.71840  27312906.16840
   9306442.81100  24492131.73800                   7264425.54240  24492134.17640
 96  9 14  2  5  0.0120000  0  6 14 15 18 22 25 29
   5126845.66000  23879549.62100                   4008005.86440  23879553.06640
  39441041.27900  27909106.20700                  30799906.30740  27909111.02340
   -892340.29800  26629894.12900                   -647040.74640  26629897.55140
   -623283.32600  24759601.30900                   -455823.53040  24759604.57840
  38567299.34600  27342804.26900                  30101614.86740  27342807.69140
   9356173.60200  24501595.11300                   7303176.80940  24501597.45740
 96  9 14  2  5 30.0120000  0  6 14 15 18 22 25 29
   5202829.33100  23894008.87900                   4067213.91340  23894012.27740
  39609763.41700  27941213.43400                  30931378.03740  27941219.41040
   -900144.95900  26628408.92600                   -653122.28140  26628412.60540
   -583230.73200  24767223.05100                   -424613.69940  24767226.35540
  38724440.78800  27372709.22300                  30224062.71240  27372712.41040
   9406052.47500  24511086.74600                   7342043.47040  24511089.12540
 96  9 14  2  6  0.0120000  0  6 14 15 18 22 25 29
   5279277.84300  23908556.43400                   4126784.18540  23908559.89140
  39778382.05800  27973299.81600                  31062769.20240  27973305.31240
   -907935.46200  26626926.79300                   -659192.77440  26626930.42640
   -542642.71100  24774946.78500                   -392986.65140  24774949.94940
  38881579.91300  27402611.42600                  30346508.82540  27402613.13740
   9456065.98600  24520603.90200                   7381015.04540  24520606.34040
 96  9 14  2  6 30.0120000  0  7  4 14 15 18 22 25 29
                  28514224.83200
   5356208.34300  23923195.77700                   4186730.03040  23923199.17640
  39946904.13000  28005368.17600                  31194085.06640  28005374.60940
   -915704.07200  26625448.65200                   -665246.21540  26625452.35540
   -501502.16200  24782775.55900                   -360929.05740  24782778.93440
  39038727.28500  27432515.01900                  30468961.32340  27432519.13340
   9506220.51000  24530148.13700                   7420096.50640  24530150.57440
 96  9 14  2  7  0.0120000  0  7  4 14 15 18 22 25 29
     34178.63200  28520949.96500
   5433624.64300  23937927.64400                   4247054.41840  23937931.03140
  40115328.19500  28037419.39400                  31325324.54540  28037426.51240
   -923449.16400  26623973.89400                   -671281.30940  26623976.98840
   -459815.25300  24790708.24600                   -328445.73240  24790711.46940
  39195882.68900  27462420.98000                  30591420.08140  27462422.70340
   9556508.67400  24539717.59000                   7459282.08840  24539719.94540
 96  9 14  2  7 30.0120000  0  7  4 14 15 18 22 25 29
     69947.32800  28527758.18400
   5511546.33600  23952755.64400                   4307772.62240  23952759.01940
  40283648.20300  28069450.03500                  31456482.97340  28069454.64140
   -931176.14400  26622504.04300                   -677302.31740  26622507.45340
   -417599.85400  24798741.62100                   -295550.59640  24798744.99640
  39353023.68900  27492324.82400                  30713867.62240  27492328.41040
   9606906.37300  24549307.81600                   7498553.03540  24549310.12540
 96  9 14  2  8  0.0120000  0  7  4 14 15 18 22 25 29
    106140.92700  28534647.09800                     11320.23650  28534648.78540
   5589976.82200  23967680.47300                   4368887.28240  23967683.87140
  40451859.12900  28101458.65200                  31587556.37840  28101464.33640
   -938897.82600  26621034.57400                   -683319.19340  26621037.91440
   -374869.16600  24806872.93400                   -262253.94240  24806876.13340
  39510141.36900  27522221.72300                  30836297.00440  27522225.10940
   9657401.16500  24558916.87900                   7537899.63440  24558919.32840
 96  9 14  2  8 30.0120000  0  8  4 14 15 18 19 22 25 29
    142771.65700  28541615.38700                     39863.74440  28541622.26940
   5668903.76600  23982699.86300                   4430388.80240  23982703.28540
  40619962.39200  28133446.86300                  31718545.98940  28133452.73440
   -946628.82200  26619563.64400                   -689343.32140  26619566.45740
                  28480699.57400
   -331618.03600  24815103.42600                   -228551.73740  24815106.62540
  39667243.89600  27552116.94100                  30958714.53940  27552120.17640
   9708009.84100  24568547.19900                   7577334.97040  24568549.66040
 96  9 14  2  9  0.0120000  0  8  4 14 15 18 19 22 25 29
    179844.42700  28548670.44900                     68751.58840  28548676.42640
   5748338.83400  23997815.66000                   4492286.25340  23997819.09440
  40787956.94700  28165415.51900                  31849450.73640  28165418.66040
   -954365.25700  26618091.19900                   -695371.68840  26618094.84440
    -22531.65000  28476265.69900
   -287848.98300  24823432.25400                   -194445.96740  24823435.48840
  39824329.29800  27582010.73800                  31081118.77840  27582012.90640
   9758728.50800  24578198.72300                   7616856.01040  24578201.09040
 96  9 14  2  9 30.0120000  0  8  4 14 15 18 19 22 25 29
    217370.02200  28555810.55100                     97992.30640  28555813.59840
   5828301.48600  24013032.18400                   4554594.81840  24013035.53540
  40955838.35900  28197363.33200                  31980267.39840  28197369.69540
   -962092.70300  26616620.17600                   -701393.04040  26616623.45740
    -45760.05800  28471847.66000                        -0.22350  28471853.07440
   -243556.82800  24831860.83200                   -159932.58140  24831864.12540
  39981391.17400  27611898.70700                  31203504.62740  27611900.65240
   9809566.54200  24587872.89400                   7656470.07240  24587875.29740
 96  9 14  2 10  0.0120000  0  8  4 14 15 18 19 22 25 29
    255359.06100  28563041.19100                    127594.14540  28563044.54340
   5908789.44100  24028348.45700                   4617312.70640  24028351.85540
  41123608.95600  28229289.73000                  32110997.72140  28229292.95340
   -969804.03200  26615153.24600                   -707401.85040  26615156.97340
    -68893.92800  28467446.80100                    -18026.51140  28467449.57840
   -198716.67400  24840393.46500                   -124992.18640  24840396.86340
  40138447.69700  27641785.03500                  31325886.35140  27641787.90640
   9860552.29700  24597575.18400                   7696199.23940  24597577.55140
 96  9 14  2 10 30.0120000  0  8  4 14 15 18 19 22 25 29
    293796.06600  28570353.62900                    157545.04540  28570358.80940
   5989812.11800  24043766.64400                   4680447.25340  24043770.12540
  41291271.10100  28261193.20700                  32241643.49540  28261201.61340
   -977492.83900  26613690.17600                   -713393.10640  26613694.28940
    -91923.45300  28463061.81600                    -35971.49140  28463067.74640
   -153310.57100  24849034.01200                    -89610.78840  24849037.25840
  40295489.22900  27671668.15200                  31448256.38940  27671671.78540
   9911688.57600  24607306.19100                   7736045.69540  24607308.65240
 96  9 14  2 11  0.0120000  0  8  4 14 15 18 19 22 25 29
    332672.34400  28577751.43400                    187838.27540  28577754.91440
   6071382.85400  24059288.94100                   4744008.86640  24059292.37540
  41458828.31300  28293078.77700                  32372207.55640  28293082.07040
   -985146.71300  26612233.45700                   -719357.14340  26612236.82040
   -114845.30600  28458700.05900                    -53832.65140  28458704.34840
   -107331.64400  24857783.52700                    -53783.03240  24857786.91440
  40452524.09200  27701550.57400                  31570621.23440  27701553.96140
   9962970.52400  24617064.66800                   7776005.65940  24617067.10540
 96  9 14  2 11 30.0120000  0  8  4 14 15 18 19 22 25 29
    371972.42400  28585232.76900                    218461.76240  28585236.70740
   6153472.38700  24074910.39400                   4807974.73140  24074913.80540
  41626265.97500  28324941.07400                  32502678.36040  28324946.21940
   -992790.02900  26610778.82400                   -725312.95140  26610781.98840
   -137669.13400  28454357.22300                    -71617.42340  28454356.27340
    -60788.47600  24866640.46500                    -17515.61040  24866643.76940
  40609552.16800  27731433.73000                  31692980.76940  27731438.26640
  10014393.81300  24626850.24600                   7816075.76140  24626852.63740
 96  9 14  2 12  0.0120000  0  8  4 14 15 18 19 22 25 29
    411697.98600  28592792.26900                    249416.70040  28592795.17640
   6236078.11300  24090629.42600                   4872342.82540  24090632.77740
  41793601.64400  28356783.51900                  32633069.81140  28356786.70740
  -1000420.07300  26609327.45700                   -731258.41740  26609330.99640
   -160382.01100  28450036.32400                    -89315.61340  28450039.64140
    -13654.53300  24875609.59800                     19212.15640  24875612.84440
  40766596.96400  27761316.66800                  31815353.33740  27761320.13740
  10065973.94500  24636665.54300                   7856268.07840  24636668.05140
 96  9 14  2 12 30.0120000  0  8  4 14 15 18 19 22 25 29
    451843.88200  28600430.30900                    280699.24940  28600434.17640
   6319189.63500  24106445.11300                   4937105.04740  24106448.47640
  41960827.65200  28388604.16800                  32763375.79640  28388609.24240
  -1008037.69400  26607877.69100                   -737194.18840  26607881.37140
   -182991.48300  28445733.98000                   -106933.36940  28445740.98040
     34055.34300  24884688.69900                     56388.70040  24884691.89840
  40923645.13500  27791203.55900                  31937728.56340  27791205.31640
  10117707.27400  24646510.28500                   7896579.76940  24646512.66440
 96  9 14  2 13  0.0130000  0  8  4 14 15 18 19 22 25 29
    492447.57300  28608156.76700                    312338.49640  28608162.96640
   6402807.95000  24122357.14200                   5002262.16840  24122360.54040
  42127950.07300  28420407.47000                  32893601.01640  28420412.61440
  -1015637.27200  26606431.37600                   -743115.91640  26606435.05640
   -205507.22200  28441447.96200                   -124478.04740  28441452.76740
     82343.11800  24893877.50100                     94015.55540  24893880.80640
  41080716.42600  27821093.29800                  32060121.78940  27821096.79040
  10169622.38200  24656389.04800                   7937033.10640  24656391.39240
 96  9 14  2 13 30.0130000  0  8  4 14 15 18 19 22 25 29
    533531.03900  28615975.01700                    344351.55240  28615977.81740
   6486934.90500  24138365.82100                   5067815.64540  24138369.25540
  42294956.15300  28452187.45400                  33023735.64640  28452191.67340
  -1023211.95200  26604989.79800                   -749018.24240  26604993.19640
   -227918.56800  28437181.82900                   -141941.36040  28437187.20840
    131203.30000  24903175.07100                    132088.44540  24903178.38840
  41237777.41900  27850980.57900                  32182506.97340  27850983.83740
  10221727.93800  24666304.46200                   7977634.84940  24666306.89940
 96  9 14  2 14  0.0130000  0  8  4 14 15 18 19 22 25 29
    575099.73400  28623885.16500                    376742.81840  28623888.48140
   6571572.68900  24154472.10200                   5133767.16140  24154475.44240
  42461841.46800  28483946.39900                  33153776.09340  28483950.87640
  -1030756.24600  26603553.55600                   -754896.89040  26603557.04840
   -250224.44700  28432940.51700                   -159322.48840  28432942.57940
    180625.43600  24912579.89200                    170599.22040  24912583.19640
  41394812.34700  27880863.48500                  32304871.88840  27880863.54440
  10274008.08900  24676253.19600                   8018372.64140  24676255.56340
 96  9 14  2 14 30.0130000  0  8  4 14 15 18 19 22 25 29
    617196.47700  28631896.53200                    409545.48940  28631899.91940
   6656757.00800  24170682.11000                   5200144.54440  24170685.48540
  42628621.56900  28515683.45400                  33283734.49740  28515690.04040
  -1038240.05700  26602130.61800                   -760728.40840  26602134.00540
   -272390.32400  28428721.46200                   -176594.50940  28428726.73540
    230623.99100  24922094.31300                    209559.15140  24922097.52440
  41551833.98400  27910743.27400                  32427226.38740  27910746.86040
  10326477.90100  24686237.64200                   8059258.21340  24686239.95040
 96  9 14  2 15  0.0130000  0  8  4 14 15 18 19 22 25 29
    659823.85700  28640006.96200                    442761.60440  28640013.61840
   6742498.94200  24186998.07100                   5266956.44140  24187001.34140
  42795295.04500  28547400.40700                  33413609.92840  28547404.16940
  -1045658.15700  26600718.95400                   -766508.72940  26600722.73940
   -294406.95600  28424528.54800                   -193750.29740  28424536.64940
    281204.17200  24931719.38400                    248972.29540  24931722.50140
  41708846.25200  27940621.37600                  32549573.61940  27940623.82540
  10379120.45800  24696255.37600                   8100278.39440  24696257.66140
 96  9 14  2 15 30.0130000  0  8  4 14 15 18 19 22 25 29
    702947.86300  28648213.15700                    476364.72540  28648216.87240
   6828783.08400  24203417.52400                   5334190.84040  24203420.89940
  42961845.84600  28579092.61800                  33543389.75940  28579097.95040
  -1053017.28400  26599318.07100                   -772243.09540  26599321.01340
   -316276.22000  28420369.62600                   -210791.18240  28420373.43440
    332347.06500  24941451.38400                    288823.91640  24941454.64240
  41865832.94600  27970495.56300                  32671900.90640  27970498.76340
  10431898.46000  24706298.64200                   8141404.11540  24706301.04440
 96  9 14  2 16  0.0130000  0  8  4 14 15 18 19 22 25 29
    746559.60800  28656513.32900                    510347.87540  28656515.63840
   6915616.17000  24219941.29800                   5401852.98340  24219944.61440
  43128284.95800  28610767.20400                  33673082.52740  28610771.86840
  -1060301.21600  26597931.91500                   -777918.87040  26597935.37240
   -337999.81300  28416236.79800                   -227718.50840  28416240.29040
    384079.65200  24951295.82100                    329135.04040  24951299.03240
  42022827.00500  28000370.32900                  32794233.97240  28000371.37240
  10484825.89600  24716370.54000                   8182646.27840  24716372.91940
 96  9 14  2 16 30.0130000  0  8  4 14 15 18 19 22 25 29
    790634.21000  28664900.89900                    544691.76940  28664905.27040
   7002985.73300  24236567.13400                   5469933.15940  24236570.43840
  43294599.07200  28642413.51700                  33802677.91840  28642416.21240
  -1067523.85000  26596558.00100                   -783546.88840  26596561.08340
   -359602.77400  28412126.58700                   -244551.83940  28412134.29040
    436391.07800  24961250.48500                    369897.20540  24961253.72040
  42179819.60900  28030245.96200                  32916565.86140  28030248.54040
  10537908.75600  24726471.75100                   8224009.55540  24726474.05940
 96  9 14  2 17  0.0130000  0  8  4 14 15 18 19 22 25 29
    835160.98500  28673372.77400                    579387.96640  28673377.66140
   7090888.31300  24253294.46200                   5538428.67540  24253297.87240
  43460788.87200  28674037.87600                  33932176.42240  28674047.84140
  -1074692.72500  26595193.07900                   -789132.99540  26595196.61840
   -381097.35900  28408031.82900                   -261300.85340  28408040.14240
    489281.07700  24971314.69600                    411110.20840  24971317.91940
  42336821.72600  28060121.64900                  33038905.16040  28060125.17740
  10591163.09800  24736605.80600                   8265506.45340  24736608.13840
 96  9 14  2 17 30.0130000  0  8  4 14 15 18 19 22 25 29
    880139.50700  28681931.80600                    614436.12340  28681933.36440
   7179320.56600  24270122.54000                   5607336.92840  24270125.91540
  43626848.50100  28705638.89900                  34061573.53840  28705641.78240
  -1081810.53000  26593838.55600                   -794679.31340  26593841.69640
   -402492.94300  28403963.39900                   -277972.58240  28403967.68840
    542746.43300  24981488.99300                    452771.53840  24981492.29840
  42493836.44700  28090001.18100                  33161254.30640  28090004.64940
  10644607.86100  24746775.84500                   8307151.73240  24746778.23540
 96  9 14  2 18  0.0130000  0  8  4 14 15 18 19 22 25 29
    925580.69100  28690579.17300                    649844.84640  28690582.57140
   7268302.67000  24287055.28200                   5676673.63040  24287058.69240
  43792786.25500  28737216.19600                  34190875.60740  28737220.35640
  -1088870.97800  26592495.25900                   -800180.93940  26592498.93840
   -423778.12000  28399913.14200                   -294558.33940  28399918.26340
    596800.81500  24991775.47000                    494891.86340  24991778.71640
  42650871.59200  28119882.83700                  33283619.33740  28119886.27040
  10698270.13200  24756987.42300                   8348966.49840  24756989.75540
 96  9 14  2 18 30.0130000  0  8  4 14 15 18 19 22 25 29
    971499.17400  28699317.28200                    685625.46840  28699320.48140
   7357836.84900  24304093.05600                   5746440.51540  24304096.32540
  43958594.51800  28768770.25100                  34320076.77740  28768773.62640
  -1095884.25800  26591160.53200                   -805645.81540  26591163.98940
   -444942.06300  28395883.43100                   -311049.62940  28395887.39240
    651439.44500  25002172.59500                    537467.43340  25002175.95840
  42807915.09800  28149767.72700                  33405990.93240  28149770.51740
  10752142.63500  24767239.04000                   8390945.07940  24767241.46640
 96  9 14  2 19  0.0130000  0  8  4 14 15 18 19 22 25 29
   1017894.49500  28708145.04000                    721777.73640  28708150.68840
   7447917.72800  24321234.82100                   5816633.40840  24321238.22040
  44124265.20100  28800294.45400                  34449170.84740  28800299.77440
  -1102853.40600  26589834.50100                   -811076.29540  26589837.54840
   -465974.53200  28391882.43100                   -327438.51640  28391889.57140
    706677.27400  25012684.04000                    580509.90940  25012687.22740
  42964955.29200  28179652.85200                  33528359.88640  28179655.75940
  10806200.69800  24777525.89200                   8433068.25140  24777528.27040
 96  9 14  2 19 30.0130000  0  7  4 14 18 19 22 25 29
   1064769.28800  28717065.50900                    758303.47140  28717069.75140
   7538553.36600  24338482.52400                   5887258.57940  24338485.85240
  -1109771.60900  26588518.11000                   -816467.07840  26588521.42740
   -486861.96500  28387906.29000                   -343714.37340  28387911.09540
    762523.84700  25023311.39900                    624026.73540  25023314.70440
  43121976.05000  28209530.80600                  33650713.76040  28209535.31740
  10860434.59200  24787846.18100                   8475328.43540  24787848.60640
 96  9 14  2 20  0.0130000  0  7  4 14 18 19 22 25 29
   1112126.67500  28726079.15700                    795205.35340  28726083.28240
   7629736.93900  24355834.06300                   5958310.71240  24355837.48540
  -1116646.87200  26587209.62600                   -821824.39640  26587213.17740
   -507592.64100  28383960.85200                   -359868.00740  28383963.99340
    818989.61100  25034056.37600                    668026.05240  25034059.54040
  43278963.53100  28239406.55600                  33773041.64040  28239407.82140
  10914826.78900  24798196.66500                   8517711.97540  24798199.11440
 96  9 14  2 20 30.0130000  0  7  4 14 18 19 22 25 29
   1159961.70700  28735180.58700                    832479.39040  28735182.22740
   7721454.51600  24373287.27400                   6029778.94740  24373290.59140
  -1123480.03700  26585909.25100                   -827148.92740  26585912.27440
   -528170.93400  28380046.14900                   -375902.93740  28380052.37240
    876073.14200  25044919.02400                    712506.73840  25044922.28240
  43435916.82800  28269271.51700                  33895342.92440  28269274.95040
  10969367.43600  24808575.34500                   8560211.18740  24808577.77040
 96  9 14  2 21  0.0130000  0  7  4 14 18 19 22 25 29
   1208266.43600  28744372.04800                    870119.47340  28744377.48540
   7813698.37400  24390840.50900                   6101657.27340  24390843.94240
  -1130265.34300  26584618.29000                   -832436.15340  26584621.73540
   -548607.13100  28376156.21200                   -391827.30940  28376159.51740
    933748.82900  25055894.08700                    757448.84740  25055897.40340
  43592828.35000  28299130.38400                  34017611.64240  28299133.89940
  11024063.86400  24818983.80600                   8602831.78440  24818986.16140
 96  9 14  2 21 30.0130000  0  7  4 14 18 19 22 25 29
   1257051.08100  28753656.03200                    908133.50740  28753658.92740
   7906470.29300  24408494.67300                   6173947.07140  24408498.07140
  -1136998.30200  26583336.79800                   -837682.59240  26583339.76340
   -568904.67700  28372292.33700                   -407643.51640  28372298.39540
    991995.34900  25066978.12600                    802835.76440  25066981.48940
  43749710.69100  28328985.67300                  34139857.63540  28328987.11440
  11078934.07100  24829425.39200                   8645587.79440  24829427.73540
 96  9 14  2 22  0.0130000  0  7  4 14 18 19 22 25 29
   1306325.02900  28763033.11000                    946528.76840  28763036.23940
   7999760.18700  24426247.00100                   6246640.49940  24426250.38840
  -1143658.93500  26582069.65700                   -842872.66640  26582072.25940
   -589066.43400  28368459.84500                   -423353.85840  28368462.37640
   1050817.30800  25078171.52400                    848671.07340  25078174.63040
  43906580.79300  28358838.24300                  34262094.06840  28358840.84540
  11133997.89800  24839903.47000                   8688494.67640  24839905.81340
 96  9 14  2 22 30.0130000  0  7  4 14 18 19 22 25 29
   1356088.69200  28772503.45400                    985305.70640  28772509.53640
   8093578.41600  24444100.22000                   6319745.61540  24444103.54840
  -1150241.42000  26580816.96200                   -848001.86240  26580820.43140
   -609092.84400  28364647.56300                   -438958.82740  28364651.31340
   1110209.96700  25089473.64900                    894951.09040  25089476.81340
  44063447.19300  28388686.89200                  34384327.64440  28388690.52440
  11189269.15400  24850421.39900                   8731563.20040  24850423.80240
 96  9 14  2 23  0.0130000  0  7  4 14 18 19 22 25 29
   1406333.82900  28782064.41500                   1024457.73840  28782065.98540
   8187908.65100  24462050.61800                   6393249.68640  24462054.08740
  -1156759.99900  26579576.58700                   -853081.26440  26579579.43440
   -629000.61700  28360858.94600                   -454471.30740  28360865.91140
   1170165.32000  25100882.86000                    941669.55740  25100886.13040
  44220294.22800  28418533.29000                  34506546.11340  28418535.79840
  11244729.87400  24860975.28200                   8774779.34440  24860977.62640
 96  9 14  2 23 30.0130000  0  7  4 14 18 19 22 25 29
   1457060.54100  28791716.61000                   1063985.07440  28791721.43840
   8282749.62000  24480098.18800                   6467151.73940  24480101.57540
  -1163224.84400  26578346.18100                   -858118.78140  26578349.56740
   -648785.34900  28357093.85200                   -469887.96940  28357098.55240
   1230703.68200  25112402.86000                    988842.32540  25112406.09540
  44377121.23300  28448377.13400                  34628748.97840  28448380.13440
  11300366.78500  24871562.52400                   8818132.79240  24871564.88040
 96  9 14  2 24  0.0130000  0  7  4 14 18 19 22 25 29
   1508266.44000  28801461.39900                   1103885.77340  28801464.89240
   8378110.46000  24498244.85200                   6541458.88540  24498248.27440
  -1169635.86500  26577126.54000                   -863114.36240  26577129.97440
   -668441.20600  28353352.50900                   -485204.17640  28353356.14240
   1291847.86300  25124038.22000                   1036487.15840  25124041.29040
  44533920.76600  28478214.14900                  34750930.41940  28478215.80240
  11356181.03800  24882183.49300                   8861624.41940  24882185.83740
 96  9 14  2 24 30.0130000  0  7  4 14 18 19 22 25 29
   1559950.28800  28811296.47000                   1144158.90140  28811300.22040
   8474002.78000  24516492.42300                   6616180.16840  24516495.85640
  -1176001.22200  26575914.64200                   -868074.36940  26575917.88840
   -687960.66900  28349641.01700                   -500414.00340  28349645.23540
   1353599.12200  25135789.00100                   1084605.03340  25135792.20040
  44690692.46100  28508049.29800                  34873090.19140  28508052.88440
  11412168.45800  24892837.60200                   8905250.98740  24892839.94640
 96  9 14  2 25  0.0140000  0  7  4 14 18 19 22 25 29
   1612102.09600  28821220.49800                   1184796.68940  28821224.36540
   8570413.80000  24534838.83400                   6691305.63540  24534842.19740
  -1182322.91200  26574711.61500                   -873000.33840  26574714.95540
   -707373.45700  28345941.93500                   -515540.84340  28345946.70540
   1415935.80300  25147651.36500                   1133179.08940  25147654.55340
  44847417.12000  28537871.95900                  34995213.33240  28537876.54140
  11468328.52300  24903524.68500                   8949012.07940  24903526.95940
 96  9 14  2 25 30.0140000  0  7  4 14 18 19 22 25 29
   1664716.31200  28831232.25600                   1225794.73840  28831234.52940
   8667347.88900  24553284.75600                   6766838.69540  24553288.22540
  -1188598.82300  26573517.58400                   -877890.63940  26573520.86540
   -726666.01200  28342273.70900                   -530573.95740  28342278.58440
   1478851.06600  25159623.63900                   1182203.98440  25159626.75640
  45004084.41200  28567686.20100                  35117291.72240  28567688.40440
  11524681.20400  24914248.12300                   8992923.27340  24914250.50240
 96  9 14  2 26  0.0140000  0  7  4 14 18 19 22 25 29
   1717782.86400  28841330.59200                   1267145.35540  28841333.70940
   8764809.69100  24571831.10000                   6842782.95240  24571834.51040
  -1194812.75400  26572335.00600                   -882732.64440  26572337.98240
   -745829.19600  28338625.56000                   -545506.29440  28338630.16640
   1542346.14200  25171706.38900                   1231680.68440  25171709.62340
  45160710.50200  28597488.93500                  35239338.03240  28597492.72140
  11581243.29200  24925011.51400                   9036997.63040  24925013.74040
 96  9 14  2 26 30.0140000  0  7  4 14 18 19 22 25 29
   1771297.40600  28851513.67800                   1308844.98340  28851518.49440
   8862791.93100  24590476.44300                   6919132.74340  24590479.86540
  -1200971.13300  26571163.25600                   -887531.36440  26571166.45540
   -764866.49400  28335005.16200                   -560340.46540  28335007.95140
   1606395.84200  25183894.61500                   1281589.55140  25183897.77940
  45317294.43600  28627288.01400                  35361351.53040  28627289.92440
  11638016.68800  24935815.31000                   9081236.64240  24935817.68940
 96  9 14  2 27  0.0140000  0  7  4 14 18 19 22 25 29
   1825255.41200  28861782.61500                   1350890.20440  28861782.70940
   8961303.42000  24609222.57600                   6995894.93940  24609226.03340
  -1207071.16300  26570002.35000                   -892284.61740  26570005.46740
   -783772.60900  28331405.31000                   -575072.50040  28331412.41640
   1671016.02900  25196191.44300                   1331942.95540  25196194.54940
  45473839.82700  28657076.35700                  35483334.89040  28657079.35740
  11695000.99500  24946658.76400                   9125640.00540  24946661.14240
 96  9 14  2 27 30.0140000  0  7  4 14 18 19 22 25 29
   1879643.18900  28872131.55300                   1393270.23740  28872129.63140
   9060338.19200  24628068.41200                   7073064.89440  24628071.77540
  -1213142.37600  26568846.85700                   -897015.41140  26568850.36140
   -802535.87300  28327836.73200                   -589693.13440  28327841.17440
   1736215.87900  25208598.56000                   1382748.04740  25208601.61940
  45630346.93500  28686858.83400                  35605288.54040  28686859.85340
  11752163.32000  24957536.55300                   9170182.07740  24957538.93240
 96  9 14  2 28  0.0140000  0  7  4 14 18 19 22 25 29
   1934473.25000  28882565.53700                   1435994.97840  28882564.72840
   9159909.19300  24647016.11500                   7150652.68840  24647019.45540
  -1219179.25800  26567697.95100                   -901719.46340  26567701.33840
   -821170.58100  28324288.31000                   -604213.68040  28324292.67040
   1802004.48200  25221117.73200                   1434011.90940  25221120.95540
  45786820.44700  28716635.33400                  35727215.90040  28716638.17040
  11809489.56800  24968445.52100                   9214851.89240  24968447.80740
 96  9 14  2 28 30.0140000  0  7  4 14 18 19 22 25 29
   1989782.37100  28893089.47500                   1479093.01140  28893091.16240
   9260045.27500  24666071.26400                   7228680.79340  24666074.63940
  -1225166.54700  26566558.99800                   -906384.87640  26566561.84640
   -839664.82500  28320771.92000                   -618624.68240  28320775.43540
   1868405.70000  25233753.35000                   1485753.12840  25233756.52540
  45943264.44100  28746405.26400                  35849120.32040  28746411.14640
  11866991.29500  24979387.43500                   9259658.43740  24979389.77940
 96  9 14  2 29  0.0140000  0  7  4 14 18 19 22 25 29
   2045579.36300  28903708.36500                   1522571.18740  28903708.82240
   9360736.72000  24685232.30300                   7307141.65740  24685235.76040
  -1231096.21500  26565430.61500                   -911005.37740  26565433.83840
   -858019.92500  28317276.70900                   -632927.35140  28317281.80740
   1935431.39200  25246507.89600                   1537980.95440  25246510.96740
  46099672.90100  28776168.47500                  35970997.04740  28776172.31840
  11924664.59100  24990362.42800                   9304598.67440  24990364.79540
 96  9 14  2 29 30.0140000  0  7  4 14 18 19 22 25 29
   2101874.03200  28914421.10000                   1566437.16040  28914423.06840
   9461961.61700  24704494.70100                   7386018.19640  24704498.22840
  -1236962.25000  26564314.36500                   -915576.31040  26564317.79940
   -876236.94400  28313812.56800                   -647122.36640  28313815.87340
   2003061.86800  25259377.59200                   1590680.03940  25259380.72140
  46256038.67800  28805924.46700                  36092840.54840  28805927.63140
  11982516.55600  25001371.27900                   9349678.13340  25001373.52940
 96  9 14  2 30  0.0140000  0  7  4 14 18 19 22 25 29
   2158655.14000  28925226.64600                   1610682.18940  28925228.52140
   9563688.91900  24723852.84200                   7465286.22140  24723856.29940
  -1242753.17700  26563212.26400                   -920088.70640  26563215.28740
   -894327.51200  28310366.70100                   -661218.87840  28310373.28740
   2071280.55300  25272359.16200                   1643837.46740  25272362.27940
  46412337.04600  28835665.22500                  36214631.43240  28835666.87740
  12040553.60000  25012415.55300                   9394901.81140  25012417.93240
 96  9 14  2 30 30.0140000  0  7  4 14 18 19 22 25 29
   2215909.68700  28936120.35700                   1655296.12840  28936122.35040
   9665892.03000  24743301.49000                   7544925.00940  24743304.95940
  -1248473.84700  26562123.57600                   -924546.35640  26562126.88140
   -912270.36400  28306954.09200                   -675200.26840  28306958.79140
   2140082.11500  25285451.56000                   1697449.08540  25285454.72540
  46568575.68200  28865398.57600                  36336375.86240  28865400.27540
  12098785.03800  25023496.49800                   9440276.96840  25023498.79540
 96  9 14  2 31  0.0140000  0  7  4 14 18 19 22 25 29
   2273630.74000  28947105.63100                   1700273.59240  28947107.55340
   9768564.42700  24762839.14600                   7624929.47040  24762842.66240
  -1254121.88300  26561048.97500                   -928947.40940  26561052.46740
   -930068.19700  28303565.73200                   -689068.66840  28303570.85340
   2209466.92700  25298655.25600                   1751515.18740  25298658.31440
  46724770.01000  28895121.56000                  36458085.69140  28895124.72540
  12157217.67900  25034615.74000                   9485808.90540  25034618.04940
 96  9 14  2 31 30.0140000  0  7  4 14 18 19 22 25 29
   2331795.91700  28958172.82600                   1745597.16740  28958176.03740
   9871713.07300  24782467.81000                   7705305.02840  24782471.27940
  -1259700.79300  26559987.10000                   -933294.60240  26559990.11140
   -947730.17900  28300203.13100                   -702831.19140  28300209.13140
   2279434.38800  25311969.67000                   1806035.29940  25311972.93940
  46880915.44500  28924833.55300                  36579757.50040  28924836.17840
  12215834.47600  25045770.00600                   9531484.33340  25045772.37340
 96  9 14  2 32  0.0140000  0  7  4 14 18 19 22 25 29
   2390402.97600  28969326.01400
   9975357.59400  24802190.84200                   7786066.98740  24802194.36940
  -1265209.82600  26558938.81800                   -937587.34740  26558941.94740
   -965258.01000  28296870.58400                   -716489.19440  28296874.96740
   2349987.89200  25325395.34200                   1861012.06940  25325398.56440
  47037023.00800  28954539.44300                  36701399.68440  28954545.35040
  12274634.99400  25056959.60700                   9577302.92640  25056961.83440
 96  9 14  2 32 30.0140000  0  7  4 14 18 19 22 25 29
   2449455.93900  28980563.61500
  10079519.90800  24822012.11500                   7867232.42940  24822015.59640
  -1270659.33700  26557901.58400                   -941833.71140  26557904.42040
   -982659.48600  28293557.82600                   -730048.71240  28293562.97140
   2421121.74800  25338931.63900                   1916441.05840  25338934.83840
  47193096.80000  28984238.98200                  36823015.71440  28984239.74440
  12333617.20700  25068183.53700                   9623263.09740  25068185.84640
 96  9 14  2 33  0.0140000  0  6  4 14 18 19 22 29
   2508972.95200  28991887.65400
  10184219.98900  24841935.99000                   7948816.90540  24841939.40040
  -1276032.73100  26556879.17800                   -946020.75440  26556882.16640
   -999938.85500  28290270.87300                   -743513.07540  28290274.61140
   2492848.10300  25352580.69300                   1972331.74040  25352583.67040
  12392784.68000  25079442.60000                   9669367.62740  25079444.89640
 96  9 14  2 33 30.0140000  0  6  4 14 18 19 22 29
   2568954.08100  29003302.34200                     21853.68150  29003306.65440
  10289453.46500  24861961.10700                   8030817.00740  24861964.50640
  -1281333.77800  26555870.45900                   -950151.42940  26555873.61140
  -1017071.76000  28287010.97500                   -756863.33740  28287015.35740
   2565160.83400  25366341.58400                   2028679.34040  25366344.68940
  12452134.02500  25090736.54500                   9715613.87940  25090738.84240
 96  9 14  2 34  0.0140000  0  6  4 14 18 19 22 29
   2629391.05700  29014805.10700                     68947.41740  29014809.46740
  10395200.17300  24882084.12300                   8113217.03840  24882087.58040
  -1286589.25800  26554870.42800                   -954246.59440  26554873.58040
  -1034058.03000  28283775.60000                   -770099.33940  28283779.06840
   2638033.54800  25380208.49000                   2085463.28940  25380211.66640
  12511668.64900  25102065.59200                   9762004.50240  25102067.94740
 96  9 14  2 34 30.0140000  0  6  4 14 18 19 22 29
   2690288.57400  29026392.09200                    116400.04940  29026396.12340
  10501461.28300  24902304.88100                   8196017.90040  24902308.22140
  -1291784.40200  26553881.99000                   -958294.73740  26553884.94340
  -1050885.57400  28280575.24800                   -783211.59540  28280579.15040
   2711482.74100  25394185.44300                   2142696.43640  25394188.61940
  12571392.83600  25113430.67000                   9808542.84040  25113433.10740
 96  9 14  2 35  0.0140000  0  6  4 14 18 19 22 29
   2751645.17400  29038067.88100                    164210.35940  29038073.23640
  10608224.41400  24922621.38100                   8279209.94240  24922624.75640
  -1296909.51200  26552906.54500                   -962288.30140  26552909.55740
  -1067558.56700  28277402.50600                   -796203.50240  28277407.20540
   2785505.73500  25408271.63900                   2200376.70440  25408274.70940
  12631297.61700  25124830.21700                   9855221.89640  25124832.52540
 96  9 14  2 35 30.0140000  0  6  4 14 18 19 22 29
   2813448.98600  29049828.95900                    212369.20240  29049831.67840
  10715484.21400  24943032.32600                   8362789.00840  24943035.76040
  -1301976.28900  26551942.21700                   -966236.41840  26551945.26440
  -1084088.39400  28274257.85000                   -809083.83940  28274261.33040
   2860089.15600  25422464.42800                   2258493.67040  25422467.60340
  12691385.59600  25136264.52900                   9902043.70440  25136266.85040
 96  9 14  2 36  0.0140000  0  6  4 14 18 19 22 29
   2875718.48300  29061679.43500                    260890.86940  29061682.78740
  10823255.97500  24963540.60000                   8446767.00040  24963544.10340
  -1306963.77300  26550993.37300                   -970122.74940  26550996.25640
  -1100494.15900  28271136.54500                   -821867.48640  28271140.49440
   2935255.33400  25436768.09200                   2317064.73440  25436771.11540
  12751678.11100  25147737.93500                   9949024.89340  25147740.27940
 96  9 14  2 36 30.0150000  0  6  4 14 18 19 22 29
   2938463.30400  29073619.09700                    309782.94740  29073624.07740
  10931539.45300  24984146.15100                   8531143.73140  24984149.60840
  -1311868.45700  26550060.05800                   -973944.56340  26550063.64340
  -1116793.85100  28268031.86200                   -834568.49740  28268037.34740
   3011015.71200  25451184.76800                   2376098.80840  25451187.68640
  12812166.75900  25159248.33100                   9996158.91140  25159250.66340
 96  9 14  2 37  0.0150000  0  6  4 14 18 19 22 29
   3001678.47400  29085649.55000                    359041.50840  29085654.98740
  11040319.60300  25004846.35400                   8615907.48140  25004849.76540
  -1316708.43300  26549138.87800                   -977715.94840  26549142.08940
  -1132986.39900  28264951.50300                   -847186.02240  28264956.29640
   3087353.44900  25465711.44000                   2435582.77240  25465714.33540
  12872855.03000  25170796.82300                  10043448.48040  25170799.13240
 96  9 14  2 37 30.0150000  0  6  4 14 18 19 22 29
   3065358.29400  29097765.09700                    408662.15440  29097766.66740
  11149590.37600  25025639.82300                   8701053.53640  25025643.30440
  -1321487.04500  26548229.28400                   -981439.52340  26548232.36640
  -1149065.70000  28261892.78400                   -859715.27840  28261899.18340
   3164279.16800  25480349.78400                   2495524.90140  25480352.91340
  12933750.60000  25182385.05000                  10090899.58140  25182387.37040
 96  9 14  2 38  0.0150000  0  6  4 14 18 19 22 29
   3129511.22000  29109973.70600                    458651.43640  29109979.29640
  11259350.78400  25046526.56500                   8786581.12740  25046529.91740
  -1326197.75100  26547333.07300                   -985110.18940  26547336.15540
  -1165015.71400  28258855.42500                   -872143.83440  28258858.84740
   3241794.41000  25495100.41700                   2555926.40640  25495103.48740
  12994840.83400  25194010.12000                  10138502.36940  25194012.48740
 96  9 14  2 38 30.0150000  0  6  4 14 18 19 22 29
   3194115.69200  29122266.68300                    508992.59440  29122270.79640
  11369581.93400  25067502.78400                   8872475.52740  25067506.19440
  -1330857.84300  26546446.19000                   -988741.41240  26546449.33140
  -1180828.20700  28255846.77600                   -884465.24740  28255851.54640
   3319875.70900  25509958.77600                   2616768.98640  25509961.80040
  13056107.10700  25205668.80800                  10186242.32640  25205671.12840
 96  9 14  2 39  0.0150000  0  6  4 14 18 19 22 29
   3259172.29700  29134646.82300                    559686.09640  29134649.20240
  11480305.37600  25088572.86200                   8958753.52740  25088576.24940
  -1335441.13400  26545574.07300                   -992312.78740  26545576.86240
  -1196477.72200  28252869.76800                   -896659.58640  28252874.43340
   3398534.65500  25524927.11200                   2678061.68740  25524930.22940
  13117564.36100  25217363.60400                  10234131.09640  25217366.03040
 96  9 14  2 39 30.0150000  0  6  4 14 18 19 22 29
   3324669.55000  29147111.97200                    610722.87840  29147115.35840
  11591528.17200  25109737.87000                   9045420.63740  25109741.36240
  -1339941.15300  26544717.57300                   -995819.27840  26544720.70240
  -1211977.00300  28249920.92500                   -908736.92640  28249925.89340
   3477768.33600  25540004.69800                   2739802.23540  25540007.89740
  13179201.38400  25229092.65900                  10282159.95240  25229094.94440
 96  9 14  2 40  0.0150000  0  6  4 14 18 19 22 29
   3390599.69200  29159657.52600                    662097.03740  29159659.94040
  11703263.47500  25131000.40100                   9132487.10140  25131003.89340
  -1344367.14800  26543875.40100                   -999268.08540  26543878.30840
  -1227321.64800  28246999.27600                   -920693.77940  28247003.51840
   3557567.56000  25555189.93300                   2801983.45840  25555192.99140
  13241031.47200  25240858.58900                  10330339.24540  25240860.82740
 96  9 14  2 40 30.0150000  0  6  4 14 18 19 22 29
   3456944.54900  29172284.33900                    713794.30040  29172287.56140
  11815504.23600  25152359.18300                   9219947.42540  25152362.56940
  -1348726.00200  26543045.90900                  -1002664.58340  26543048.97940
  -1242524.56000  28244106.87000                   -932540.15940  28244110.10440
   3637922.88600  25570481.01800                   2864598.01240  25570484.13640
  13303063.83100  25252662.98700                  10378676.15240  25252665.30840
 96  9 14  2 41  0.0150000  0  6  4 14 18 19 22 29
   3523704.90200  29184985.15900                    765815.36940  29184989.57740
  11928259.94100  25173815.76100                   9307809.00840  25173819.24140
  -1353022.68700  26542228.36200                  -1006012.63240  26542231.46840
  -1257598.29400  28241239.30000                   -944285.88740  28241243.55440
   3718830.80700  25585877.22900                   2927643.15540  25585880.48740
  13365303.56400  25264506.78400                  10427174.65540  25264509.11640
 96  9 14  2 41 30.0150000  0  6  4 14 18 19 22 29
   3590886.67000  29197769.12000                    818164.80440  29197775.87040
  12041511.30900  25195367.00300                   9396056.82340  25195370.46040
  -1357266.78100  26541420.87800                  -1009319.70540  26541423.80840
  -1272545.80600  28238394.82300                   -955933.25440  28238398.24540
   3800286.14500  25601377.71400                   2991114.85640  25601380.74940
  13427762.43000  25276392.35400                  10475843.90840  25276394.67540
 96  9 14  2 42  0.0150000  0  6  4 14 18 19 22 29
   3658479.31100  29210633.22900                    870834.36840  29210635.74940
  12155225.31900  25217005.90900                   9484665.13740  25217009.50740
  -1361465.77200  26540621.59700                  -1012591.62740  26540624.79640
  -1287378.91500  28235572.58100                   -967491.49140  28235577.76140
   3882275.40300  25616979.69800                   3055002.59940  25616982.86240
  13490428.12000  25288317.16700                  10524674.32240  25288319.49940
 96  9 14  2 42 30.0150000  0  6  4 14 18 19 22 29
   3726499.89600  29223575.82300                    923837.43140  29223580.20640
  12269408.86400  25238734.32300                   9573639.32640  25238737.82740
  -1365594.43900  26539836.07300                  -1015808.75240  26539839.15540
  -1302095.07200  28232772.61200                   -978958.58440  28232776.77240
   3964821.71100  25632687.69800                   3119324.41540  25632690.90940
  13553301.26300  25300281.67500                  10573666.38940  25300283.97240
 96  9 14  2 43  0.0150000  0  6  4 14 18 19 22 29
   3794954.12200  29236602.15100                    977178.37540  29236606.41740
  12384054.09500  25260550.33100                   9662973.27040  25260553.81140
  -1369645.21300  26539065.38600                  -1018965.19240  26539068.76140
  -1316686.66400  28229995.36200                   -990328.62040  28229999.64040
   4047937.26400  25648504.22900                   3184089.79140  25648507.37040
  13616380.60400  25312285.30800                  10622819.12840  25312287.56940
 96  9 14  2 43 30.0150000  0  6  4 14 18 19 22 29
   3863843.46700  29249713.64300                   1030858.37440  29249717.51140
  12499142.38400  25282451.19800                   9752652.45040  25282454.67940
  -1373605.20100  26538311.68300                  -1022050.88140  26538314.75340
  -1331147.55800  28227243.88600                  -1001596.80640  28227247.90540
   4131634.07000  25664431.15100                   3249308.08940  25664434.19840
  13679665.55300  25324327.78400                  10672132.07840  25324329.95240
 96  9 14  2 44  0.0150000  0  6  4 14 18 19 22 29
   3933169.66600  29262905.51100                   1084878.82640  29262912.58140
  12614680.74100  25304437.37800                   9842682.33740  25304440.77640
  -1377473.35500  26537575.41700                  -1025065.00640  26537578.51140
  -1345484.38500  28224514.81500                  -1012768.33740  28224519.50340
   4215924.63900  25680471.06500                   3314989.06540  25680474.08940
  13743142.70900  25336407.16700                  10721594.80240  25336409.44040
 96  9 14  2 44 30.0150000  0  6  4 14 18 19 22 29
   4002942.57400  29276182.12000                   1139247.26040  29276186.02240
  12730681.10100  25326511.33900                   9933072.22340  25326514.81940
  -1381253.65800  26536856.20600                  -1028010.68640  26536859.14740
  -1359686.17700  28221811.37000                  -1023834.64740  28221815.61240
   4300805.88900  25696623.40900                   3381130.30740  25696626.45640
  13806813.07600  25348523.14300                  10771208.08340  25348525.32340
 96  9 14  2 45  0.0150000  0  6  4 14 18 19 22 29
   4073153.67100  29289544.88600                   1193957.19340  29289545.22540
  12847119.94900  25348669.16700                  10023803.79440  25348672.46040
  -1384964.05700  26536149.99500                  -1030901.89440  26536153.04240
  -1373762.89800  28219133.57300                  -1034803.47740  28219137.15940
   4386244.18200  25712881.80000                   3447705.61240  25712884.76540
  13870660.59100  25360672.69800                  10820959.39940  25360675.03040
 96  9 14  2 45 30.0150000  0  6  4 14 18 19 22 29
   4143796.54100  29302987.00300                   1249003.61840  29302989.15940
  12964010.33400  25370912.55800                  10114887.20940  25370916.05040
  -1388602.44600  26535457.86200                  -1033736.98140  26535460.88640
  -1387724.96100  28216475.83100                  -1045682.95440  28216480.83540
   4472225.16900  25729243.47900                   3514703.79840  25729246.73740
  13934678.02800  25372855.27600                  10870843.12540  25372857.60840
 96  9 14  2 46  0.0150000  0  6  4 14 18 19 22 29
   4214865.06100  29316509.39300                   1304381.69340  29316510.39040
  13081379.31900  25393247.04200                  10206343.55740  25393250.58140
  -1392169.64900  26534778.99500                  -1036516.60940  26534782.21840
  -1401560.14200  28213843.94800                  -1056463.57640  28213848.44840
   4558728.84800  25745704.59700                   3582109.27240  25745707.69040
  13998868.57100  25385070.01100                  10920861.73140  25385072.31940
 96  9 14  2 46 30.0150000  0  6  4 14 18 19 22 29
   4286358.00500  29330115.79200                   1360090.47440  29330118.80440
  13199247.32100  25415676.69800                  10298188.75040  25415680.01540
  -1395649.91500  26534116.37800                  -1039228.49340  26534119.39040
  -1415247.71800  28211238.83100                  -1067129.19240  28211242.95640
   4645743.47100  25762262.89300                   3649912.88640  25762265.71840
  14063258.03300  25397322.98700                  10971035.34640  25397325.24940
 96  9 14  2 47  0.0150000  0  6  4 14 18 19 22 29
   4358251.53900  29343796.62000                   1416111.38040  29343798.69440
  13317606.12800  25438199.53400                  10390416.39340  25438202.97940
  -1399047.16200  26533470.23700                  -1041875.68040  26533473.16740
  -1428809.56200  28208657.72200                  -1077696.81040  28208662.26840
   4733266.92800  25778917.97200                   3718112.98940  25778921.01840
  14127834.69900  25409611.58100                  11021354.83540  25409613.86640
 96  9 14  2 47 30.0150000  0  6  4 14 18 19 22 29
   4430550.05400  29357553.44800                   1472447.87040  29357556.94040
  13436472.80600  25460819.21400                  10483039.77240  25460822.64740
  -1402354.98600  26532840.84700                  -1044453.19440  26532843.65940
  -1442227.29800  28206106.10400                  -1088152.12440  28206110.01840
   4821328.95200  25795675.57300                   3786732.75840  25795678.71440
  14192616.94500  25421939.26100                  11071834.51040  25421941.46440
 96  9 14  2 48  0.0150000  0  6  4 14 18 19 22 29
   4503266.51800  29371391.51800                   1529110.03840  29371395.04640
  13555832.74900  25483532.74500                  10576047.51940  25483536.20240
  -1405575.01700  26532227.94000                  -1046962.28940  26532230.78840
  -1455479.60400  28203583.01100                  -1098478.57540  28203586.39740
   4909949.72900  25812539.49500                   3855787.92140  25812542.44840
  14257617.69300  25434308.44000                  11122484.45040  25434310.71440
 96  9 14  2 48 30.0150000  0  6  4 14 18 19 22 29
   4576401.99600  29385308.30000                   1586098.75740  29385311.92140
  13675646.99400  25506332.44800                  10669409.26540  25506335.87040
  -1408707.62100  26531631.65100                  -1049403.26440  26531634.85040
  -1468584.19900  28201090.56500                  -1108689.90340  28201093.84740
   4999144.98200  25829513.14300                   3925290.72440  25829516.14340
  14322828.31500  25446717.64300                  11173297.92640  25446720.02240
 96  9 14  2 49  0.0160000  0  6  4 14 18 19 22 29
   4649958.87100  29399305.87500                   1643415.79740  29399308.52340
  13795896.38900  25529215.25800                  10763110.08840  25529218.70340
  -1411759.05300  26531051.18000                  -1051780.98740  26531054.16840
  -1481542.28600  28198623.20300                  -1118787.08440  28198626.56640
   5088926.15100  25846597.52300                   3995250.08540  25846600.61740
  14388241.37100  25459165.28900                  11224269.14640  25459167.57440
 96  9 14  2 49 30.0160000  0  6  4 14 18 19 22 29
   4723943.13200  29413385.46900                   1701065.82740  29413389.12540
  13916553.80600  25552175.47600                  10857128.85340  25552178.78140
  -1414735.23500  26530484.75800                  -1054100.07340  26530487.86340
  -1494345.86900  28196187.06200                  -1128763.87140  28196191.01240
   5179283.79600  25863792.16400                   4065658.64940  25863795.07040
  14453855.70100  25471651.30500                  11275397.20040  25471653.51940
 96  9 14  2 50  0.0160000  0  6  4 14 18 19 22 29
   4798367.09700  29427546.53100                   1759058.52040  29427552.37940
  14037643.71600  25575218.16400                  10951484.62640  25575221.62140
  -1417611.30000  26529937.43700                  -1056341.14840  26529940.13340
  -1506996.70400  28193779.53100                  -1138621.63340  28193783.53940
   5270216.46400  25881096.03900                   4136515.28240  25881098.89840
  14519688.49700  25484178.78100                  11326695.49040  25484181.07840
 96  9 14  2 50 30.0160000  0  6  4 14 18 19 22 29
   4873226.62500  29441790.92200                   1817390.60140  29441794.66040
  14159186.89000  25598346.90600                  11046193.58240  25598350.32840
  -1420392.96900  26529408.18700                  -1058508.67040  26529410.96540
  -1519506.91200  28191398.89800                  -1148369.79040  28191402.80140
   5361709.46500  25898506.63300                   4207808.54140  25898509.63340
  14585738.91900  25496747.96100                  11378163.36240  25496750.16440
 96  9 14  2 51  0.0160000  0  6  4 14 18 19 22 29
   4948518.46400  29456120.81200                   1876059.57340  29456124.92640
  14281203.48300  25621566.14800                  11141271.44440  25621569.58240
  -1423091.91500  26528894.62500                  -1060611.72740  26528897.64840
  -1531880.25500  28189044.91400                  -1158011.32440  28189047.56240
   5453755.58400  25916022.44500                   4279532.78940  25916025.39840
  14651996.95600  25509356.14800                  11429793.00340  25509358.46940
 96  9 14  2 51 30.0160000  0  6  4 14 18 19 22 29
   5024242.94300  29470528.21100                   1935065.66740  29470531.97340
  14403707.46300  25644877.82000                  11236729.09140  25644881.30140
  -1425698.18900  26528398.43700                  -1062642.57340  26528401.40240
  -1544126.57500  28186713.07000                  -1167553.88040  28186716.24640
   5546345.67000  25933641.83600                   4351680.92140  25933644.76640
  14718462.61400  25522004.30500                  11481584.43640  25522006.57840
 96  9 14  2 52  0.0160000  0  6  4 14 18 19 22 29
   5100388.55500  29485018.53100                   1994399.88940  29485022.79740
  14526713.45600  25668285.14100                  11332577.91340  25668288.45740
  -1428208.07500  26527920.85100                  -1064598.31340  26527923.94540
  -1556250.23800  28184407.30500                  -1177000.86240  28184410.66840
   5639479.05300  25951364.35100                   4424252.39640  25951367.45740
  14785145.49300  25534693.68000                  11533545.12340  25534695.87140
 96  9 14  2 52 30.0160000  0  6  4 14 18 19 22 29
   5176952.62100  29499589.31200                   2054060.20540  29499592.10140
  14650191.48300  25691782.27300                  11428794.55640  25691785.73040
  -1430633.08900  26527459.37500                  -1066487.92540  26527462.43340
  -1568246.97400  28182123.71900                  -1186348.92340  28182128.01940
   5733156.25400  25969190.68700                   4497247.62540  25969193.60540
  14852030.44100  25547421.32000                  11585663.27740  25547423.47640
 96  9 14  2 53  0.0160000  0  6  4 14 18 19 22 29
   5253930.53700  29514234.39100                   2114042.99140  29514239.85140
  14774120.04200  25715365.13300                  11525362.25940  25715368.71940
  -1432953.32800  26527017.84400                  -1068295.89240  26527020.97340
  -1580119.61600  28179865.06200                  -1195600.31840  28179869.21140
   5827375.41600  25987119.78900                   4570665.15840  25987122.75440
  14919121.75500  25560188.46900                  11637942.22740  25560190.56640
 96  9 14  2 53 30.0160000  0  6  4 14 18 19 22 29
   5331311.50700  29528963.60900                   2174339.78540  29528966.94940
  14898477.32700  25739029.50800                  11622264.03340  25739033.10540
  -1435170.21200  26526596.14100                  -1070023.31840  26526599.14140
  -1591862.76500  28177629.87500                  -1204750.80340  28177633.57840
   5922118.54900  26005148.84400                   4644490.98640  26005151.69140
  14986437.17500  25572998.08600                  11690395.80740  25573000.34840
 96  9 14  2 54  0.0160000  0  6  4 14 18 19 22 29
   5409099.48300  29543765.19500                   2234953.80740  29543769.23840
  15023250.56100  25762773.00800                  11719489.92640  25762776.57040
  -1437294.77300  26526191.85900                  -1071678.81440  26526194.94140
  -1603460.55600  28175423.03900                  -1213788.01340  28175426.06240
   6017385.60300  26023277.56200                   4718725.06540  26023280.63340
  15053980.85500  25585851.23400                  11743027.24640  25585853.46140
 96  9 14  2 54 30.0160000  0  6  4 14 18 19 22 29
   5487305.37200  29558648.46100                   2295893.42240  29558653.73440
  15148442.17400  25786596.18000                  11817041.82840  25786599.74240
  -1439307.49900  26525808.64800                  -1073247.14840  26525811.69540
  -1614896.75900  28173246.49200                  -1222699.32140  28173250.18340
   6113174.52900  26041505.71100                   4793365.79340  26041508.58240
  15121754.39900  25598748.07800                  11795837.80540  25598750.34040
 96  9 14  2 55  0.0160000  0  6  4 14 18 19 22 29
   5565926.46400  29573609.89100                   2357156.61440  29573612.10540
  15274063.23400  25810500.94500                  11914928.36740  25810504.56640
  -1441211.18200  26525446.21900                  -1074730.52240  26525449.10140
  -1626169.18500  28171102.10100                  -1231482.99040  28171106.02740
   6209492.50800  26059834.47600                   4868418.77240  26059837.41840
  15189766.88300  25611690.51600                  11848834.55140  25611692.69540
 96  9 14  2 55 30.0160000  0  6  4 14 18 19 22 29
   5644939.96400  29588644.22600                   2418725.55940  29588647.66040
  15400119.49500  25834488.54700                  12013154.01440  25834492.02740
  -1443026.31500  26525100.97600                  -1076144.90040  26525103.54340
  -1637277.63900  28168987.37500                  -1240138.89440  28168991.65240
   6306331.98200  26078262.14800                   4943878.11140  26078265.16040
  15258006.11500  25624675.85900                  11902007.97840  25624678.07440
 96  9 14  2 56  0.0160000  0  6  4 14 18 19 22 29
   5724341.36600  29603755.95300                   2480596.79740  29603759.58640
  15526626.85700  25858562.26600                  12111731.17940  25858565.75840
  -1444741.10900  26524774.85900                  -1077481.08940  26524777.82440
  -1648223.70400  28166905.22600                  -1248668.27440  28166908.63740
   6403708.52800  26096792.46100                   5019755.95140  26096795.49640
  15326458.70800  25637702.06200                  11955347.66740  25637704.28940
 96  9 14  2 56 30.0160000  0  6  4 14 18 19 22 29
   5804131.54700  29618937.61700                   2542770.98140  29618942.48040
  15653600.32300  25882724.56200                  12210671.53840  25882728.13740
  -1446340.11300  26524470.35900                  -1078727.05840  26524473.53540
  -1659003.93100  28164853.43000                  -1257068.43940  28164857.48440
   6501638.45400  26115427.57800                   5096064.99340  26115430.56640
  15395144.26000  25650772.48400                  12008868.87940  25650774.76940
 96  9 14  2 57  0.0160000  0  6  4 14 18 19 22 29
   5884295.61800  29634193.00000                   2605236.38240  29634198.75440
  15781037.38300  25906974.97600                  12309973.13740  25906978.53940
  -1447837.94500  26524185.35900                  -1079894.19040  26524188.51240
  -1669633.66000  28162830.53900                  -1265351.29840  28162835.27340
   6600114.37000  26134167.14100                   5172799.47840  26134170.04740
  15464058.88400  25663886.38300                  12062568.58940  25663888.65640
 96  9 14  2 57 30.0160000  0  6  4 14 18 19 22 29
   5964829.17200  29649515.73400                   2667989.85340  29649520.23440
  15908922.92100  25931310.82800                  12409624.20840  25931314.43740
  -1449232.37500  26523920.04700                  -1080980.74240  26523923.14140
  -1680125.98200  28160834.03100                  -1273527.11340  28160838.21540
   6699106.71100  26153004.53900                   5249936.37740  26153007.55140
  15533195.16600  25677042.68700                  12116441.01840  25677045.07840
 96  9 14  2 58  0.0160000  0  6  4 14 18 19 22 29
   6045771.82800  29664919.75000                   2731061.98940  29664924.30840
  16037243.98700  25955729.81200                  12509614.64740  25955733.38740
  -1450499.99400  26523678.71100                  -1081968.48340  26523681.54740
  -1690472.71900  28158864.78900                  -1281589.48840  28158868.65640
   6798634.59500  26171944.16400                   5327490.58540  26171947.23440
  15602568.23400  25690243.81200                  12170497.96040  25690246.10940
 96  9 14  2 58 30.0160000  0  6  4 14 18 19 22 29
   6127143.10500  29680405.72600                   2794468.15540  29680407.91840
  16165999.14300  25980231.00000                  12609943.33740  25980234.49240
  -1451638.85200  26523461.78900                  -1082855.89140  26523464.49640
  -1700681.62900  28156922.74200                  -1289544.45640  28156926.36340
   6898693.65500  26190984.93700                   5405458.69240  26190988.10140
  15672173.19500  25703489.34400                  12224735.59440  25703491.52340
 96  9 14  2 59  0.0160000  0  6  4 14 18 19 22 29
   6208959.04200  29695972.96100                   2858220.82540  29695977.29740
  16295197.38700  26004816.31200                  12710617.28840  26004819.73440
  -1452636.91200  26523271.89800                  -1083633.58540  26523274.94540
  -1710754.89200  28155005.43700                  -1297393.73840  28155009.51640
   6999295.94300  26210128.80500                   5483850.09540  26210131.86340
  15742009.69600  25716778.77300                  12279153.65240  25716781.10540
 96  9 14  2 59 30.0160000  0  6  4 14 18 19 22 29
   6291236.49900  29711630.04700                   2922333.11840  29711633.15240
  16424825.39600  26029483.99200                  12811626.12840  26029487.30840
  -1453490.14300  26523109.52300                  -1084298.42040  26523112.38340
  -1720678.18900  28153116.69500                  -1305126.14940  28153120.36340
   7100462.79700  26229380.15600                   5562681.41940  26229383.08640
  15812077.14100  25730112.21900                  12333751.66540  25730114.50440
 96  9 14  3  0  0.0160000  0  6  4 14 18 19 22 29
   6373955.91000  29727371.10900                   2986789.78340  29727372.58640
  16554881.04100  26054232.55500                  12912968.18740  26054236.09440
  -1454218.56700  26522971.00000                  -1084866.00740  26522973.83640
  -1730460.63100  28151255.14100                  -1312748.81440  28151259.13740
   7202193.68700  26248739.03900                   5641952.25040  26248741.84040
  15882361.04400  25743486.58600                  12388518.34640  25743488.97640
 96  9 14  3  0 30.0160000  0  6  4 14 18 19 22 29
   6457081.48000  29743186.68000                   3051562.97040  29743190.69940
  16685373.22600  26079064.48400                  13014650.40640  26079067.93040
  -1454829.66600  26522854.72600                  -1085342.17440  26522857.75040
  -1740115.30800  28149418.44500                  -1320271.91640  28149422.37140
   7304465.98200  26268200.78900                   5721644.95440  26268203.87140
  15952860.06600  25756902.33600                  12443452.65240  25756904.50440
 96  9 14  3  1  0.0160000  0  6  4 14 18 19 22 29
   6540584.65000  29759077.21100                   3116630.35240  29759081.65240
  16816273.99500  26103974.00000                  13116650.99640  26103977.42240
  -1455322.08200  26522760.97600                  -1085725.85840  26522763.84840
  -1749630.74800  28147607.85900                  -1327686.52140  28147611.65640
   7407270.15800  26287763.71100                   5801752.11440  26287766.61740
  16023583.61000  25770360.38300                  12498561.91140  25770362.68040
 96  9 14  3  1 30.0170000  0  6  4 14 18 19 22 29
   6624457.00300  29775038.77000                   3181985.39140  29775040.15340
  16947582.74000  26128961.34900                  13218969.49840  26128964.94640
  -1455690.12100  26522691.05200                  -1086012.62840  26522693.87640
  -1758989.57300  28145825.77800                  -1334979.09840  28145829.11840
   7510595.76300  26307426.03600                   5882265.57740  26307429.18840
  16094538.91600  25783862.83300                  12553851.76240  25783865.07140
 96  9 14  3  2  0.0170000  0  6  4 14 18 19 22 29
   6708686.53500  29791066.56700                   3247618.79040  29791070.23540
  17079326.47000  26154031.30900                  13321626.94340  26154034.86040
  -1455910.40000  26522648.80200                  -1086184.25740  26522651.66140
  -1768183.90600  28144076.93400                  -1342143.47240  28144081.08340
   7614430.58600  26327185.18400                   5963175.83840  26327188.05640
  16165738.89400  25797411.68400                  12609332.27140  25797413.89940
 96  9 14  3  2 30.0170000  0  6  4 14 18 19 22 29
   6793275.63200  29807165.56700                   3313532.38040  29807170.00940
  17211502.84300  26179183.73100                  13424621.51040  26179187.15340
  -1455979.36300  26522635.97400                  -1086237.98140  26522638.88040
  -1777213.31800  28142358.63800                  -1349179.34540  28142362.51640
   7718779.29600  26347041.92700                   6044486.52640  26347045.11440
  16237192.16500  25811008.88800                  12665010.14740  25811011.17340
 96  9 14  3  3  0.0170000  0  6  4 14 18 19 22 29
   6878237.45600  29823331.77800                   3379736.33640  29823337.52040
  17344112.61500  26204418.34100                  13527953.79240  26204422.03240
  -1455908.37600  26522649.46600                  -1086182.65940  26522652.19640
  -1786055.26100  28140675.84100                  -1356069.16540  28140680.32940
   7823659.85900  26366999.96600                   6126211.64140  26367003.11840
  16308906.04900  25824655.46600                  12720891.09640  25824657.77440
 96  9 14  3  3 30.0170000  0  6  4 14 18 19 22 29
   6963586.20300  29839572.87200                   3446241.83840  29839575.81340
  17477183.32800  26229740.84900                  13631645.25140  26229744.37640
  -1455702.97900  26522688.38800                  -1086022.59240  26522691.15340
  -1794713.76000  28139028.04400                  -1362815.99340  28139031.92340
   7929076.73000  26387060.01300                   6208354.66940  26387062.93140
  16380888.35400  25838353.24700                  12776981.21240  25838355.43840
 96  9 14  3  4  0.0170000  0  6  4 14 18 19 22 29
   7049327.17500  29855889.25500                   3513052.99440  29855891.51640
  17610703.87700  26255149.05900                  13735687.23040  26255152.59940
  -1455376.29600  26522750.60600                  -1085768.02740  26522753.44240
  -1803203.32900  28137411.96600                  -1369431.21640  28137415.36440
   8035025.58100  26407221.72400                   6290912.21640  26407224.67740
  16453139.95800  25852102.30900                  12833281.16640  25852104.52440
 96  9 14  3  4 30.0170000  0  6  4 14 18 19 22 29
   7135467.30000  29872280.32500                   3580175.11040  29872283.00940
  17744639.59200  26280636.39500                  13840052.72440  26280639.93440
  -1454940.81400  26522833.34100                  -1085428.68040  26522836.17740
  -1811531.06800  28135827.53600                  -1375920.33340  28135831.42740
   8141494.86500  26427481.87200                   6373875.30240  26427484.95440
  16525659.20400  25865902.13000                  12889789.67540  25865904.35640
 96  9 14  3  5  0.0170000  0  6  4 14 18 19 22 29
   7221992.14300  29888746.70000                   3647597.04740  29888749.44240
  17878979.95100  26306200.33300                  13944733.51240  26306203.70840
  -1454404.44100  26522935.16900                  -1085010.72640  26522938.19240
  -1819709.90200  28134272.00500                  -1382293.40040  28134275.76640
   8248453.84500  26447835.52800                   6457219.96640  26447838.49340
  16598416.82300  25879747.53600                  12946483.92840  25879749.69240
 96  9 14  3  5 30.0170000  0  6  4 14 18 19 22 29
   7308908.13200  29905289.26300                   3715323.78540  29905292.96640
  18013713.90900  26331839.32500                  14049721.01140  26331842.70040
  -1453752.53900  26523059.52000                  -1084502.74040  26523062.40340
  -1827750.70500  28132741.16900                  -1388558.93840  28132745.03640
   8355873.58900  26468276.84100                   6540923.67340  26468279.67740
  16671404.90600  25893636.77800                  13003357.76240  25893639.08740
 96  9 14  3  6  0.0170000  0  6  4 14 18 19 22 29
   7396219.63900  29921903.13800                   3783358.70340  29921905.28240
  18148824.73000  26357550.18400                  14155002.16540  26357553.75940
  -1452983.18500  26523205.91100                  -1083903.24040  26523208.98140
  -1835651.96900  28131237.37200                  -1394715.72740  28131241.45040
   8463745.73800  26488804.23900                   6624979.89340  26488807.35640
  16744614.51800  25907568.02000                  13060404.21740  25907570.24740
 96  9 14  3  6 30.0170000  0  6  4 14 18 19 22 29
   7483920.69800  29938590.84100                   3851697.12640  29938593.67740
  18284322.36800  26383334.46600                  14260584.73840  26383338.02840
  -1452068.21600  26523380.01300                  -1083190.27140  26523383.04840
  -1843397.14300  28129763.72400                  -1400750.88140  28129767.56740
   8572093.08400  26509422.15300                   6709406.40140  26509425.24740
  16818047.17300  25921541.88800                  13117624.47140  25921544.17340
 96  9 14  3  7  0.0170000  0  6  4 14 18 19 22 29
   7572004.09000  29955352.94200                   3920333.54840  29955355.68440
  18420210.02900  26409192.98900                  14366471.22240  26409196.50540
  -1450993.36100  26523584.53600                  -1082352.71140  26523587.44240
  -1850984.55900  28128320.13800                  -1406663.11540  28128323.98140
   8680933.38100  26530133.67700                   6794217.02640  26530136.48940
  16891716.48200  25935560.62200                  13175029.12840  25935562.90740
 96  9 14  3  7 30.0170000  0  6  4 14 18 19 22 29
   7660482.08500  29972185.64500                   3989277.44440  29972189.14940
  18556483.43900  26435124.91100                  14472658.28440  26435128.57940
  -1449733.37200  26523824.23900                  -1081370.88740  26523827.15740
  -1858410.45800  28126906.92700                  -1412449.51540  28126910.52440
   8790307.40700  26550946.84900                   6879443.54740  26550949.84940
  16965658.60900  25949631.35600                  13232646.37540  25949633.54840
 96  9 14  3  8  0.0170000  0  6  4 14 18 19 22 29
   7749321.26500  29989093.95000                   4058502.71240  29989099.95040
  18693133.50400  26461128.75500                  14579138.84940  26461132.31740
  -1448292.52200  26524098.67700                  -1080248.14140  26524101.53640
  -1865694.35800  28125520.41100                  -1418125.24840  28125524.63040
   8900230.78100  26571864.80900                   6965098.13140  26571867.83340
  17039855.97100  25963750.59100                  13290462.50140  25963752.81740
 96  9 14  3  8 30.0170000  0  6  4 14 18 19 22 29
   7838513.47800  30006069.99700                   4128003.17240  30006069.55240
  18830171.00400  26487206.02000                  14685921.30940  26487209.63040
  -1446662.59600  26524408.89500                  -1078978.05640  26524411.82540
  -1872837.64900  28124161.48100                  -1423691.41140  28124165.09140
   9010707.77800  26592887.63800                   7051184.10640  26592890.50940
  17114316.79500  25977920.10600                  13348483.92440  25977922.23940
 96  9 14  3  9  0.0170000  0  6  4 14 18 19 22 29
   7928058.56100  30023108.25500                   4197778.48640  30023112.19240
  18967590.57900  26513356.09900                  14793001.49540  26513359.60240
  -1444877.95600  26524748.27000                  -1077587.41740  26524751.21240
  -1879852.77100  28122826.39500                  -1429157.70240  28122830.36840
   9121702.73400  26614009.16900                   7137673.69240  26614012.04040
  17189020.30900  25992135.81700                  13406694.45340  25992138.03240
 96  9 14  3  9 30.0170000  0  6  4 14 18 19 22 29
   8017965.49100  30040215.78600                   4267835.85340  30040219.04440
  19105422.89800  26539584.84100                  14900403.29540  26539588.25140
  -1442938.65100  26525117.48900                  -1076076.26140  26525120.32540
  -1886715.33200  28121521.11400                  -1434505.12540  28121525.50940
   9233214.07300  26635229.21600                   7224565.64840  26635232.18140
  17263957.99800  26006395.96600                  13465087.45840  26006398.08740
 96  9 14  3 10  0.0170000  0  6  4 14 18 19 22 29
   8108227.92800  30057392.30900                   4338170.19140  30057395.12240
  19243680.97300  26565894.45800                  15008136.85440  26565898.11440
  -1440865.37800  26525511.84900                  -1074460.71340  26525514.57940
  -1893412.36500  28120246.21600                  -1439723.56540  28120249.79040
   9345217.26700  26656542.80200                   7311840.87040  26656545.95440
  17339118.67700  26020698.48100                  13523654.22640  26020700.67340
 96  9 14  3 10 30.0170000  0  6  4 14 18 19 22 29
   8198848.77700  30074637.91900                   4408783.79440  30074643.59140
  19382358.42400  26592283.80900                  15116197.19940  26592287.34940
  -1438673.28500  26525928.95000                  -1072752.57940  26525931.71640
  -1899936.61100  28119004.41900                  -1444807.35740  28119007.93440
   9457698.31700  26677947.16100                   7399488.44240  26677950.22040
  17414508.54800  26035044.72400                  13582399.58340  26035046.90340
 96  9 14  3 11  0.0170000  0  6  4 14 18 19 22 29
   8289829.06300  30091950.74700                   4479677.48640  30091956.05640
  19521456.80200  26618753.50500                  15224585.53640  26618756.95040
  -1436347.38400  26526371.52800                  -1070940.17740  26526374.18840
  -1906281.55000  28117797.80900                  -1449751.44540  28117802.01640
   9570669.48800  26699444.77800                   7487517.93040  26699447.74340
  17490147.28700  26049438.13800                  13641338.85640  26049440.31740
 96  9 14  3 11 30.0170000  0  6  4 14 18 19 22 29
   8381147.87000  30109328.35600                   4550835.01540  30109332.88040
  19660945.39500  26645297.04400                  15333277.93940  26645300.58340
  -1433882.30400  26526840.62200                  -1069019.32940  26526843.49340
  -1912473.69200  28116618.65300                  -1454576.46240  28116622.59140
   9684128.98900  26721035.38800                   7575927.93240  26721038.37640
  17566042.24200  26063880.75500                  13700477.78240  26063882.95840
 96  9 14  3 12  0.0170000  0  6  4 14 18 19 22 29
   8472826.36300  30126770.56700                   4622272.77440  30126774.63440
  19800819.79600  26671914.46600                  15442270.97740  26671917.87640
  -1431245.25000  26527342.51300                  -1066964.47240  26527345.25540
  -1918514.66100  28115469.36400                  -1459283.69440  28115472.82140
   9798086.55400  26742720.83300                   7664726.04140  26742723.72740
  17642227.44300  26078378.10600                  13759842.87740  26078380.29840
 96  9 14  3 12 30.0170000  0  6  4 14 18 19 22 29
   8564854.49100  30144286.92700                   4693982.97540  30144291.02840
  19941061.15600  26698601.39500                  15551549.95040  26698604.95840
  -1428439.30800  26527876.57500                  -1064778.01540  26527879.39940
  -1924426.53200  28114344.05200                  -1463890.33440  28114347.83740
   9912519.24600  26764496.49700                   7753894.38140  26764499.32140
  17718692.19700  26092928.84900                  13819425.80640  26092931.13440
 96  9 14  3 13  0.0170000  0  6  4 14 18 19 22 29
   8657253.54000  30161869.91100                   4765982.16540  30161874.09540
  20081674.78100  26725359.26300                  15661119.00040  26725362.86040
  -1425444.88300  26528446.46600                  -1062444.68540  26528449.25540
  -1930193.73500  28113247.30200                  -1468384.23740  28113251.30940
  10027428.91700  26786363.29400                   7843434.38540  26786366.28240
  17795450.81900  26107535.64500                  13879237.71940  26107537.80240
 96  9 14  3 13 30.0170000  0  6  4 14 18 19 22 29
   8750021.25800  30179520.88800                   4838268.70940  30179523.65340
  20222645.87800  26752185.06700                  15770966.60540  26752188.75940
  -1422276.64900  26529049.17700                  -1059975.91740  26529052.00140
  -1935803.30100  28112179.29400                  -1472755.30140  28112183.20840
  10142804.30000  26808318.52000                   7933337.28640  26808321.61440
  17872486.92000  26122194.91100                  13939265.84940  26122197.22040
 96  9 14  3 14  0.0180000  0  5 14 18 19 22 29
  20363981.41300  26779080.30700                  15881098.18440  26779083.63540
  -1418954.09700  26529681.31400                  -1057386.90540  26529684.08040
  -1941248.04800  28111143.72800                  -1476997.93940  28111147.68940
  10258629.93100  26830359.47100                   8023591.02940  26830362.68240
  17949782.16300  26136903.94700                  13999495.90940  26136906.12740
 96  9 14  3 14 30.0180000  0  6  3 14 18 19 22 29
     -3253.80010  30166303.21300
  20505671.63900  26806043.30700                  15991506.14440  26806046.90440
  -1415480.88800  26530342.19700                  -1054680.50340  26530345.18540
  -1946513.80100  28110140.76000                  -1481101.11140  28110144.90840
  10374906.30800  26852485.86900                   8114196.00140  26852488.90440
  18027318.12000  26151658.56400                  14059913.53740  26151660.73240
 96  9 14  3 15  0.0180000  0  6  3 14 18 19 22 29
    -12094.96100  30164621.50200
  20647723.61500  26833074.93900                  16102195.99540  26833078.63140
  -1411852.06400  26531032.78300                  -1051852.83740  26531035.42040
  -1951589.94800  28109175.15800                  -1485056.51840  28109178.93240
  10491668.62300  26874704.92400                   8205179.63040  26874707.87740
  18105104.15800  26166460.52500                  14120526.03540  26166462.65840
 96  9 14  3 15 30.0180000  0  6  3 14 18 19 22 29
    -20882.46600  30162948.34600
  20790147.36000  26860177.19700                  16213175.52640  26860180.78340
  -1408073.13400  26531751.85300                  -1048908.20340  26531754.61940
  -1956495.27500  28108242.07200                  -1488878.82740  28108245.45940
  10608919.08200  26897017.47800                   8296543.62240  26897020.45540
  18183131.00700  26181308.71300                  14181326.17540  26181310.95140
 96  9 14  3 16  0.0180000  0  6  3 14 18 19 22 29
    -29627.13900  30161285.78300                     -5450.10850  30161287.27140
  20932945.08100  26887350.47800                  16324446.47940  26887354.06440
  -1404126.74000  26532502.81400                  -1045833.08140  26532505.65040
  -1961244.99800  28107338.18900                  -1492579.89340  28107341.86940
  10726655.78900  26919421.61900                   8388286.52040  26919424.47840
  18261400.62400  26196202.70500                  14242315.49040  26196204.96740
 96  9 14  3 16 30.0180000  0  6  3 14 18 19 22 29
    -38325.06400  30159627.87700                    -12227.69140  30159631.45140
  21076097.16700  26914591.68900                  16435993.54840  26914595.18240
  -1400007.46100  26533286.76700                  -1042623.24640  26533289.51040
  -1965845.65000  28106462.67400                  -1496164.78640  28106466.30740
  10844885.59400  26941920.22100                   8480413.64540  26941922.96340
  18339918.94700  26211144.40800                  14303498.59640  26211146.61140
 96  9 14  3 17  0.0180000  0  6  3 14 18 19 22 29
    -46970.68600  30157983.36100                    -18964.57640  30157985.99840
  21219608.97700  26941901.11100                  16547820.92340  26941904.62740
  -1395716.92000  26534103.40000                  -1039279.97140  26534106.13140
  -1970301.86100  28105614.48600                  -1499637.14140  28105618.20140
  10963598.01100  26964510.25200                   8572916.83240  26964513.36940
  18418702.51300  26226136.58800                  14364888.38740  26226138.75640
 96  9 14  3 17 30.0180000  0  6  3 14 18 19 22 29
    -55572.01500  30156345.58800                    -25666.91240  30156352.11540
  21363472.17400  26969277.28300                  16659922.10540  26969280.79940
  -1391243.05400  26534954.51700                  -1035793.82940  26534957.27140
  -1974613.56200  28104793.97100                  -1502996.88440  28104797.68540
  11082771.72600  26987188.47100                   8665779.47440  26987191.28340
  18497755.79500  26241179.86100                  14426488.34840  26241182.05340
 96  9 14  3 18  0.0180000  0  6  3 14 18 19 22 29
    -64116.83100  30154721.40000                    -32325.17540  30154725.16240
  21507669.18600  26996717.02500                  16772283.41040  26996720.88140
  -1386581.06600  26535841.46300                  -1032161.09940  26535844.09940
  -1978760.29300  28104004.96300                  -1506228.07740  28104009.33440
  11202400.54100  27009952.86900                   8758996.73840  27009956.01040
  18577084.98500  26256275.79100                  14488303.30240  26256278.09940
 96  9 14  3 18 30.0180000  0  6  3 14 18 19 22 29
    -72591.42400  30153107.75200                    -38928.72240  30153111.42040
  21652192.26900  27024218.67400                  16884898.78840  27024222.33040
  -1381752.54000  26536760.37700                  -1028398.59440  26536763.27140
  -1982766.22700  28103242.53300                  -1509349.55340  28103245.80340
  11322466.70300  27032800.53300                   8852554.78940  27032803.27540
  18656680.80800  26271422.22800                  14550326.02040  26271424.43240
 96  9 14  3 19  0.0180000  0  6  3 14 18 19 22 29
    -80988.77100  30151509.55700                    -45472.16640  30151513.85740
  21797063.14500  27051786.71300                  16997785.17840  27051790.27540
  -1376738.40900  26537714.60300                  -1024491.46540  26537717.39240
  -1986629.03000  28102507.07200                  -1512359.50540  28102510.96340
  11442973.11400  27055732.16600                   8946455.89740  27055735.04940
  18736546.98100  26286620.26700                  14612559.39840  26286622.42440
 96  9 14  3 19 30.0180000  0  6  3 14 18 19 22 29
    -89315.81900  30149925.74400                    -51960.74340  30149929.59940
  21942266.08100  27079418.05700                  17110930.31640  27079421.61940
  -1371548.78600  26538702.14200                  -1020447.59940  26538704.82640
  -1990354.89800  28101798.58800                  -1515262.74440  28101801.72840
  11563907.82500  27078745.51000                   9040690.74140  27078748.39240
  18816664.11400  26301865.87700                  14674988.33640  26301868.05740
 96  9 14  3 20  0.0180000  0  6  3 14 18 19 22 29
    -97575.66600  30148353.19700                    -58396.97740  30148357.69740
  22087804.32200  27107113.14200                  17224336.73240  27107116.91640
  -1366200.97600  26539719.90800                  -1016280.46740  26539722.65040
  -1993958.29700  28101112.36900                  -1518070.56140  28101115.87340
  11685263.88700  27101838.65800                   9135253.91140  27101841.62340
  18897021.80900  26317157.71300                  14737604.72140  26317159.81040
 96  9 14  3 20 30.0180000  0  6  3 14 18 19 22 29
   -105777.17900  30146790.97800                    -64787.71640  30146793.79140
  22233699.27600  27134876.11100                  17338021.10340  27134879.75640
  -1360677.00100  26540771.01000                  -1011976.05940  26540773.76440
  -1997437.12500  28100450.47800                  -1520781.31940  28100454.02940
  11807062.75500  27125016.25200                   9230162.12340  27125019.31040
  18977634.46900  26332497.67400                  14800419.78140  26332499.81840
 96  9 14  3 21  0.0180000  0  6  3 14 18 19 22 29
   -113937.54800  30145240.56400                    -71146.47940  30145242.93240
  22379943.27300  27162705.28300                  17451977.46140  27162708.91640
  -1354970.84400  26541856.80700                  -1007529.68840  26541859.52540
  -2000757.74900  28099818.77500                  -1523368.79540  28099822.77140
  11929304.67100  27148278.14200                   9325415.56940  27148281.14240
  19058504.46300  26347886.79100                  14863435.35840  26347888.90040
 96  9 14  3 21 30.0180000  0  6  3 14 18 19 22 29
   -122025.34200  30143700.79100                    -77448.61540  30143702.64240
  22526538.66600  27190601.26000                  17566207.62840  27190605.03340
  -1349082.12900  26542977.59600                  -1002941.06340  26542980.39640
  -2003902.83400  28099220.36100                  -1525819.48440  28099224.32240
  12051992.71600  27171624.86100                   9421016.64640  27171627.72140
  19139636.67700  26363325.56400                  14926655.26440  26363327.79140
 96  9 14  3 22  0.0180000  0  6  3 14 18 19 22 29
   -130022.67500  30142178.90800                    -83680.32340  30142183.45540
  22673484.69000  27218564.58000                  17680711.01740  27218568.21340
  -1342998.42200  26544135.05700                   -998200.49940  26544137.74040
  -2006873.82600  28098655.04900                  -1528134.51940  28098658.95140
  12175141.35700  27195059.75200                   9516976.62840  27195062.96340
  19221032.99900  26378814.79900                  14990080.97040  26378817.08440
 96  9 14  3 22 30.0180000  0  6  3 14 18 19 22 29
   -137924.16300  30140676.32200                    -89837.30340  30140680.62340
  22820763.41900  27246590.79100                  17795473.65340  27246594.34240
  -1336719.33500  26545329.99400                   -993307.70340  26545332.84240
  -2009661.52100  28098124.18200                  -1530306.73240  28098128.07240
  12298742.34800  27218579.67400                   9613289.08940  27218582.39240
  19302693.67900  26394354.47100                  15053712.66940  26394356.70940
 96  9 14  3 23  0.0180000  0  6  3 14 18 19 22 29
   -145694.48300  30139196.58000                    -95892.06940  30139198.86540
  22968382.35700  27274681.56400                  17910501.39140  27274685.25640
  -1330228.68500  26546565.19700                   -988250.05740  26546567.92840
  -2012244.57300  28097632.80700                  -1532319.49340  28097636.34640
  12422793.72900  27242185.90000                   9709952.50640  27242188.95940
  19384631.99000  26409946.69700                  15117560.70440  26409948.88940
 96  9 14  3 23 30.0180000  0  6  3 14 18 19 22 29
   -153334.78000  30137743.14200                   -101845.55840  30137746.21340
  23116335.53800  27302836.24400                  18025789.57840  27302839.95940
  -1323540.29700  26547837.68200                   -983038.31940  26547840.49440
  -2014656.00800  28097174.09600                  -1534198.50240  28097177.86940
  12547285.40300  27265875.93900                   9806959.00740  27265878.93940
  19466845.41500  26425591.33800                  15181623.10840  26425593.61140
 96  9 14  3 24  0.0180000  0  6  3 14 18 19 22 29
   -160869.92600  30136310.69700                   -107717.10240  30136314.03740
  23264611.42000  27331052.21300                  18141329.22040  27331055.71740
  -1316645.36100  26549149.97800                   -977665.62940  26549152.81440
  -2016902.07700  28096746.41600                  -1535948.67040  28096749.63940
  12672216.99600  27289649.86100                   9904308.30340  27289652.53340
  19549357.55000  26441292.90000                  15245918.27940  26441294.99840
 96  9 14  3 24 30.0180000  0  6  3 14 18 19 22 29
   -168330.75700  30134889.44700                   -113530.70540  30134893.08040
  23413201.64800  27359327.95500                  18257113.80940  27359331.59940
  -1309541.48700  26550501.67400                   -972130.13740  26550504.39240
  -2018988.76700  28096349.51000                  -1537574.63440  28096353.17840
  12797572.22200  27313503.98600                  10001987.70740  27313506.90440
  19632168.87400  26457051.47800                  15310446.58340  26457053.54140
 96  9 14  3 25  0.0180000  0  6  3 14 18 19 22 29
   -175706.06900  30133486.12700                   -119277.68040  30133489.31440
  23562116.33200  27387665.26000                  18373151.21240  27387668.84640
  -1302207.96000  26551897.43200                   -966415.68340  26551900.24440
  -2020918.81900  28095982.26000                  -1539078.55340  28095985.88140
  12923365.11700  27337441.54900                  10100008.14240  27337444.23240
  19715296.94700  26472870.14200                  15375221.70440  26472872.31040
 96  9 14  3 25 30.0180000  0  6  3 14 18 19 22 29
   -182998.99300  30132098.32200                   -124960.49140  30132100.92440
  23711341.81100  27416061.80700                  18489430.79940  27416065.48640
  -1294661.67000  26553333.15000                   -960535.44640  26553335.92840
  -2022716.30600  28095639.77500                  -1540479.17040  28095643.34940
  13049589.32400  27361461.22800                  10198364.67240  27361464.20540
  19798733.82400  26488747.73600                  15440237.44940  26488749.88140
 96  9 14  3 26  0.0180000  0  6  3 14 18 19 22 29
   -190200.00800  30130727.14200                   -130571.65240  30130731.44340
  23860870.92300  27444516.58000                  18605946.98440  27444520.48240
  -1286889.58300  26554812.23600                   -954479.26140  26554815.02540
  -2024370.91800  28095325.20500                  -1541768.45840  28095328.41640
  13176251.36200  27385564.19700                  10297062.36440  27385567.05740
  19882473.08600  26504682.74400                  15505488.82240  26504685.00640
 96  9 14  3 26 30.0180000  0  6  3 14 18 19 22 29
   -197294.77600  30129378.72100                   -136100.04940  30129380.18540
  24010710.90200  27473029.97800                  18722705.40340  27473033.51740
  -1278905.94100  26556331.57200                   -948258.24140  26556334.26740
  -2025879.99200  28095037.92400                  -1542944.34540  28095041.52140
  13303340.73200  27409748.39200                  10396093.05140  27409751.21740
  19966492.04600  26520671.09600                  15570958.14540  26520673.27540
 96  9 14  3 27  0.0190000  0  6  3 14 18 19 22 29
   -204262.62700  30128051.31900                   -141529.54440  30128056.45240
  24160853.80300  27501601.41300                  18839699.86340  27501604.89340
  -1270729.31400  26557887.36600                   -941886.84140  26557890.19040
  -2027247.03600  28094777.20200                  -1544009.54940  28094780.82340
  13430844.96600  27434011.67100                  10495446.99440  27434014.68240
  20050785.91500  26536711.51500                  15636641.67740  26536713.61240
 96  9 14  3 27 30.0190000  0  6  3 14 18 19 22 29
   -211090.38200  30126752.23300                   -146849.82240  30126757.48340
  24311297.27600  27530229.74100                  18956928.53740  27530233.51540
  -1262350.67000  26559481.75700                   -935358.01840  26559484.44040
  -2028450.48400  28094548.48300                  -1544947.28240  28094551.95240
  13558771.99100  27458355.40500                  10595130.39140  27458358.45240
  20135355.80600  26552804.93600                  15702540.29240  26552807.14040
 96  9 14  3 28  0.0190000  0  6  3 14 18 19 22 29
   -217803.53900  30125474.22500                   -152080.86840  30125477.48340
  24462025.65800  27558912.48300                  19074379.21740  27558915.98740
  -1253777.18700  26561113.22500                   -928677.37640  26561116.01540
  -2029493.80200  28094350.15500                  -1545760.24040  28094353.77640
  13687115.78300  27482778.31900                  10695138.54240  27482781.48340
  20220186.20500  26568947.54600                  15768641.90340  26568949.67940
 96  9 14  3 28 30.0190000  0  6  3 14 18 19 22 29
   -224397.28000  30124219.35000                   -157218.83340  30124220.90940
  24613039.51400  27587649.50700                  19192052.34340  27587653.28040
  -1245005.25700  26562782.56100                   -921842.09740  26562785.43240
  -2030378.17300  28094182.01500                  -1546449.34440  28094185.75340
  13815868.37900  27507279.29600                  10795465.24440  27507282.20240
  20305280.27500  26585140.33500                  15834948.97340  26585142.50340
 96  9 14  3 29  0.0190000  0  6  3 14 18 19 22 29
   -230867.49500  30122989.96800                   -162260.53840  30122994.63240
  24764332.03900  27616439.63200                  19309942.61440  27616443.25340
  -1236026.26800  26564491.21000                   -914845.47740  26564493.94040
  -2031099.60000  28094044.75700                  -1547011.47840  28094048.06140
  13945037.65800  27531859.08500                  10896116.63440  27531862.29640
  20390651.76100  26601385.78800                  15901472.20940  26601387.96840
 96  9 14  3 29 30.0190000  0  6  3 14 18 19 22 29
   -237187.05700  30121786.96800                   -167184.87740  30121787.88240
  24915943.94500  27645290.42900                  19428081.75040  27645294.22540
  -1226805.71600  26566245.77200                   -907660.63140  26566248.52640
  -2031620.29600  28093945.72500                  -1547417.19840  28093949.33540
  14074656.62300  27556525.06100                  10997118.42240  27556528.12040
  20476324.62300  26617688.97500                  15968230.28240  26617691.12040
 96  9 14  3 30  0.0190000  0  6  3 14 18 19 22 29
   -243365.37900  30120610.48300                   -171999.14240  30120612.37040
  25067875.61300  27674201.67100                  19546470.05940  27674205.33940
  -1217352.54300  26568044.83500                   -900294.51740  26568047.65940
  -2031946.24600  28093883.18600                  -1547671.16940  28093886.69040
  14204700.90800  27581271.41300                  11098451.63540  27581274.31940
  20562290.19100  26634047.80400                  16035216.43840  26634049.80740
 96  9 14  3 30 30.0190000  0  6  3 14 18 19 22 29
   -249391.76500  30119463.13200                   -176695.00740  30119465.40540
  25220132.58200  27703175.58500                  19665111.84240  27703179.21840
  -1207664.23700  26569888.31900                   -892745.18140  26569890.96840
  -2032079.97800  28093857.99900                  -1547775.35740  28093861.78440
  14335143.76700  27606093.99100                  11200095.42340  27606097.22540
  20648550.16700  26650462.09300                  16102432.00240  26650464.22540
 96  9 14  3 31  0.0190000  0  6  3 14 18 19 22 29
   -255272.40700  30118345.14000                   -181277.30140  30118348.57340
  25372713.25200  27732210.83500                  19784005.86240  27732214.73740
  -1197744.94800  26571775.78000                   -885015.85540  26571778.45240
  -2032025.14600  28093868.29600                  -1547732.61640  28093871.50740
  14465978.30700  27630991.00700                  11302044.41440  27630993.79640
  20735101.10100  26666932.28000                  16169874.28540  26666934.48340
 96  9 14  3 31 30.0190000  0  6  3 14 18 19 22 29
   -261006.89400  30117254.41300                   -185745.72440  30117258.74940
  25525627.05600  27761309.22500                  19903159.47440  27761312.65940
  -1187581.50200  26573710.00700                   -877096.28440  26573712.63240
  -2031790.53800  28093913.17100                  -1547549.78140  28093916.81540
  14597200.06500  27655961.61600                  11404295.14040  27655964.45240
  20821948.16300  26683459.03000                  16237547.31840  26683461.24540
 96  9 14  3 32  0.0190000  0  6  3 14 18 19 22 29
   -266601.96700  30116189.08500                   -190105.51240  30116192.48340
  25678861.75500  27790468.89000                  20022563.12940  27790472.87440
  -1177170.12300  26575691.27200                   -868983.51640  26575693.90940
  -2031401.38400  28093986.87400                  -1547246.52740  28093990.29640
  14728800.86700  27681004.28000                  11506841.22440  27681007.31540
  20909092.40600  26700042.02200                  16305451.92440  26700044.13240
 96  9 14  3 32 30.0190000  0  6  3 14 18 19 22 29
   -272047.89000  30115151.78800                   -194349.11540  30115154.17940
  25832397.81200  27819685.82700                  20142201.60440  27819689.48340
  -1166511.37800  26577719.46800                   -860677.99340  26577722.23340
  -2030875.18400  28094087.49900                  -1546836.48840  28094090.76840
  14860778.72800  27706118.86600                  11609681.11640  27706122.03040
  20996530.38400  26716680.85800                  16373585.41140  26716683.08540
 96  9 14  3 33  0.0190000  0  6  3 14 18 19 22 29
   -277341.55700  30114145.21800                   -198474.06040  30114150.69040
  25986231.69300  27848959.26500                  20262072.15540  27848962.89740
  -1155610.98800  26579793.68600                   -852184.17640  26579796.31140
  -2030212.08500  28094213.14700                  -1546319.76640  28094216.81540
  14993160.77500  27731310.58500                  11712835.95940  27731313.51540
  21084270.06600  26733377.10800                  16441953.99240  26733379.17140
 96  9 14  3 33 30.0190000  0  7  3 14 18 19 22 28 29
   -282465.48800  30113169.91300                   -202466.70040  30113173.64040
  26140358.04600  27878288.56900                  20382170.60540  27878292.22540
  -1144467.20600  26581914.32700                   -843500.70240  26581917.15140
  -2029409.97200  28094365.97500                  -1545694.72440  28094369.77240
  15125956.05100  27756580.44400                  11816312.79840  27756583.24540
     16309.60910  30565731.89700                      5780.25210  30565733.83900
  21172316.58700  26750131.99100                  16510561.66640  26750134.12440
 96  9 14  3 34  0.0190000  0  7  3 14 18 19 22 28 29
   -287415.72700  30112228.03800                   -206324.03440  30112232.04640
  26294746.87900  27907668.08500                  20502473.58240  27907671.69440
  -1133104.55900  26584076.49100                   -834646.68540  26584079.10440
  -2028471.49800  28094544.35800                  -1544963.43340  28094548.14340
  15259157.17100  27781927.92900                  11920105.88240  27781930.97540
     61083.64100  30574252.08500                     40669.13100  30574254.76500
  21260651.61500  26766941.33500                  16579394.15240  26766943.51540
 96  9 14  3 34 30.0190000  0  7  3 14 18 19 22 28 29
   -292184.85200  30111320.89000                   -210040.21440  30111324.44040
  26449394.04400  27937096.27200                  20622977.85940  27937100.03440
  -1121524.48400  26586279.86600                   -825623.24340  26586282.66740
  -2027376.77100  28094752.82700                  -1544110.37140  28094756.30740
  15392770.21600  27807353.66300                  12024219.94940  27807356.73340
    106286.49100  30582853.90500                     75892.12900  30582856.71000
  21349283.07100  26783807.31900                  16648457.62140  26783809.46440
 96  9 14  3 35  0.0190000  0  7  3 14 18 19 22 28 29
   -296776.97500  30110446.30400                   -213618.50040  30110448.34340
  26604307.23600  27966575.03800                  20743689.42640  27966578.77640
  -1109722.03300  26588526.09300                   -816426.52840  26588528.80040
  -2026104.08200  28094995.02200                  -1543118.65440  28094998.55040
  15526802.43300  27832859.25700                  12128660.63640  27832862.36240
    151925.34100  30591539.27200                    111454.90200  30591540.29600
  21438214.44600  26800730.55400                  16717754.79640  26800732.80440
 96  9 14  3 35 30.0190000  0  7  3 14 18 19 22 28 29
   -301190.11300  30109606.21800                   -217057.27840  30109610.96440
  26759471.77400  27996101.76500                  20864596.84740  27996105.47940
  -1097684.11600  26590816.82700                   -807046.32840  26590819.48740
  -2024648.68500  28095272.10800                  -1541984.56240  28095275.46040
  15661236.22800  27858440.96800                  12233414.24140  27858444.03840
    197995.00500  30600305.70200                    147353.37500  30600306.40500
  21527442.36400  26817709.82700                  16787283.04140  26817712.07740
 96  9 14  3 36  0.0190000  0  7  3 14 18 19 22 28 29
   -305418.32200  30108802.58500                   -220352.00940  30108805.67940
  26914896.12900  28025678.46800                  20985706.71940  28025682.12440
  -1085391.16100  26593155.98300                   -797467.39740  26593158.58540
  -2022988.66400  28095588.12400                  -1540691.01740  28095591.94440
  15796073.80500  27884099.60000                  12338482.48740  27884102.53040
    244497.33600  30609153.93600                    183588.96900  30609155.51100
  21616971.99200  26834746.82700                  16857046.38040  26834749.06540
 96  9 14  3 36 30.0190000  0  7  3 14 18 19 22 28 29
   -309463.52000  30108032.58500                   -223504.07040  30108034.24940
  27070582.89000  28055304.90500                  21107021.07040  28055308.51540
  -1072823.98200  26595547.53000                   -787674.78140  26595550.24940
  -2021117.74500  28095943.98300                  -1539233.15340  28095947.58140
  15931305.59400  27909833.74100                  12443857.90540  27909836.85840
    291437.66100  30618086.61600                    220165.84400  30618087.64000
  21706810.21400  26851842.52200                  16927050.19140  26851844.73740
 96  9 14  3 37  0.0190000  0  7  3 14 18 19 22 28 29
   -313320.27900  30107298.15500                   -226509.35340  30107299.99540
  27226536.85800  28084981.71000                  21228543.63640  28084985.60040
  -1059973.73800  26597992.93600                   -777661.59640  26597995.53840
  -2019044.55500  28096338.60000                  -1537617.65840  28096342.05740
  16066921.05200  27935640.09300                  12549532.29140  27935643.14040
    338821.49500  30627103.94400                    257088.33200  30627106.63200
  21796955.96600  26868996.74100                  16997293.63340  26868998.86240
 96  9 14  3 37 30.0190000  0  7  3 14 18 19 22 28 29
   -316975.68200  30106602.65500                   -229357.70740  30106606.04240
  27382756.91300  28114709.45200                  21350273.53440  28114713.08540
  -1046828.52700  26600494.30400                   -767418.56640  26600497.04640
  -2016780.08000  28096769.11600                  -1535853.11540  28096772.16340
  16202911.33200  27961518.31900                  12655498.74140  27961521.05040
    386653.69500  30636206.24100                    294360.18500  30636208.29200
  21887417.62300  26886210.84300                  17067783.23140  26886212.97540
 96  9 14  3 38  0.0190000  0  7  3 14 18 19 22 28 29
   -320443.25600  30105943.19400                   -232059.65740  30105946.08940
  27539252.46400  28144489.53000                  21472218.11440  28144493.28040
  -1033399.58500  26603049.81900                   -756954.44740  26603052.42140
  -2014337.97500  28097233.67900                  -1533950.15640  28097237.20640
  16339259.69400  27987464.69400                  12761744.22140  27987467.71840
    434934.97200  30645394.19400                    331981.98100  30645396.44800
  21978191.05400  26903484.41300                  17138515.77040  26903486.73340
 96  9 14  3 38 30.0190000  0  7  3 14 18 19 22 28 29
   -323717.54700  30105318.85800                   -234611.08240  30105323.38240
  27696035.49000  28174324.17900                  21594386.69840  28174327.49540
  -1019688.99200  26605658.78000                   -746270.85740  26605661.39340
  -2011727.65500  28097730.66300                  -1531916.12640  28097734.17940
  16475961.81500  28013477.90500                  12868265.35940  28013480.90540
    483682.92600  30654670.56900                    369967.39500  30654672.76500
  22069306.02200  26920823.21800                  17209514.44340  26920825.38640
 96  9 14  3 39  0.0190000  0  7  3 14 18 19 22 28 29
   -326807.72000  30104732.43600                   -237018.95440  30104735.26140
  27853090.54900  28204210.68600                  21716767.25240  28204214.02640
  -1005719.13600  26608317.07700                   -735385.24840  26608319.74940
  -2008969.40100  28098255.63200                  -1529766.81640  28098259.06540
  16613013.35800  28039558.18600                  12975058.76840  28039561.24540
    532885.19500  30664033.28800                    408306.83200  30664034.37800
  22160750.08500  26938224.56100                  17280769.55140  26938226.84740
 96  9 14  3 39 30.0190000  0  7  3 14 18 19 22 28 29
   -329705.71100  30104179.98300                   -239277.16840  30104182.55040
  28010416.94600  28234148.82700                  21839359.23640  28234152.69440
   -991490.73100  26611024.73300                   -724298.17140  26611027.45240
  -2006045.54400  28098811.92900                  -1527488.48440  28098815.57340
  16750434.92700  28065708.63200                  13082140.51140  28065711.23340
    582547.45200  30673483.56100                    447004.71300  30673484.83100
  22252523.51900  26955688.24100                  17352281.31240  26955690.53840
 96  9 14  3 40  0.0200000  0  7  3 14 18 19 22 28 29
   -332405.45700  30103665.84000                   -241380.83240  30103668.87540
  28168022.72900  28264140.72300                  21962168.93140  28264144.40240
   -977014.32600  26613779.62900                   -713017.85140  26613782.32440
  -2002952.00700  28099400.66000                  -1525077.92240  28099403.87140
  16888240.02200  28091931.86300                  13189521.10640  28091934.71140
    632671.82700  30683022.50400                    486062.70300  30683023.87100
  22344626.42300  26973215.10500                  17424049.81040  26973217.43740
 96  9 14  3 40 30.0200000  0  7  3 14 18 19 22 28 29
   -334891.20400  30103193.11300                   -243317.78640  30103196.39440
  28325879.50400  28294179.50400                  22085174.18740  28294182.89040
   -962297.86000  26616579.87100                   -701550.47340  26616582.53140
  -1999688.83500  28100021.69100                  -1522535.18640  28100024.80840
  17026435.73400  28118229.69900                  13297206.08040  28118232.53540
    683248.65600  30692646.98800                    525473.22300  30692649.91000
  22437037.32100  26990800.16000                  17496058.29440  26990802.29340
 96  9 14  3 41  0.0200000  0  7  3 14 18 19 22 28 29
   -337128.61500  30102766.66800                   -245061.19640  30102769.42240
  28484015.20500  28324271.84000                  22208396.81740  28324275.49640
   -947301.94800  26619433.65200                   -689865.34040  26619436.35940
  -1996214.87900  28100682.63700                  -1519828.18140  28100686.37540
  17165066.14900  28144610.26200                  13405229.77540  28144613.19140
    734304.06900  30702361.51200                    565256.64700  30702366.03500
  22529752.86900  27008443.37100                  17568304.17140  27008445.58640
 96  9 14  3 41 30.0200000  0  7  3 14 18 19 22 28 29
   -339132.59600  30102387.52700                   -246622.72240  30102390.50440
  28642417.04100  28354414.61300                  22331826.80340  28354418.25840
   -932034.39800  26622338.77700                   -677968.54440  26622341.36740
  -1992547.44100  28101380.69900                  -1516970.43140  28101383.96940
  17304093.10700  28171066.40200                  13513562.46840  28171069.26240
    785825.10100  30712164.73800                    605402.89800  30712169.34800
  22622752.28600  27026140.38700                  17640771.24640  27026142.74240
 96  9 14  3 42  0.0200000  0  7  3 14 18 19 22 28 29
   -340901.49600  30102050.39400                   -248001.06440  30102052.60940
  28801079.92300  28384607.43300                  22455460.20940  28384610.92640
   -916487.79200  26625297.36300                   -665854.29740  26625299.95340
  -1988705.10100  28102111.66000                  -1513976.38840  28102115.30540
  17443489.58900  28197592.68300                  13622183.10740  28197595.40240
    837812.82300  30722058.69100                    645912.81200  30722061.72600
  22716039.62700  27043892.55100                  17713462.67440  27043894.64840
 96  9 14  3 42 30.0200000  0  7  3 14 18 19 22 28 29
   -342430.84000  30101759.40200                   -249192.76940  30101763.94940
  28959990.69300  28414846.91800                  22579286.77940  28414850.60940
   -900648.02400  26628311.59800                   -653511.61740  26628314.10540
  -1984681.26300  28102877.57400                  -1510840.91540  28102881.00840
  17583252.79600  28224188.72300                  13731089.50240  28224191.71140
    890276.62600  30732043.47300                    686793.72000  30732044.69500
  22809629.77600  27061702.06600                  17786390.06240  27061704.24640
 96  9 14  3 43  0.0200000  0  7  3 14 18 19 22 28 29
   -343735.95200  30101511.05100                   -250209.72040  30101514.57840
  29119133.92900  28445131.09000                  22703294.47840  28445135.26240
   -884520.17000  26631380.52700                   -640944.45240  26631383.08240
  -1980492.25600  28103674.19100                  -1507576.75040  28103677.71940
  17723346.49800  28250847.59800                  13840253.42740  28250850.71540
    943207.98000  30742114.84000                    728038.94300  30742117.29700
  22903536.70700  27079572.05100                  17859564.28240  27079574.27740
 96  9 14  3 43 30.0200000  0  7  3 14 18 19 22 28 29
   -344803.79600  30101307.80800                   -251041.77340  30101310.48040
  29278518.53200  28475460.94900                  22827490.27240  28475464.73440
   -868095.41700  26634506.01200                   -628145.94040  26634508.62540
  -1976137.87900  28104502.94100                  -1504183.70440  28104506.64440
  17863777.63500  28277570.73000                  13949680.28240  28277573.68340
    996618.17100  30752277.20700                    769657.26700  30752281.88700
  22997811.37300  27097511.96500                  17933025.05740  27097514.15640
 96  9 14  3 44  0.0200000  0  7  3 14 18 19 22 28 29
   -345630.62700  30101150.30100                   -251686.04440  30101152.91440
  29438132.64200  28505834.47300                  22951864.89940  28505838.32840
   -851376.00800  26637687.48000                   -615117.82540  26637690.11740
  -1971609.53100  28105365.02700                  -1500655.11040  28105369.02340
  18004558.61900  28304360.34800                  14059379.75640  28304363.35940
   1050496.56400  30762530.88700                    811640.41100  30762534.66800
  23092457.61500  27115522.48800                  18006775.37240  27115524.66840
 96  9 14  3 44 30.0200000  0  8  3 14 18 19 22 28 29 31
   -346196.37100  30101041.26200                   -252126.86040  30101045.86740
  29597988.69300  28536253.37900                  23076428.04840  28536257.19940
   -834349.57700  26640927.48800                   -601850.47040  26640930.11340
  -1966879.18500  28106264.83200                  -1496969.11340  28106268.23040
  18145706.75200  28331219.94100                  14169365.30340  28331222.82440
   1104853.40800  30772875.16800                    853996.41500  30772877.75000
  23187486.47800  27133605.86300                  18080823.82840  27133608.09040
    -10844.32310  30737421.80100
 96  9 14  3 45  0.0200000  0  9  3 14 18 19 22 27 28 29 31
   -346508.15400  30100982.48800                   -252369.80040  30100985.19540
  29758100.96800  28566722.77700                  23201190.84640  28566726.34040
   -817006.52000  26644227.97300                   -588336.39840  26644230.55140
  -1961951.35400  28107202.67600                  -1493129.23240  28107206.01540
  18287216.44600  28358148.20700                  14279632.60740  28358151.00840
     -6998.47510  31130258.11300
   1159684.35100  30783309.41000                    896721.84900  30783311.07800
  23282875.12400  27151757.86300                  18155152.64040  27151760.16040
    -40483.46500  30731781.66800
 96  9 14  3 45 30.0200000  0  9  3 14 18 19 22 27 28 29 31
   -346554.20200  30100974.23800                   -252405.67140  30100977.81240
  29918473.11200  28597239.81600                  23326156.14740  28597243.73040
   -799331.63200  26647591.20700                   -574563.75740  26647593.83240
  -1956808.43900  28108181.16000                  -1489121.75540  28108184.68740
  18429110.80100  28385150.10500                  14390199.63040  28385153.03540
    -26055.50700  31126632.01200
   1214997.15500  30793834.55100                    939822.73900  30793835.91000
  23378610.89400  27169975.79300                  18229751.93640  27169977.98440
    -70216.80600  30726124.12900
 96  9 14  3 46  0.0200000  0  9  3 14 18 19 22 27 28 29 31
   -346340.03400  30101014.65200                   -252238.75940  30101017.89840
  30079083.38700  28627803.26200                  23451307.00340  28627807.23440
   -781329.36600  26651017.15200                   -560536.01040  26651019.78940
  -1951457.74800  28109199.44900                  -1484952.37140  28109202.55540
  18571366.59000  28412220.39400                  14501048.29940  28412223.33640
    -45080.86600  31123010.13700
   1270785.61200  30804450.07400                    983294.30300  30804453.83600
  23474662.57100  27188253.94900                  18304597.39440  27188256.08240
   -100020.78000  30720452.37900                    -18582.09250  30720456.17640
 96  9 14  3 46 30.0200000  0  9  3 14 18 19 22 27 28 29 31
   -345876.19800  30101103.54300                   -251877.34340  30101106.09840
  30239922.41600  28658409.65200                  23576636.10740  28658413.23840
   -763009.49800  26654503.21500                   -546260.78040  26654505.87540
  -1945926.25800  28110251.98800                  -1480642.10240  28110255.31640
  18713958.59500  28439354.93300                  14612158.95440  28439357.52340
    -64070.48100  31119396.57400                    -11835.80250  31119403.18340
   1327051.49900  30815158.58200                   1027137.84900  30815160.89400
  23571028.49800  27206591.46500                  18379687.72040  27206593.53940
   -129870.14300  30714773.31600                    -41841.33640  30714777.27740
 96  9 14  3 47  0.0200000  0  9  3 14 18 19 22 27 28 29 31
   -345163.02000  30101239.13700                   -251321.57340  30101243.55540
  30400990.72700  28689060.40200                  23702143.87040  28689064.08240
   -744370.59800  26658049.91000                   -531736.95440  26658052.59440
  -1940211.33400  28111339.33200                  -1476188.89440  28111342.77740
  18856893.40100  28466554.29300                  14723536.72440  28466556.95340
    -83017.33500  31115790.39400                    -26599.55840  31115795.51540
   1383802.43000  30825956.41000                   1071359.36800  30825958.98400
  23667716.44500  27224990.65200                  18455028.96940  27224992.84440
   -159763.17900  30709083.96500                    -65134.61440  30709087.53940
 96  9 14  3 47 30.0200000  0  9  3 14 18 19 22 27 28 29 31
   -344188.46200  30101424.59000                   -250562.18540  30101428.43340
  30562272.14100  28719750.83200                  23827817.68640  28719754.40640
   -725423.65000  26661655.54300                   -516973.09940  26661658.20340
  -1934303.24600  28112463.98000                  -1471585.18540  28112467.51940
  19000164.13700  28493817.75400                  14835176.26540  28493820.67240
   -101915.96800  31112195.01200                    -41325.69340  31112197.43740
   1441040.90100  30836849.43300                   1115960.77600  30836851.68300
  23764737.68700  27243453.12900                  18530629.93240  27243455.29740
   -189689.90900  30703390.51900                    -88454.10640  30703392.66440
 96  9 14  3 48  0.0200000  0  9  3 14 18 19 22 27 28 29 31
   -342954.38400  30101659.05100                   -249600.55540  30101662.00440
  30723764.23000  28750482.17600                  23953655.66440  28750485.65640
   -706177.12700  26665317.98800                   -501975.81040  26665320.68340
  -1928214.71800  28113622.49600                  -1466840.85640  28113625.77740
  19143747.95000  28521140.82400                  14947059.74740  28521143.62540
   -120772.95500  31108608.42600                    -56019.40040  31108610.37140
   1498759.36100  30847833.26900                   1160936.22300  30847835.54300
  23862079.35600  27261976.52700                  18606480.57640  27261978.84840
   -219651.01800  30697686.29300                   -111800.44140  30697690.39440
 96  9 14  3 48 30.0200000  0  9  3 14 18 19 22 27 28 29 31
   -341449.21700  30101945.91000                   -248427.67340  30101948.66440
  30885493.06900  28781258.36300                  24079678.12840  28781261.59840
   -686627.33500  26669038.24600                   -486742.20640  26669040.88340
  -1921919.64400  28114820.67600                  -1461935.58840  28114824.30840
  19287665.88500  28548527.30100                  15059203.59540  28548530.47640
   -139581.20800  31105027.79300                    -70675.14440  31105030.04340
   1556967.46800  30858909.25400                   1206293.21000  30858910.77700
  23959747.87500  27280562.44100                  18682585.90940  27280564.71540
   -249657.40600  30691977.48800                   -135182.05140  30691980.05540
 96  9 14  3 49  0.0200000  0  9  3 14 18 19 22 27 28 29 31
   -339654.56400  30102287.17600                   -247029.26440  30102291.31240
  31047462.42600  28812079.76200                  24205888.01140  28812083.10140
   -666759.79400  26672818.85500                   -471261.00140  26672821.50440
  -1915401.14300  28116060.68300                  -1456856.22640  28116063.96540
  19431940.28200  28575982.16000                  15171625.20740  28575984.96140
   -158346.13800  31101457.66800                    -85297.03440  31101461.13740
   1615669.33200  30870079.94900                   1252034.94000  30870083.01500
  24057743.56700  27299210.33200                  18758946.18540  27299212.47640
   -279708.31600  30686261.04300                   -158598.27240  30686265.12140
 96  9 14  3 49 30.0200000  0  9  3 14 18 19 22 27 28 29 31
   -337560.08400  30102686.48000                   -245397.17440  30102689.51540
  31209666.60600  28842945.91800                  24332280.85840  28842949.65640
   -646564.04600  26676662.12900                   -455524.05740  26676664.81240
  -1908667.77500  28117342.03500                  -1451609.43640  28117345.49240
  19576559.05300  28603502.49600                  15284315.15640  28603505.68340
   -177058.09800  31097896.69900                    -99877.72140  31097900.71940
   1674864.96600  30881343.24600                   1298161.39000  30881348.82800
  24156066.06300  27317920.51200                  18835561.10640  27317922.63340
   -309785.47700  30680533.86300                   -182035.03640  30680534.29740
 96  9 14  3 50  0.0200000  0  9  3 14 18 19 22 27 28 29 31
   -335161.44100  30103141.98800                   -243528.08340  30103144.62540
  31372119.19000  28873860.10500                  24458867.27640  28873863.97340
   -626037.25400  26680568.05100                   -439529.14940  26680570.72340
  -1901727.75600  28118662.64400                  -1446201.61140  28118666.00840
  19721536.69300  28631090.63700                  15397284.74440  28631093.75440
   -195699.25400  31094349.83200                   -114403.33140  31094354.54340
   1734559.69400  30892703.95700                   1344676.76300  30892706.32000
  24254732.65300  27336696.29300                  18912444.15840  27336698.47340
   -339886.15100  30674807.14400                   -205490.08940  30674813.09840
 96  9 14  3 50 30.0200000  0  9  3 14 18 19 22 27 28 29 31
   -332467.36900  30103653.85500                   -241428.82540  30103658.14440
  31534811.96500  28904819.44100                  24585640.85640  28904823.57840
   -605192.72500  26684534.67600                   -423286.65140  26684537.35940
  -1894594.06800  28120020.22300                  -1440642.88440  28120023.41040
  19866868.43900  28658746.37100                  15510530.26740  28658749.06640
   -214258.89000  31090816.83200                   -128865.32440  31090822.16440
   1794752.33100  30904159.12900                   1391580.14700  30904160.26500
  24353764.87300  27355541.34000                  18989612.11740  27355543.57840
   -370001.84700  30669077.74600                   -228956.88340  30669079.69140
 96  9 14  3 51  0.0200000  0  9  3 14 18 19 22 27 28 29 31
   -329486.51300  30104223.17600                   -239106.03940  30104227.41840
  31697709.35800  28935817.69900                  24712573.87440  28935821.74240
   -584032.76300  26688561.40200                   -406798.37140  26688564.05140
  -1887297.32600  28121408.52700                  -1434957.10640  28121412.00840
  20012546.02000  28686467.80100                  15624045.26240  28686470.42640
   -232737.59500  31087300.76200                   -143264.29640  31087307.59440
   1855435.86900  30915706.49600                   1438866.02900  30915708.60500
  24453153.93300  27374454.33200                  19067058.13340  27374456.57040
   -400127.37100  30663345.90200                   -252431.33540  30663348.05840
 96  9 14  3 51 30.0200000  0  9  3 14 18 19 22 27 28 29 31
   -326222.15300  30104843.76900                   -236562.38540  30104847.15640
  31860816.72200  28966855.59000                  24839670.51240  28966859.78540
   -562554.48900  26692648.35500                   -390062.05440  26692651.07440
  -1879825.62900  28122830.59000                  -1429135.00040  28122833.88340
  20158564.80100  28714254.27700                  15737826.13740  28714257.40640
   -251125.82700  31083799.88700                   -157592.67840  31083804.98440
   1916620.40600  30927349.07400                   1486542.30200  30927351.37500
  24552909.09700  27393437.20700                  19144789.42540  27393439.34040
   -430261.56600  30657609.26900                   -275912.46940  30657612.22340
 96  9 14  3 52  0.0200000  0  9  3 14 18 19 22 27 28 29 31
   -322669.27000  30105520.11300                   -233793.88440  30105524.12140
  32024148.72700  28997937.14400                  24966942.18540  28997941.12940
   -540753.06400  26696797.10500                   -373073.92640  26696799.84840
  -1872176.46800  28124286.03500                  -1423174.60340  28124289.37540
  20304941.43500  28742109.01200                  15851885.84140  28742111.68340
   -269429.04000  31080318.76900                   -171854.89440  31080326.34440
   1978314.73400  30939088.71500                   1534615.81600  30939089.66400
  24653030.48300  27412489.86300                  19222806.08240  27412491.93740
   -460406.72700  30651874.48000                   -299402.21340  30651877.22340
 96  9 14  3 52 30.0200000  0  9  3 14 18 19 22 27 28 29 31
   -318815.85100  30106252.69100                   -230791.21140  30106256.87540
  32187685.55400  29029056.12900                  25094373.48440  29029060.06640
   -518613.89300  26701010.25400                   -355822.62540  26701012.96140
  -1864351.28500  28125775.33200                  -1417077.05140  28125778.73040
  20451663.65000  28770029.16800                  15966214.85040  28770032.10940
   -287654.53600  31076850.56600                   -186056.51340  31076854.77340
   2040516.49500  30950924.66000                   1583084.73800  30950927.41000
  24753494.58800  27431607.43300                  19301089.79640  27431609.57840
   -490567.18400  30646133.94100                   -322903.80340  30646136.64840
 96  9 14  3 53  0.0210000  0  9  3 14 18 19 22 27 28 29 31
   -314640.72100  30107047.14100                   -227537.85240  30107050.02440
  32351442.33300  29060219.82900                  25221976.13040  29060223.61440
   -496094.66600  26705295.28200                   -338275.17640  26705297.98940
  -1856321.42200  28127303.22000                  -1410820.00640  28127306.87640
  20598743.73500  28798017.33700                  16080822.69840  28798020.29040
   -305801.26400  31073396.90700                   -200196.79240  31073401.82940
   2103238.55600  30962860.07900                   1631959.05700  30962863.74300
  24854295.83500  27450789.39900                  19379636.21440  27450791.39140
   -520742.93300  30640391.28200                   -346417.44640  30640395.73540
 96  9 14  3 53 30.0210000  0  9  3 14 18 19 22 27 28 29 31
   -310141.05400  30107903.30600                   -224031.60340  30107906.76340
  32515425.87900  29091423.83700                  25349755.51840  29091426.90740
   -473190.70400  26709653.90700                   -320427.92540  26709656.50940
  -1848080.59200  28128871.51600                  -1404398.57540  28128874.88040
  20746141.46800  28826066.18800                  16195678.06740  28826069.13040
   -323870.25800  31069959.47700                   -214276.42340  31069961.50540
   2166470.50800  30974893.64900                   1681230.71200  30974896.54800
  24955428.98600  27470034.38400                  19458441.25740  27470036.64540
   -550937.49700  30634645.32100                   -369945.61440  30634649.24740
 96  9 14  3 54  0.0210000  0  9  3 14 18 19 22 27 28 29 31
   -305295.94900  30108825.38400                   -220256.19840  30108828.34840
  32679646.20000  29122673.68800                  25477719.39840  29122678.27040
   -449891.29500  26714087.52400                   -302272.54340  26714090.11440
  -1839631.22000  28130479.54800                  -1397814.62640  28130482.89940
  20893867.68600  28854177.82900                  16310789.40940  28854181.00540
   -341851.41600  31066535.83700                   -228287.68140  31066542.17740
   2230220.04000  30987025.07100                   1730905.66000  30987026.08300
  25056912.18300  27489345.84500                  19537519.06740  27489348.14140
   -581138.84100  30628898.53200                   -393479.14840  30628900.09140
 96  9 14  3 54 30.0210000  0  9  3 14 18 19 22 27 28 29 31
   -300101.33300  30109814.03200                   -216208.41440  30109817.63040
  32844091.37200  29153967.90700                  25605858.47240  29153971.38840
   -426199.94700  26718596.02400                   -283811.74840  26718598.69640
  -1830954.24500  28132130.50100                  -1391053.33340  28132133.74740
  21041906.43000  28882348.66500                  16426144.27140  28882351.45440
   -359742.28800  31063133.68800                   -242228.55340  31063137.83740
   2294483.40600  30999254.23500                   1780981.04200  30999255.11400
  25158759.08600  27508726.80600                  19616880.28740  27508729.00940
   -611337.07900  30623153.54000                   -417010.15540  30623156.63440
 96  9 14  3 55  0.0210000  0  9  3 14 18 19 22 27 28 29 31
   -294565.99600  30110866.61000                   -211895.15240  30110869.66940
  33008765.59300  29185302.76600                  25734176.04540  29185305.49740
   -402140.78000  26723173.99300                   -265064.34440  26723176.66540
  -1822039.76600  28133827.11000                  -1384106.97140  28133830.09840
  21190248.59600  28910576.68800                  16541735.56540  28910579.92340
   -377547.21100  31059743.95400                   -256102.48640  31059748.14940
   2359262.28300  31011580.56300                   1831458.11100  31011583.47000
  25260986.46100  27528179.97700                  19696537.97540  27528182.18140
   -641513.73800  30617409.63400                   -440524.47840  30617412.59840
 96  9 14  3 55 30.0210000  0  9  3 14 18 19 22 27 28 29 31
   -288685.76200  30111986.39100                   -207313.14640  30111989.18140
  33173650.82700  29216679.54000                  25862658.04840  29216683.98140
   -377745.86000  26727816.36000                   -246055.31240  26727819.04440
  -1812892.26000  28135567.56300                  -1376979.03040  28135570.98540
  21338894.58100  28938863.15700                  16657563.60140  28938865.67740
   -395267.67700  31056372.44600                   -269910.61640  31056376.04440
   2424557.03100  31024004.93800                   1882337.13000  31024008.68400
  25363606.41300  27547707.93800                  19776501.56340  27547710.23540
   -671652.31700  30611673.95400                   -464009.08640  30611677.97340
 96  9 14  3 56  0.0210000  0  9  3 14 18 19 22 27 28 29 31
   -282453.31700  30113172.42300                   -202456.65140  30113174.96640
  33338718.46700  29248092.61800                  25991282.15940  29248096.28640
   -353028.55000  26732519.82900                   -226795.06840  26732522.40740
  -1803517.76100  28137351.37600                  -1369674.20040  28137354.73940
  21487853.84800  28967209.64100                  16773635.76140  28967212.97040
   -412906.35400  31053015.52400                   -283654.94440  31053020.16540
   2490365.88400  31036529.09500                   1933616.76000  31036531.78600
  25466611.26700  27567309.11000                  19856765.07740  27567311.46640
   -701754.75100  30605946.65700                   -487465.50740  30605948.43840
 96  9 14  3 56 30.0210000  0  9  3 14 18 19 22 27 28 29 31
   -275860.85900  30114426.92300                   -197319.68640  30114430.00540
  33503969.06000  29279537.27400                  26120048.85940  29279539.98140
   -327973.83500  26737287.74300                   -207271.91540  26737290.38040
  -1793907.61700  28139180.03200                  -1362185.76340  28139183.31340
  21637125.63500  28995615.32900                  16889951.43740  28995618.47040
   -430453.48800  31049675.48500                   -297328.02840  31049679.66940
   2556699.17000  31049153.34500                   1985305.03800  31049154.70400
  25569980.72700  27586979.82100                  19937312.70140  27586981.96640
   -731805.97600  30600228.64100                   -510882.06340  30600232.88440
 96  9 14  3 57  0.0210000  0  9  3 14 18 19 22 27 28 29 31
   -268927.26600  30115746.48500                   -191916.84340  30115748.75940
  33669383.96900  29311013.96200                  26248943.58440  29311018.64940
   -302570.59000  26742121.75100                   -187477.17940  26742124.41140
  -1784091.96900  28141048.09500                  -1354537.19240  28141051.42340
  21786704.88600  29024078.86800                  17006506.69340  29024081.36440
   -447918.90100  31046352.58700                   -310937.36040  31046355.89140
   2623548.03700  31061874.01600                   2037395.07400  31061874.96600
  25673686.37200  27606714.15700                  20018122.28840  27606716.44240
   -761819.79700  30594516.09500                   -534269.43040  30594517.74740
 96  9 14  3 57 30.0210000  0  9  3 14 18 19 22 27 28 29 31
   -261655.25200  30117130.19600                   -186250.35040  30117133.33740
  33834969.24200  29342525.37600                  26377971.03240  29342529.68840
   -276781.10300  26747029.31300                   -167381.47340  26747031.93840
  -1774088.22800  28142951.72700                  -1346742.05840  28142955.17340
  21936596.77300  29052602.29000                  17123305.55540  29052605.37240
   -465295.33300  31043045.79000                   -324477.41540  31043049.01340
   2690913.49200  31074691.79800                   2089887.65300  31074694.15300
  25777722.16500  27626511.47700                  20099189.13540  27626513.66940
   -791800.99900  30588810.21200                   -557631.42440  30588813.01340
 96  9 14  3 58  0.0210000  0  9  3 14 18 19 22 27 28 29 31
   -254065.69100  30118574.18800                   -180336.38840  30118576.79040
  34000730.12300  29374068.09500                  26507135.35540  29374072.06740
   -250597.75400  26752011.97700                   -146978.85940  26752014.61440
  -1763925.92600  28144885.29800                  -1338823.36740  28144888.75540
  22086792.34100  29081183.79800                  17240341.07640  29081186.91540
   -482592.49200  31039753.82100                   -337955.64740  31039759.39940
   2758785.85800  31087606.57100                   2142775.22100  31087609.73100
  25882067.89600  27646368.07100                  20180497.49140  27646370.36840
   -821762.93900  30583109.11800                   -580978.36340  30583111.83740
 96  9 14  3 58 30.0210000  0  9  3 14 18 19 22 27 28 29 31
   -246164.07300  30120078.03200                   -174179.25640  30120081.48940
  34166684.69300  29405647.46200                  26636450.60840  29405651.23540
   -224002.34000  26757072.87600                   -126255.15940  26757075.55940
  -1753594.84600  28146851.34500                  -1330773.16440  28146854.64940
  22237299.81100  29109824.70400                  17357619.61840  29109827.56340
   -499811.24500  31036477.25100                   -351372.83540  31036480.87240
   2827173.63000  31100620.00900                   2196064.39400  31100623.28200
  25986750.22600  27666288.24300                  20262068.12640  27666290.54040
   -851680.70400  30577416.41500                   -604290.87740  30577417.13040
 96  9 14  3 59  0.0210000  0  9  3 14 18 19 22 27 28 29 31
   -237955.69200  30121639.67300                   -167783.11540  30121642.62640
  34332836.09200  29437265.81300                  26765919.21640  29437269.93840
   -197008.69800  26762209.52400                   -105221.15540  26762212.09140
  -1743080.85400  28148852.00100                  -1322580.43240  28148855.45840
  22388124.36100  29138525.22700                  17475145.23240  29138528.28640
   -516956.75300  31033213.92300                   -364732.91940  31033220.45040
   2896075.62400  31113734.15700                   2249754.26700  31113735.61800
  26091808.84200  27686280.11000                  20343931.98040  27686282.32540
   -881547.44500  30571732.09500                   -627563.70740  30571735.34140
 96  9 14  3 59 30.0210000  0  9  3 14 18 19 22 27 28 29 31
   -229424.20100  30123262.79800                   -161135.17440  30123266.32540
  34499184.61000  29468920.36800                  26895541.43140  29468924.31740
   -169652.92400  26767415.25900                    -83904.96640  26767417.73140
  -1732377.59400  28150888.97700                  -1314240.22040  28150892.38840
  22539268.44600  29167286.94600                  17592919.84740  29167289.74740
   -534044.13900  31029963.24300                   -378047.73440  31029967.80240
   2965493.66100  31126944.33700                   2303846.25400  31126945.93800
  26197255.28900  27706346.06300                  20426098.02740  27706348.39540
   -911358.67200  30566060.66500                   -650793.17740  30566064.23940
 96  9 14  4  0  0.0210000  0  9  3 14 18 19 22 27 28 29 31
   -220548.65200  30124952.34500                   -154219.15940  30124955.19240
  34665721.26900  29500611.74300                  27025310.23940  29500615.45840
   -141957.78800  26772685.18800                    -62324.34740  26772687.82540
  -1721466.23500  28152965.29000                  -1305737.85740  28152968.79440
  22690735.29400  29196110.67300                  17710945.96840  29196113.56740
   -551072.26400  31026724.09500                   -391316.30840  31026726.47340
   3035428.60000  31140251.74300                   2358341.02500  31140254.40300
  26303093.34000  27726486.54000                  20508569.22740  27726488.83740
   -941117.63900  30560396.37600                   -673982.02040  30560400.43140
 96  9 14  4  0 30.0210000  0  9  3 14 18 19 22 27 28 29 31
   -211318.54800  30126708.82100                   -147026.84140  30126712.16140
  34832424.62600  29532334.58700                  27155208.95340  29532337.98540
   -113921.38900  26778020.60200                    -40477.79940  26778023.15740
  -1710322.96000  28155085.56300                  -1297054.76640  28155088.80940
  22842514.50900  29224992.93800                  17829215.48040  29224995.80940
   -568047.67200  31023491.83700                   -404543.89440  31023494.52040
   3105879.02700  31153657.22000                   2413237.47600  31153660.13000
  26409329.49400  27746702.43100                  20591350.63940  27746704.73940
   -970821.70800  30554743.86000                   -697128.03040  30554745.46640
 96  9 14  4  1  0.0210000  0  9  3 14 18 19 22 27 28 29 31
   -201722.59400  30128534.99300                   -139549.47340  30128537.79440
  34999286.79100  29564086.96200                  27285231.40440  29564090.40740
    -85549.83000  26783419.32900                    -18370.08840  26783421.93140
  -1698950.80200  28157249.71200                  -1288193.33340  28157252.93440
  22994590.42300  29253931.57900                  17947716.19040  29253934.21640
   -584964.62500  31020273.36800                   -417725.84740  31020276.77840
   3176841.75000  31167160.55600                   2468533.06500  31167164.23100
  26515937.72400  27766989.32100                  20674421.97740  27766991.71240
  -1000486.23800  30549099.01600                   -720243.22040  30549101.74740
 96  9 14  4  1 30.0210000  0  9  3 14 18 19 22 27 28 29 31
   -191732.41700  30130436.39100                   -131764.90040  30130437.71640
  35166314.33900  29595871.05600                  27415382.73940  29595874.74740
    -56810.38200  26788888.42300                      4024.29240  26788891.01340
  -1687348.84300  28159457.63400                  -1279152.83340  28159461.04440
  23146956.53300  29282926.36000                  18066443.03440  29282930.04040
   -601808.03500  31017068.00900                   -430850.55540  31017071.60640
   3248324.91300  31180762.30600                   2524234.27100  31180763.63400
  26622903.82300  27787344.48500                  20757772.17640  27787346.63040
  -1030100.28100  30543464.05600                   -743319.11440  30543470.14940
 96  9 14  4  2  0.0210000  0  9  3 14 18 19 22 27 28 29 31
   -181357.37800  30132409.74300                   -123680.43840  30132412.53240
  35333502.46200  29627685.72000                  27545659.18540  29627688.94240
    -27671.18600  26794433.58700                     26730.15340  26794436.20040
  -1675520.00300  28161708.42300                  -1269935.54440  28161711.61040
  23299594.05200  29311972.48500                  18185381.34940  29311975.46240
   -618559.27700  31013878.59500                   -443903.41240  31013883.98540
   3320323.65000  31194466.23500                   2580337.18500  31194467.09100
  26730224.80500  27807766.91500                  20841398.90440  27807769.10640
  -1059656.16500  30537839.68100                   -766349.67740  30537843.92340
 96  9 14  4  2 30.0210000  0  9  3 14 18 19 22 27 28 29 31
   -170593.65600  30134458.39900                   -115293.11340  30134460.97740
  35500850.97700  29659532.12600                  27676060.60540  29659536.81340
      1871.93200  26800055.25900                     49750.76640  26800057.86040
  -1663461.66900  28164003.04000                  -1260539.42540  28164006.23940
  23452490.22800  29341067.50100                  18304521.23440  29341070.84140
   -635222.73000  31010710.75100                   -456887.86940  31010715.28640
   3392843.99300  31208264.05600                   2636846.59100  31208265.88800
  26837909.07200  27828258.57900                  20925308.71940  27828260.86440
  -1089133.55100  30532231.36800                   -789319.04940  30532233.89940
 96  9 14  4  3  0.0210000  0  9  3 14 18 19 22 27 28 29 31
   -159441.85600  30136580.39100                   -106603.38840  30136584.01340
  35668362.31600  29691408.13400                  27806588.89740  29691412.17740
     31810.41300  26805752.25900                     73079.45540  26805755.05940
  -1651201.37200  28166336.08700                  -1250985.93740  28166339.52040
  23605633.73100  29370209.84500                  18423853.82440  29370212.56340
   -651798.82700  31007556.72700                   -469804.21040  31007561.56740
   3465882.16300  31222163.54800                   2693759.43900  31222167.13000
  26945945.10400  27848817.14100                  21009492.62840  27848819.53240
  -1118538.35900  30526635.59500                   -812231.81640  30526640.85640
 96  9 14  4  3 30.0210000  0  9  3 14 18 19 22 27 28 29 31
   -147903.98500  30138775.54000                    -97612.80340  30138778.24740
  35836027.71200  29723314.18800                  27937237.24440  29723317.80940
     62145.22000  26811524.92300                     96716.97140  26811527.55940
  -1638752.27500  28168705.07100                  -1241285.32640  28168708.56340
  23759032.67700  29399400.67300                  18543385.48040  29399403.32140
   -668297.97300  31004414.04000                   -482660.67340  31004418.09540
   3539438.66800  31236160.68100                   2751076.16800  31236162.80600
  27054348.12500  27869445.65700                  21093962.50740  27869447.82540
  -1147864.77600  30521053.98500                   -835083.60640  30521056.71640
 96  9 14  4  4  0.0210000  0  8  3 14 18 19 22 27 29 31
   -135978.07700  30141044.74300                    -88319.87240  30141048.47040
  36003845.41700  29755248.57900                  28068004.28240  29755252.16540
     92866.25800  26817371.03200                    120655.44240  26817373.59840
  -1626113.32500  28171110.25100                  -1231436.78540  28171113.56740
  23912705.23100  29428643.27400                  18663130.31940  29428645.94640
   -684719.17700  31001289.41500                   -495456.35840  31001291.44240
  27163127.93300  27890145.64900                  21178725.98640  27890147.92340
  -1177107.69900  30515488.98500                   -857870.31640  30515492.00940
 96  9 14  4  4 30.0210000  0  8  3 14 18 19 22 27 29 31
   -123664.19900  30143388.51600                    -78724.65540  30143391.13040
  36171798.14400  29787209.05600                  28198876.53740  29787212.30240
    123953.03500  26823286.47700                    144878.90040  26823289.06740
  -1613302.79100  28173547.97700                  -1221454.53540  28173551.17740
  24066639.68800  29457936.12600                  18783079.24340  29457939.33740
   -701079.70500  30998177.91500                   -508204.79340  30998182.06340
  27272265.89100  27910913.87600                  21263768.54140  27910916.11440
  -1206288.87300  30509934.97700                   -880608.85340  30509937.74340
 96  9 14  4  5  0.0210000  0  8  3 14 18 19 22 27 29 31
   -110958.01400  30145806.43100                    -68823.72740  30145808.73940
  36339901.64100  29819196.64100                  28329866.26940  29819200.14540
    155430.92000  26829276.58700                    169407.12140  26829279.23540
  -1600324.09000  28176017.80600                  -1211341.25340  28176021.06340
  24220861.33100  29487283.76600                  18903251.95540  29487286.41540
   -717354.48600  30995080.36000                   -520886.39140  30995083.91140
  27381762.19400  27931750.32100                  21349090.32840  27931752.58340
  -1235397.36600  30504397.79800                   -903290.75840  30504401.64140
 96  9 14  4  5 30.0210000  0  8  3 14 18 19 22 27 29 31
    -97868.89200  30148297.53200
  36508152.76600  29851214.25900                  28460971.02240  29851219.18140
    187297.28500  26835340.47000                    194238.05240  26835343.01340
  -1587163.07600  28178522.07100                  -1201085.91440  28178525.43440
  24375377.84000  29516687.10200                  19023654.42540  29516690.23140
   -733542.32800  30991999.54800                   -533500.25340  30992003.45040
  27491616.89000  27952655.06300                  21434691.38440  27952657.36040
  -1264426.22400  30498874.40700                   -925910.66340  30498878.08740
 96  9 14  4  6  0.0210000  0  8  3 14 18 19 22 27 29 31
    -84410.07800  30150858.22700
  36676553.64800  29883260.08700                  28592192.47040  29883264.59840
    219547.80000  26841477.42300                    219368.32740  26841480.02440
  -1573812.84600  28181062.70400                  -1190683.12440  28181065.90340
  24530161.71800  29546141.97000                  19144265.23040  29546144.84140
   -749638.13700  30988936.04800                   -546042.42840  30988939.82140
  27601805.88700  27973623.21200                  21520552.93040  27973625.34540
  -1293377.54700  30493363.75100                   -948470.12740  30493366.05940
 96  9 14  4  6 30.0220000  0  8  3 14 18 19 22 27 29 31
    -70592.13300  30153487.92800                      2896.24850  30153490.44740
  36845123.29800  29915338.79500                  28723545.42940  29915343.33040
    252205.60900  26847692.06800                    244815.97440  26847694.59940
  -1560259.16700  28183641.57600                  -1180121.80340  28183644.93940
  24685210.01300  29575645.46700                  19265082.08440  29575648.58440
   -765635.45800  30985892.02100                   -558507.82440  30985896.11140
  27712333.86700  27994656.03700                  21606678.62340  27994658.14640
  -1322244.12400  30487870.23200                   -970963.51740  30487874.72140
 96  9 14  4  7  0.0220000  0  8  3 14 18 19 22 27 29 31
    -56434.99500  30156181.78700                     13927.78940  30156185.37340
  37013846.33200  29947445.74800                  28855017.91740  29947450.20140
    285264.34400  26853983.01400                    270576.02840  26853985.58040
  -1546492.03500  28186261.42800                  -1169394.15740  28186264.69740
  24840503.00400  29605197.80300                  19386089.60740  29605200.87340
   -781546.06500  30982864.10700                   -570905.61240  30982868.18540
  27823199.43400  28015753.10700                  21693067.37240  28015755.29940
  -1351020.94900  30482394.88900                   -993387.03040  30482397.99440
 96  9 14  4  7 30.0220000  0  8  3 14 18 19 22 27 29 31
    -41931.98700  30158941.82600                     25228.82640  30158945.57640
  37182711.68100  29979580.25600                  28986601.30040  29979583.90040
    318719.13200  26860349.15400                    296644.69540  26860351.67440
  -1532496.37300  28188924.78700                  -1158488.44040  28188928.17440
  24996027.17500  29634792.63100                  19507277.28040  29634795.64240
   -797381.80100  30979850.90400                   -583245.11240  30979855.80340
  27934412.81300  28036916.20100                  21779727.13740  28036918.41640
  -1379715.32800  30476934.67000                  -1015746.25240  30476939.75640
 96  9 14  4  8  0.0220000  0  8  3 14 18 19 22 27 29 31
    -27053.14200  30161773.47400                     36822.76640  30161777.16640
  37351721.53300  30011740.58400                  29118297.27940  30011743.42040
    352589.13000  26866794.72400                    323036.89940  26866797.19740
  -1518265.69400  28191632.52100                  -1147399.59040  28191635.58040
  25151783.52500  29664432.28700                  19628645.85240  29664434.54940
   -813141.56900  30976853.84900                   -595525.40740  30976858.93540
  28045990.92200  28058148.95100                  21866671.10940  28058151.29540
  -1408322.92200  30471490.58400                  -1038037.90440  30471492.88140
 96  9 14  4  8 30.0220000  0  8  3 14 18 19 22 27 29 31
    -11801.17700  30164675.24800                     48707.38640  30164678.31840
  37520838.55200  30043922.32600                  29250076.73240  30043926.12340
    386849.08200  26873314.06000                    349732.95740  26873316.59240
  -1503824.39600  28194380.98200                  -1136146.63140  28194384.47440
  25307765.63100  29694114.19300                  19750190.34440  29694116.83040
   -828857.73400  30973860.95900                   -607771.71240  30973864.95540
  28157932.38300  28079450.37300                  21953898.21740  28079452.48240
  -1436864.84200  30466058.84200                  -1060278.30940  30466062.95540
 96  9 14  4  9  0.0220000  0  8  3 14 18 19 22 27 29 31
      3858.32600  30167655.49800                     60909.60640  30167658.49840
  37690049.95800  30076123.09900                  29381929.79140  30076127.22440
    421481.71000  26879904.34900                    376719.42140  26879906.91640
  -1489174.78400  28197168.60700                  -1124731.33640  28197171.80640
  25463987.14700  29723842.32600                  19871921.39040  29723845.13940
   -844526.90800  30970879.96700                   -619981.42640  30970883.18940
  28270244.94000  28100822.91200                  22041414.48740  28100825.23240
  -1465328.73000  30460643.22400                  -1082457.95740  30460644.37340
 96  9 14  4  9 30.0220000  0  8  3 14 18 19 22 27 29 31
     19926.39100  30170713.16200                     73430.19540  30170715.88140
  37859347.66900  30108338.55300                  29513850.09240  30108342.59640
    456476.88800  26886563.60700                    403988.38940  26886566.26740
  -1474341.55200  28199991.38100                  -1113172.96940  28199994.73240
  25620446.11900  29753615.95900                  19993837.47140  29753619.61540
   -860161.36900  30967905.94300                   -632164.05940  30967909.92840
  28382910.10700  28122262.51400                  22129205.51740  28122264.85740
  -1493718.57000  30455238.67000                  -1104579.90940  30455239.91240
 96  9 14  4 10  0.0220000  0  8  3 14 18 19 22 27 29 31
     36381.65500  30173844.35700                     86252.49140  30173847.70940
  38028733.66600  30140572.09200                  29645839.17440  30140575.91240
    491841.09500  26893293.22400                    431544.90640  26893295.83840
  -1459343.89500  28202845.44300                  -1101486.46440  28202848.84240
  25777137.00200  29783432.34900                  20115934.26940  29783435.97140
   -875764.66300  30964934.84900                   -644322.43140  30964939.17440
  28495919.67100  28143767.48200                  22217264.90940  28143769.73240
  -1522026.64400  30449853.94300                  -1126638.13940  30449854.88140
 96  9 14  4 10 30.0220000  0  8  3 14 18 19 22 27 29 31
     53219.34000  30177048.50600                     99372.75940  30177051.88140
  38198211.89700  30172822.68500                  29777900.10240  30172825.43940
    527578.90700  26900093.91200                    459392.55940  26900096.56040
  -1444181.19400  28205730.49800                  -1089671.35940  28205733.86140
  25934060.42400  29813294.38100                  20238212.25340  29813297.07640
   -891321.28700  30961975.15400                   -656444.42540  30961978.11940
  28609276.57100  28165338.62300                  22305594.95540  28165340.81440
  -1550226.35600  30444486.47400                  -1148611.96140  30444488.68940
 96  9 14  4 11  0.0220000  0  8  3 14 18 19 22 27 29 31
     70434.54000  30180323.67000                    112787.21840  30180326.72840
  38367796.51300  30205093.33400                  29910043.95440  30205097.27140
    563713.67200  26906970.15400                    487549.51340  26906972.82640
  -1428849.29700  28208648.11500                  -1077724.40740  28208651.45540
  26091208.47900  29843198.36500                  20360665.29240  29843201.51740
   -906817.22000  30959026.50600                   -668519.10440  30959029.54140
  28722979.69300  28186975.59900                  22394194.78540  28186977.93140
  -1578298.80500  30439144.96700                  -1170486.57540  30439147.28740
 96  9 14  4 11 30.0220000  0  8  3 14 18 19 22 27 29 31
     88004.61100  30183667.70900                    126478.18840  30183670.28740
  38537481.47300  30237383.44300                  30042265.97740  30237388.04940
    600255.11200  26913923.86500                    516023.35940  26913926.45540
  -1413369.03500  28211594.11500                  -1065661.84540  28211597.24440
  26248542.06700  29873138.29500                  20483262.87640  29873141.62340
   -922267.65600  30956086.13100                   -680558.38840  30956089.44740
  28837007.86100  28208674.51400                  22483047.89040  28208676.84640
  -1606255.10600  30433825.72400                  -1192270.66840  30433828.36140
 96  9 14  4 12  0.0220000  0  8  3 14 18 19 22 27 29 31
    105952.79400  30187082.78700                    140463.80340  30187085.77540
  38707259.66600  30269691.52900                  30174560.63940  30269695.83040
    637210.75000  26920956.34200                    544819.96340  26920958.97840
  -1397728.88800  28214570.17000                  -1053474.70940  28214573.48640
  26406051.57900  29903111.74000                  20605997.57040  29903114.93940
   -937656.22600  30953157.17800                   -692549.41540  30953161.29140
  28951365.14400  28230435.92800                  22572157.45040  28230438.09640
  -1634088.45300  30428529.72400                  -1213958.98640  30428533.11140
 96  9 14  4 12 30.0220000  0  8  3 14 18 19 22 27 29 31
    124311.36800  30190576.62300                    154769.17440  30190579.36540
  38877122.47200  30302014.74800                  30306921.26640  30302019.28340
    674572.97100  26928065.99000                    573933.38740  26928068.51040
  -1381905.98500  28217581.34900                  -1041145.16340  28217584.65440
  26563738.69800  29933118.51400                  20728870.64240  29933121.04540
   -952974.46100  30950242.17000                   -704485.65340  30950245.62740
  29066046.18700  28252259.01400                  22661519.29540  28252261.43940
  -1661805.94200  30423254.52100                  -1235557.00940  30423257.72140
 96  9 14  4 13  0.0220000  0  8  3 14 18 19 22 27 29 31
    143101.11100  30194151.88900                    169410.56740  30194155.07640
  39047076.22200  30334356.26400                  30439352.75440  30334359.82640
    712346.87800  26935254.17800                    603367.60340  26935256.83840
  -1365890.87500  28220628.60700                  -1028665.83740  28220631.90040
  26721609.56500  29963159.80300                  20851886.90640  29963162.40440
   -968215.11200  30947341.73200                   -716361.43440  30947345.38940
  29181042.28100  28274142.13100                  22751126.63140  28274144.27540
  -1689418.55300  30418000.09900                  -1257073.30840  30418001.35340
 96  9 14  4 13 30.0220000  0  8  3 14 18 19 22 27 29 31
    162347.06100  30197814.21700                    184407.40640  30197817.63940
  39217115.66800  30366713.84200                  30571851.00840  30366718.00240
    750534.49600  26942520.96700                    633124.19140  26942523.52140
  -1349667.65400  28223715.83400                  -1016024.35740  28223719.04540
  26879685.45800  29993240.74000                  20975062.92240  29993243.21340
   -983368.43400  30944458.04500                   -728169.18140  30944460.78740
  29296365.19600  28296087.27900                  22840988.63640  28296089.48240
  -1716927.43700  30412764.35700                  -1278508.80140  30412767.58040
 96  9 14  4 14  0.0220000  0  8  3 14 18 19 22 27 29 31
    182035.35000  30201560.50600                    199748.95540  30201564.37340
  39387215.88000  30399082.80300                  30704396.60940  30399087.06840
    789121.30600  26949863.84900                    663191.83840  26949866.45140
  -1333231.29400  28226843.60700                  -1003216.78040  28226846.59640
  27037970.97200  30023361.69300                  21098402.29540  30023364.78740
   -998430.33300  30941591.91200                   -739905.68240  30941595.24040
  29412009.95500  28318093.95100                  22931101.42540  28318096.29540
  -1744346.73400  30407546.76400                  -1299874.46940  30407549.86940
 96  9 14  4 14 30.0220000  0  8  3 14 18 19 22 27 29 31
    202148.40200  30205388.49800                    215421.46440  30205391.58040
  39557387.69500  30431465.32600                  30836998.01940  30431468.47840
    828121.59400  26957285.47400                    693581.66740  26957288.04140
  -1316587.92800  28230010.94300                   -990247.91840  28230014.02540
  27196480.37400  30053525.24800                  21221916.09740  30053527.73240
  -1013403.18200  30938742.42000                   -751572.78040  30938746.07640
  29527984.77400  28340163.06000                  23021471.40540  28340165.29940
  -1771667.25500  30402347.42800                  -1321163.17240  30402351.44740
 96  9 14  4 15  0.0220000  0  8  3 14 18 19 22 27 29 31
    222668.89400  30209293.44300                    231411.48540  30209297.14640
  39727631.18700  30463861.76400                  30969655.28640  30463866.66240
    867534.87000  26964785.46700                    724293.31340  26964788.08040
  -1299766.39200  28233211.83400                   -977140.20940  28233215.04540
  27355214.99500  30083731.66200                  21345605.41740  30083734.74440
  -1028311.46700  30935905.85700                   -763189.59140  30935908.01440
  29644305.28000  28362298.05300                  23112110.74840  28362300.34940
  -1798875.89400  30397170.18500                  -1342364.70840  30397172.59940
 96  9 14  4 15 30.0220000  0  8  3 14 18 19 22 27 29 31
    243572.27200  30213270.72400                    247699.83640  30213273.19740
  39897929.76000  30496268.63100                  31102355.45940  30496271.76040
    907346.27900  26972361.10700                    755315.18840  26972363.73240
  -1282776.98400  28236444.56000                   -963901.69640  28236448.00640
  27514153.17500  30113976.46700                  21469453.34040  30113979.17440
  -1043174.65300  30933077.74000                   -774771.23940  30933081.33840
  29760970.58200  28384498.73200                  23203018.76740  28384501.07640
  -1825967.70000  30392014.04500                  -1363475.17040  30392017.45540
 96  9 14  4 16  0.0220000  0  8  3 14 18 19 22 27 29 31
    264848.70600  30217319.99000                    264278.89240  30217323.51740
  40068303.76300  30528688.56000                  31235114.42040  30528692.20540
    947545.11300  26980010.63900                    786638.95240  26980013.27540
  -1265618.66300  28239710.01400                   -950531.56240  28239713.16640
  27673290.15300  30144259.34200                  21593456.17340  30144262.70540
  -1057993.65800  30930258.20900                   -786318.47240  30930260.45940
  29877986.12400  28406765.91200                  23294199.69840  28406768.24440
  -1852918.58400  30386886.48200                  -1384475.86540  30386891.04140
 96  9 14  4 16 30.0220000  0  8  3 14 18 19 22 27 29 31
    286509.16800  30221441.88100                    281157.15440  30221444.41240
  40238756.53100  30561125.30300                  31367934.73840  30561128.71340
    988109.70400  26987730.18500                    818247.72040  26987732.82240
  -1248303.07700  28243004.95100                   -937038.88940  28243008.25640
  27832625.29000  30174579.24800                  21717613.41040  30174581.40440
  -1072793.70400  30927441.49800                   -797850.92040  30927444.20540
  29995356.24100  28429100.99800                  23385656.92440  28429103.26040
  -1879726.52000  30381786.26400                  -1405365.16540  30381788.47840
